[[{"header":{"parameterUnit":"m.s-1","parameterCategory":1,"la1":30.6,"la2":29.2853,"lo1":-89.7004,"lo2":-87.6739,"dy":0.0162,"dx":0.0183,"nx":112,"ny":82,"refTime":"2024-04-12T18:00:00:Z","depth":0,"parameterNumber":2,"parameterNumberName":"U-component_of_WINDS"},"data":[0.0,0.0,0.0,0.0,0.0,0.0,0.0,0.0,0.0,0.0,0.0,0.0,0.0,0.0,0.0,0.0,0.0,0.0,0.0,0.0,0.0,0.0,0.0,0.0,0.0,0.0,0.0,0.0,0.0,0.0,0.0,0.0,0.0,0.0,0.0,0.0,0.0,0.0,0.0,0.0,0.0,0.0,0.0,0.0,0.0,0.0,0.0,0.0,0.0,0.0,0.0,0.0,0.0,0.0,0.0,0.0,0.0,0.0,0.0,0.0,0.0,0.0,0.0,0.0,0.0,0.0,0.0,0.0,0.0,0.0,0.0,0.0,0.0,0.0,0.0,0.0,0.0,0.0,0.0,0.0,0.0,0.0,0.0,0.0,0.0,0.0,0.0,0.0,0.0,0.0,-7.03,-7.03,-7.03,-7.03,-7.03,-7.03,-7.057,-7.1163,0.0,0.0,0.0,0.0,0.0,0.0,0.0,0.0,0.0,0.0,0.0,0.0,0.0,0.0,0.0,0.0,0.0,0.0,0.0,0.0,0.0,0.0,0.0,0.0,0.0,0.0,0.0,0.0,0.0,0.0,0.0,0.0,0.0,0.0,0.0,0.0,0.0,0.0,0.0,0.0,0.0,0.0,0.0,0.0,0.0,0.0,0.0,0.0,0.0,0.0,0.0,0.0,0.0,0.0,0.0,0.0,0.0,0.0,0.0,0.0,0.0,0.0,0.0,0.0,0.0,0.0,0.0,0.0,0.0,0.0,0.0,0.0,0.0,0.0,0.0,0.0,0.0,0.0,0.0,0.0,0.0,0.0,0.0,0.0,0.0,0.0,0.0,0.0,0.0,0.0,0.0,0.0,0.0,0.0,0.0,0.0,0.0,0.0,0.0,0.0,0.0,0.0,0.0,0.0,-7.03,-7.03,-7.03,-7.03,-7.03,-7.03,-7.0334,-7.047,0.0,0.0,0.0,0.0,0.0,0.0,0.0,0.0,0.0,0.0,0.0,0.0,0.0,0.0,0.0,0.0,0.0,0.0,0.0,0.0,0.0,0.0,0.0,0.0,0.0,0.0,0.0,0.0,0.0,0.0,0.0,0.0,0.0,0.0,0.0,0.0,0.0,0.0,0.0,0.0,0.0,0.0,0.0,0.0,0.0,0.0,0.0,0.0,0.0,0.0,0.0,0.0,0.0,0.0,0.0,0.0,0.0,0.0,0.0,0.0,0.0,0.0,0.0,0.0,0.0,0.0,0.0,0.0,0.0,0.0,0.0,0.0,0.0,0.0,0.0,0.0,0.0,0.0,0.0,0.0,0.0,0.0,0.0,0.0,0.0,0.0,0.0,0.0,0.0,0.0,0.0,0.0,0.0,0.0,0.0,0.0,0.0,0.0,0.0,0.0,0.0,0.0,0.0,-6.894,-6.8903,-6.879,-6.879,-6.879,-6.879,-6.879,-6.9015,-6.9493,-6.9849,0.0,0.0,0.0,0.0,0.0,0.0,0.0,0.0,0.0,0.0,0.0,0.0,0.0,0.0,0.0,0.0,0.0,0.0,0.0,0.0,0.0,0.0,0.0,0.0,0.0,0.0,0.0,0.0,0.0,0.0,0.0,0.0,0.0,0.0,0.0,0.0,0.0,0.0,0.0,0.0,0.0,0.0,0.0,0.0,0.0,0.0,0.0,0.0,0.0,0.0,0.0,0.0,0.0,0.0,0.0,0.0,0.0,0.0,0.0,0.0,0.0,0.0,0.0,0.0,0.0,0.0,0.0,0.0,0.0,0.0,0.0,0.0,0.0,0.0,0.0,0.0,0.0,0.0,0.0,0.0,0.0,0.0,0.0,0.0,0.0,0.0,0.0,0.0,0.0,0.0,0.0,0.0,0.0,0.0,0.0,0.0,0.0,0.0,0.0,0.0,0.0,0.0,-6.7719,-6.7678,-6.755,-6.751,-6.751,-6.751,-6.751,-6.7805,-6.852,-6.8559,0.0,0.0,0.0,0.0,0.0,0.0,0.0,0.0,0.0,0.0,0.0,0.0,0.0,0.0,0.0,0.0,0.0,0.0,0.0,0.0,0.0,0.0,0.0,0.0,0.0,0.0,0.0,0.0,0.0,0.0,0.0,0.0,0.0,0.0,0.0,0.0,0.0,0.0,0.0,0.0,0.0,0.0,0.0,0.0,0.0,0.0,0.0,0.0,0.0,0.0,0.0,0.0,0.0,0.0,0.0,0.0,0.0,0.0,0.0,0.0,0.0,0.0,0.0,0.0,0.0,0.0,0.0,0.0,0.0,0.0,0.0,0.0,0.0,0.0,0.0,0.0,0.0,0.0,0.0,0.0,0.0,0.0,0.0,0.0,0.0,0.0,0.0,0.0,0.0,0.0,0.0,0.0,0.0,0.0,0.0,0.0,0.0,0.0,0.0,0.0,0.0,0.0,-6.7516,-6.755,-6.751,-6.751,-6.751,-6.751,-6.751,-6.7516,-6.7597,-6.7597,0.0,0.0,0.0,0.0,0.0,0.0,0.0,0.0,0.0,0.0,0.0,0.0,0.0,0.0,0.0,0.0,0.0,0.0,0.0,0.0,0.0,0.0,0.0,0.0,0.0,0.0,0.0,0.0,0.0,0.0,0.0,0.0,0.0,0.0,0.0,0.0,0.0,0.0,0.0,0.0,0.0,0.0,0.0,0.0,0.0,0.0,0.0,0.0,0.0,0.0,0.0,0.0,0.0,0.0,0.0,0.0,0.0,0.0,0.0,0.0,0.0,0.0,0.0,0.0,0.0,0.0,0.0,0.0,0.0,0.0,0.0,0.0,0.0,0.0,0.0,0.0,0.0,0.0,0.0,0.0,0.0,0.0,0.0,0.0,0.0,0.0,0.0,0.0,0.0,0.0,0.0,0.0,0.0,0.0,0.0,0.0,0.0,0.0,0.0,0.0,0.0,0.0,-6.7304,-6.7263,-6.7063,-6.7063,-6.7063,-6.7063,-6.7063,-6.7105,-6.7304,0.0,0.0,0.0,0.0,0.0,0.0,0.0,0.0,0.0,0.0,0.0,0.0,0.0,0.0,0.0,0.0,0.0,0.0,0.0,0.0,0.0,0.0,0.0,0.0,0.0,0.0,0.0,0.0,0.0,0.0,0.0,0.0,0.0,0.0,0.0,0.0,0.0,0.0,0.0,0.0,0.0,0.0,0.0,0.0,0.0,0.0,0.0,0.0,0.0,0.0,0.0,0.0,0.0,0.0,0.0,0.0,0.0,0.0,0.0,0.0,0.0,0.0,0.0,0.0,0.0,0.0,0.0,0.0,0.0,0.0,0.0,0.0,0.0,0.0,0.0,0.0,0.0,0.0,0.0,0.0,0.0,0.0,0.0,0.0,0.0,0.0,0.0,0.0,0.0,0.0,0.0,0.0,0.0,0.0,0.0,0.0,0.0,0.0,0.0,0.0,0.0,0.0,-6.7097,-6.7056,-6.7014,-6.6812,-6.6812,-6.6812,-6.6812,-6.6812,-6.6854,-6.7056,0.0,0.0,0.0,0.0,0.0,0.0,0.0,0.0,0.0,0.0,0.0,0.0,0.0,0.0,0.0,0.0,0.0,0.0,0.0,0.0,0.0,0.0,0.0,0.0,0.0,0.0,0.0,0.0,0.0,0.0,0.0,0.0,0.0,0.0,0.0,0.0,0.0,0.0,0.0,0.0,0.0,0.0,0.0,0.0,0.0,0.0,0.0,0.0,0.0,0.0,0.0,0.0,0.0,0.0,0.0,0.0,0.0,0.0,0.0,0.0,0.0,0.0,0.0,0.0,0.0,0.0,0.0,0.0,0.0,0.0,0.0,0.0,0.0,0.0,0.0,0.0,0.0,0.0,0.0,0.0,0.0,0.0,0.0,0.0,0.0,0.0,0.0,0.0,0.0,0.0,0.0,0.0,0.0,0.0,0.0,0.0,0.0,0.0,0.0,0.0,0.0,0.0,-6.6812,-6.6812,-6.6812,-6.6812,-6.6812,-6.6812,-6.6812,-6.6812,-6.6812,0.0,0.0,0.0,0.0,0.0,0.0,0.0,0.0,0.0,0.0,0.0,0.0,0.0,0.0,0.0,0.0,0.0,0.0,0.0,0.0,0.0,0.0,0.0,0.0,0.0,0.0,0.0,0.0,0.0,0.0,0.0,0.0,0.0,0.0,0.0,0.0,0.0,0.0,0.0,0.0,0.0,0.0,0.0,0.0,0.0,0.0,0.0,0.0,0.0,0.0,0.0,0.0,0.0,0.0,0.0,0.0,0.0,0.0,0.0,0.0,0.0,0.0,0.0,0.0,0.0,0.0,0.0,0.0,0.0,0.0,0.0,0.0,0.0,0.0,0.0,0.0,0.0,0.0,0.0,0.0,0.0,0.0,0.0,0.0,0.0,0.0,0.0,0.0,0.0,0.0,0.0,0.0,0.0,0.0,0.0,0.0,0.0,0.0,0.0,0.0,0.0,0.0,0.0,-6.6812,-6.6812,-6.6812,-6.6812,-6.6812,-6.6812,-6.6812,-6.6812,-6.6812,-6.6812,0.0,0.0,0.0,0.0,0.0,0.0,0.0,0.0,0.0,0.0,0.0,0.0,0.0,0.0,0.0,0.0,0.0,0.0,0.0,0.0,0.0,0.0,0.0,0.0,0.0,0.0,0.0,0.0,0.0,0.0,0.0,0.0,0.0,0.0,0.0,0.0,0.0,0.0,0.0,0.0,0.0,0.0,0.0,0.0,0.0,0.0,0.0,0.0,0.0,0.0,0.0,0.0,0.0,0.0,0.0,0.0,0.0,0.0,0.0,0.0,0.0,0.0,0.0,0.0,0.0,0.0,0.0,0.0,0.0,0.0,0.0,0.0,0.0,0.0,0.0,0.0,0.0,0.0,0.0,0.0,0.0,0.0,0.0,0.0,0.0,0.0,0.0,0.0,0.0,0.0,0.0,0.0,0.0,0.0,0.0,0.0,0.0,0.0,0.0,0.0,0.0,0.0,-6.6812,-6.6812,-6.6812,-6.6812,-6.6542,-6.6373,-6.6373,-6.6102,-6.5933,-6.5933,0.0,0.0,0.0,0.0,0.0,0.0,0.0,0.0,0.0,0.0,0.0,0.0,0.0,0.0,0.0,0.0,0.0,0.0,0.0,0.0,0.0,0.0,0.0,0.0,0.0,0.0,0.0,0.0,0.0,0.0,0.0,0.0,0.0,0.0,0.0,0.0,0.0,0.0,0.0,0.0,0.0,0.0,0.0,0.0,0.0,0.0,0.0,0.0,0.0,0.0,0.0,0.0,0.0,0.0,0.0,0.0,0.0,0.0,0.0,0.0,0.0,0.0,0.0,0.0,0.0,0.0,0.0,0.0,0.0,0.0,0.0,0.0,0.0,0.0,0.0,0.0,0.0,0.0,0.0,0.0,0.0,0.0,0.0,0.0,0.0,0.0,0.0,0.0,0.0,0.0,0.0,0.0,0.0,0.0,0.0,0.0,0.0,0.0,0.0,0.0,0.0,0.0,-6.6711,-6.6559,-6.6525,-6.6609,-6.6,-6.5595,-6.5595,-6.4986,-6.4613,-6.4613,0.0,0.0,0.0,0.0,0.0,0.0,0.0,0.0,0.0,0.0,0.0,0.0,0.0,0.0,0.0,0.0,0.0,0.0,0.0,0.0,0.0,0.0,0.0,0.0,0.0,0.0,0.0,0.0,0.0,0.0,0.0,0.0,0.0,0.0,0.0,0.0,0.0,0.0,0.0,0.0,0.0,0.0,0.0,0.0,0.0,0.0,0.0,0.0,0.0,0.0,0.0,0.0,0.0,0.0,0.0,0.0,0.0,0.0,0.0,0.0,-6.7312,-6.7428,0.0,0.0,0.0,0.0,0.0,0.0,0.0,0.0,0.0,0.0,0.0,0.0,0.0,0.0,0.0,0.0,0.0,0.0,0.0,0.0,0.0,0.0,0.0,0.0,0.0,0.0,0.0,0.0,0.0,0.0,0.0,0.0,0.0,0.0,0.0,0.0,0.0,0.0,0.0,0.0,-6.585,-6.4774,-6.427,-6.4971,-6.4918,-6.4816,-6.4816,-6.4681,-6.4613,-6.4613,-6.4613,0.0,0.0,0.0,0.0,0.0,0.0,0.0,0.0,0.0,0.0,0.0,0.0,0.0,0.0,0.0,0.0,0.0,0.0,0.0,0.0,0.0,0.0,0.0,0.0,0.0,0.0,0.0,0.0,0.0,0.0,0.0,0.0,0.0,0.0,0.0,0.0,0.0,0.0,0.0,0.0,0.0,0.0,0.0,0.0,0.0,0.0,0.0,0.0,0.0,0.0,0.0,0.0,0.0,0.0,0.0,0.0,0.0,0.0,0.0,-6.7063,-6.7105,0.0,0.0,0.0,0.0,0.0,0.0,0.0,0.0,0.0,0.0,0.0,0.0,0.0,0.0,0.0,0.0,0.0,0.0,0.0,0.0,0.0,0.0,0.0,0.0,0.0,0.0,0.0,0.0,0.0,0.0,0.0,0.0,0.0,0.0,0.0,0.0,0.0,0.0,0.0,0.0,-6.379,-6.3067,-6.2706,-6.3216,-6.2927,-6.2728,-6.2728,-6.2396,-6.2197,-6.2197,-6.2197,0.0,0.0,0.0,0.0,0.0,0.0,0.0,0.0,0.0,0.0,0.0,0.0,0.0,0.0,0.0,0.0,0.0,0.0,0.0,0.0,0.0,0.0,0.0,0.0,0.0,0.0,0.0,0.0,0.0,0.0,0.0,0.0,0.0,0.0,0.0,0.0,0.0,0.0,0.0,0.0,0.0,0.0,0.0,0.0,0.0,0.0,0.0,0.0,0.0,0.0,0.0,0.0,0.0,-6.6812,-6.6812,-6.6812,-6.6812,-6.6812,-6.6812,-6.6812,-6.6812,-6.6812,-6.6812,0.0,0.0,0.0,0.0,0.0,0.0,0.0,0.0,0.0,0.0,0.0,0.0,0.0,0.0,0.0,0.0,0.0,0.0,0.0,0.0,0.0,0.0,-6.6449,-6.6186,-6.5436,-6.5094,-6.577,0.0,0.0,0.0,0.0,0.0,0.0,0.0,0.0,0.0,0.0,0.0,-6.171,-6.1342,-6.1278,-6.1381,-6.0862,-6.0506,-6.0506,-5.9943,-5.9587,-5.9587,-5.9543,-5.9543,0.0,0.0,0.0,0.0,0.0,0.0,0.0,0.0,0.0,0.0,0.0,0.0,0.0,0.0,0.0,0.0,0.0,0.0,0.0,0.0,0.0,0.0,0.0,0.0,0.0,0.0,0.0,0.0,0.0,0.0,0.0,0.0,-6.6812,-6.6812,0.0,0.0,0.0,0.0,0.0,0.0,0.0,0.0,0.0,0.0,0.0,0.0,0.0,-6.6812,-6.6812,-6.6812,-6.6812,-6.6812,-6.6812,-6.6812,-6.6812,-6.6812,-6.6812,-6.6812,-6.6812,0.0,-6.6812,-6.6812,0.0,0.0,0.0,0.0,0.0,0.0,0.0,0.0,0.0,0.0,0.0,0.0,0.0,0.0,0.0,0.0,0.0,0.0,0.0,0.0,0.0,0.0,-6.516,-6.3649,-6.3245,-6.3004,-6.2566,-6.3584,-6.4277,-6.3518,-6.3518,-6.3395,0.0,0.0,0.0,0.0,0.0,0.0,-6.0785,-5.9594,-5.9015,-5.979,-5.9781,-5.9749,-5.9749,-5.9652,-5.9587,-5.9587,-5.9411,-5.9367,-5.9587,-5.9367,0.0,0.0,0.0,0.0,0.0,0.0,0.0,0.0,0.0,0.0,0.0,0.0,0.0,0.0,0.0,0.0,0.0,0.0,0.0,0.0,0.0,0.0,0.0,0.0,0.0,0.0,0.0,0.0,0.0,-6.6812,-6.6812,-6.6812,-6.6812,-6.6812,0.0,0.0,0.0,0.0,0.0,0.0,0.0,0.0,0.0,-6.6812,-6.6812,-6.6812,-6.6812,-6.6812,-6.6812,-6.6812,-6.6812,-6.6812,-6.6812,-6.6812,-6.6812,-6.6812,-6.6812,-6.6812,-6.6812,-6.6812,-6.6812,-6.6812,0.0,0.0,0.0,0.0,-6.6812,-6.6812,-6.6812,-6.6812,-6.6812,-6.6812,0.0,0.0,0.0,0.0,0.0,0.0,0.0,-6.4332,-6.3547,-6.3314,-6.3158,-6.2425,-6.1809,-6.1293,-6.1006,-6.1202,-6.1555,-6.2159,-6.2326,-6.2308,-6.186,-6.1458,0.0,0.0,0.0,-5.8389,-5.8075,-5.743,-5.7132,-5.7527,-5.7574,-5.7574,-5.7574,-5.7574,-5.7574,-5.7574,-5.748,-5.7449,-5.7574,-5.7449,-5.773,0.0,0.0,0.0,0.0,0.0,0.0,0.0,0.0,0.0,0.0,0.0,0.0,0.0,0.0,0.0,0.0,0.0,0.0,0.0,0.0,0.0,0.0,0.0,0.0,0.0,0.0,0.0,0.0,-6.6812,-6.6812,-6.6812,-6.6812,-6.6728,0.0,0.0,0.0,0.0,0.0,0.0,-6.6812,-6.6812,-6.6812,-6.6812,-6.6812,-6.6812,-6.6812,-6.6525,-6.644,-6.6397,-6.6148,-6.6019,-6.6019,-6.6019,-6.6019,-6.6019,-6.6019,-6.6019,-6.6062,-6.6567,-6.6812,-6.6812,-6.6812,-6.6812,-6.6812,-6.6812,-6.6643,-6.644,-6.644,-6.6235,-6.6019,-6.6019,-6.5415,-6.4605,-6.4362,0.0,0.0,0.0,0.0,-6.2156,-6.1409,-6.1188,-6.111,-6.0686,-6.0028,-5.9422,-5.9234,-5.8748,-5.8829,-6.048,-6.0803,-6.0688,-6.049,-5.9905,0.0,-5.8277,-5.7697,-5.7005,-5.6127,-5.5979,-5.5979,-5.5979,-5.5979,-5.5979,-5.5979,-5.5979,-5.5979,-5.5979,-5.5929,-5.5929,-5.5979,-5.5929,-5.6293,-5.7022,0.0,0.0,0.0,0.0,0.0,0.0,0.0,0.0,0.0,0.0,0.0,0.0,0.0,0.0,0.0,0.0,0.0,0.0,0.0,0.0,0.0,0.0,0.0,0.0,0.0,0.0,0.0,0.0,0.0,-6.6812,-6.6812,0.0,0.0,0.0,0.0,-6.5426,-6.6235,-6.6812,-6.6812,-6.6812,-6.6812,-6.6812,-6.6812,-6.6812,-6.6812,-6.5855,-6.5382,-6.5337,-6.4401,-6.3984,-6.3984,-6.3984,-6.3984,-6.3984,-6.3984,-6.3984,-6.4124,-6.6019,-6.6812,-6.6812,-6.6812,-6.6812,-6.6812,-6.6812,-6.6192,-6.5382,-6.5382,-6.472,-6.3984,-6.3984,-6.3483,-6.2742,-6.1846,-6.1561,0.0,0.0,-6.111,-6.0878,-5.9866,-5.9624,-5.9225,-5.7634,-5.7212,-5.6979,-5.634,-5.6188,-5.6518,-5.7783,-5.7995,-5.7715,-5.6823,0.0,-5.6206,-5.6157,-5.6127,-5.6077,-5.6028,-5.5979,-5.5979,-5.5979,-5.5979,-5.5979,-5.5979,-5.5979,-5.5979,-5.5979,-5.578,-5.5731,-5.5979,-5.5731,-5.578,-5.6077,-5.6077,0.0,0.0,0.0,0.0,0.0,0.0,0.0,0.0,0.0,0.0,0.0,0.0,0.0,0.0,0.0,0.0,0.0,0.0,0.0,0.0,0.0,0.0,0.0,0.0,0.0,0.0,0.0,0.0,-6.6812,-6.6812,0.0,-6.5382,-6.5636,-6.5426,-6.4401,-6.4675,-6.4856,-6.4856,-6.4856,-6.4856,-6.4856,-6.4856,-6.4856,-6.4856,-6.4492,-6.4355,-6.4355,-6.3984,-6.3797,-6.3797,-6.3797,-6.3797,-6.3797,-6.3797,-6.3797,-6.3891,-6.4584,-6.4856,-6.4856,-6.4856,-6.4856,-6.4856,-6.4856,-6.4629,-6.4289,-6.3832,-6.3473,-6.2959,-6.171,-6.1106,-6.0741,-5.9572,-5.9216,-5.9073,-5.859,-5.8466,-5.8244,-5.7482,-5.7242,-5.7082,-5.6473,-5.6343,-5.6302,-5.6039,-5.5979,-5.6138,-5.6579,-5.6641,-5.6506,-5.6225,-5.6077,-5.5929,-5.578,-5.5731,-5.553,-5.4909,-5.4849,-5.4669,-5.4217,-5.4187,-5.4187,-5.4187,-5.4187,-5.4187,-5.4187,-5.4089,-5.4299,-5.4819,-5.475,-5.496,-5.5481,-5.5481,-5.5481,0.0,0.0,0.0,0.0,0.0,0.0,0.0,0.0,0.0,0.0,0.0,0.0,0.0,0.0,0.0,0.0,0.0,0.0,0.0,0.0,0.0,0.0,0.0,0.0,0.0,-6.6525,-6.6278,-6.6278,-6.6019,-6.5382,-6.4355,-6.4584,-6.4355,-6.3371,-6.3609,-6.3797,-6.3797,-6.3797,-6.3797,-6.3797,-6.3797,-6.3797,-6.3797,-6.3466,-6.3276,-6.3276,-6.294,-6.2794,-6.2794,-6.2794,-6.2794,-6.2794,-6.2794,-6.2667,-6.2444,-6.2444,-6.2316,-6.2253,-6.3368,-6.3635,-6.3441,-6.3441,-6.3092,-6.2505,-6.1726,-6.1456,-6.1186,-5.9579,-5.9051,-5.8794,-5.7597,-5.7183,-5.7092,-5.6567,-5.6395,-5.6275,-5.5851,-5.5731,-5.5731,-5.5731,-5.5549,-5.5398,-5.5398,-5.5217,-5.5035,-5.5035,-5.5296,-5.5546,-5.5546,-5.5266,-5.4986,-5.4819,-5.4819,-5.454,-5.3972,-5.3862,-5.3683,-5.3234,-5.3174,-5.3174,-5.3174,-5.3174,-5.3174,-5.3174,-5.3174,-5.3384,-5.3832,-5.3862,-5.4072,-5.4521,-5.4521,-5.4521,-5.4521,0.0,0.0,0.0,0.0,0.0,0.0,0.0,0.0,0.0,0.0,0.0,0.0,0.0,0.0,0.0,0.0,0.0,0.0,0.0,0.0,0.0,0.0,0.0,-6.644,-6.5855,-6.5248,-6.5248,-6.4401,-6.3419,-6.2418,-6.318,-6.3324,-6.2319,-6.3132,-6.3703,-6.3703,-6.3703,-6.3703,-6.3703,-6.3703,-6.3703,-6.3703,-6.2729,-6.227,-6.2221,-6.1277,-6.0794,-6.0794,-6.0763,-6.0763,-6.0763,-6.0763,-6.0363,-5.9747,-5.9747,-5.9378,-5.9085,-6.2365,-6.3264,-6.2682,-6.2682,-6.1658,-6.009,-5.9129,-5.8731,-5.8558,-5.7664,-5.735,-5.7129,-5.5912,-5.5581,-5.5531,-5.528,-5.5179,-5.5179,-5.5149,-5.5149,-5.5149,-5.5119,-5.464,-5.4192,-5.4192,-5.3653,-5.3174,-5.3174,-5.3909,-5.4526,-5.4556,-5.3819,-5.3174,-5.3174,-5.3174,0.0,-5.3144,-5.3144,-5.3144,-5.3114,-5.3114,-5.3114,-5.3114,-5.3114,-5.3114,-5.3114,-5.3114,-5.3144,-5.3144,-5.3144,-5.3144,-5.3174,-5.3174,-5.3174,-5.3174,0.0,0.0,0.0,0.0,0.0,0.0,0.0,0.0,0.0,0.0,0.0,0.0,0.0,0.0,0.0,0.0,0.0,0.0,0.0,0.0,0.0,-6.3984,-6.3984,-6.4538,-6.4401,-6.4216,-6.4216,-6.3984,-6.3419,-6.2418,-6.2534,-6.2319,-6.1277,-6.145,-6.1652,-6.1652,-6.1652,-6.1652,-6.1652,-6.1652,-6.1652,-6.1652,-6.1379,-6.1226,-6.1226,-6.0949,-6.0794,-6.0794,-6.0301,-6.0055,-6.0055,-5.9562,-5.9224,-5.907,-5.8868,-5.8695,-5.8623,-5.9731,-6.0058,-5.9902,-5.9902,-5.9318,-5.8466,-5.8202,-5.7617,-5.699,-5.6511,-5.6252,-5.6022,-5.5491,-5.528,-5.528,-5.5229,-5.5179,-5.5089,-5.461,-5.4491,-5.4341,-5.3862,-5.3593,-5.3473,-5.3473,-5.3324,-5.3174,-5.3174,-5.3013,-5.3002,-5.353,-5.3343,-5.3174,-5.3174,-5.3174,-5.2995,-5.2546,-5.2456,-5.2276,-5.1798,-5.1768,-5.1768,-5.1768,-5.1768,-5.1768,-5.1768,-5.1768,-5.1977,-5.2456,-5.2456,-5.2695,-5.3174,-5.3174,-5.3174,0.0,0.0,0.0,0.0,0.0,0.0,0.0,0.0,0.0,0.0,0.0,0.0,0.0,0.0,0.0,0.0,0.0,0.0,0.0,0.0,0.0,0.0,-6.2649,-6.2404,-6.2534,-6.2891,-6.318,-6.318,-6.2826,-6.2288,-6.1753,-6.1652,-6.143,-6.0845,-6.0794,-6.0794,-6.0794,-6.0794,-6.0794,-6.0794,-6.0794,-6.0794,-6.0794,-6.0794,-6.0794,-6.0794,-6.0413,-6.026,-6.0363,-5.9584,-5.9276,-5.9347,-5.8846,-5.8508,-5.8362,-5.7962,-5.7678,-5.7645,0.0,0.0,0.0,0.0,-5.7389,-5.7052,-5.7052,-5.6708,-5.6176,-5.5929,-5.5731,-5.5531,-5.528,-5.4999,-5.479,-5.479,-5.4581,-5.4251,-5.3862,-5.3773,-5.3683,-5.3264,-5.2965,-5.2755,-5.2755,-5.2546,-5.2366,-5.2366,-5.2067,0.0,-5.2306,-5.2366,-5.2366,-5.2366,-5.2366,-5.2217,-5.1828,-5.1798,-5.1648,-5.1259,-5.1229,-5.1229,-5.1229,-5.1229,0.0,0.0,0.0,-5.1379,-5.1768,-5.1798,0.0,0.0,0.0,-5.2366,-5.2366,-5.2366,0.0,0.0,-5.2935,-5.3174,0.0,0.0,0.0,0.0,0.0,0.0,0.0,0.0,0.0,0.0,0.0,0.0,0.0,0.0,0.0,0.0,-6.0939,-6.0429,-6.069,-6.145,-6.2072,-6.2121,-6.1328,-6.0794,-6.0794,-6.0794,-6.0794,-6.0794,-6.0794,-6.0794,-6.0794,-6.0794,0.0,0.0,0.0,-6.0794,-6.0794,-6.0732,-6.0701,-6.0671,-5.9788,-5.9481,-5.9655,-5.8725,-5.8419,-5.862,-5.8277,-5.7909,-5.7556,-5.7059,-5.6594,-5.6396,-5.7385,-5.7426,-5.6848,-5.6191,-5.5979,-5.5979,-5.5979,0.0,0.0,-5.5681,-5.5521,-5.541,-5.519,-5.461,-5.4102,-5.4102,-5.3653,-5.3174,-5.3084,-5.3084,-5.3054,-5.2965,-5.2516,-5.2097,-5.2097,-5.1618,-5.1229,-5.1229,-5.1229,-5.1229,-5.1229,-5.1229,-5.1229,-5.1229,-5.1229,-5.1229,-5.1229,-5.1229,-5.1229,-5.1229,-5.1229,0.0,-5.1229,-5.1229,-5.1229,-5.1229,-5.1229,-5.1229,-5.1229,-5.1229,-5.1229,-5.1229,-5.1229,-5.1229,-5.1229,-5.1229,-5.1229,-5.1259,-5.2426,-5.2965,0.0,0.0,0.0,0.0,0.0,0.0,0.0,0.0,0.0,0.0,0.0,0.0,0.0,0.0,0.0,-6.0481,-6.0197,-6.0092,-6.0144,-6.0355,-6.0586,-6.1052,-6.0897,-6.0794,-6.0794,-6.0794,-6.0794,-6.0794,-6.0794,-6.0794,-6.0794,-6.0794,-6.0794,-6.0794,-6.0794,-6.0794,-6.0794,-6.024,-5.9993,-5.9963,-5.9235,0.0,-5.8947,-5.802,-5.7614,-5.7634,-5.6785,-5.6431,-5.6309,-5.6012,-5.5702,-5.5511,-5.6152,-5.6282,-5.621,-5.6039,-5.5979,-5.5979,-5.5979,-5.588,-5.5681,-5.5631,-5.507,-5.4451,-5.4401,-5.3922,0.0,-5.3384,-5.3294,-5.3054,-5.2516,-5.2396,-5.2247,-5.1738,-5.1498,-5.1409,-5.1409,-5.1319,-5.1229,-5.1229,-5.1229,-5.1229,-5.1229,-5.1229,-5.1229,-5.1229,-5.1229,-5.1229,-5.1229,-5.1229,-5.1229,-5.1229,-5.1229,-5.1229,-5.1229,-5.1229,-5.1229,-5.1229,-5.1229,-5.1229,-5.1229,-5.1229,-5.1229,-5.1229,-5.1229,-5.1229,-5.1229,-5.1229,-5.1229,-5.1229,-5.1468,-5.1588,0.0,0.0,0.0,0.0,0.0,0.0,0.0,0.0,0.0,0.0,0.0,-6.1235,-6.0598,0.0,-6.0158,-5.9796,-5.9773,-5.9827,-6.0016,-6.0016,-6.0144,-6.0534,-6.0586,-6.0586,-6.0586,-6.0586,-6.0586,-6.0586,-6.0586,-6.0638,-6.0794,-6.0794,-6.0794,-6.0794,-6.0794,-6.0794,-6.0794,-6.0455,-6.0116,-5.9778,-5.9,-5.8508,-5.8239,-5.7315,-5.696,-5.7058,-5.6328,-5.6077,-5.6176,-5.578,-5.5431,-5.5229,-5.5481,-5.5581,-5.5581,-5.5581,-5.5581,-5.5581,-5.5581,-5.527,-5.49,-5.49,-5.4351,-5.3683,-5.3683,-5.3234,-5.2695,-5.2695,-5.2456,-5.2127,-5.1798,-5.1708,-5.1618,-5.1289,-5.1229,-5.1229,-5.1229,-5.1229,-5.1229,-5.1229,-5.1229,-5.1229,-5.1229,-5.1229,-5.1229,-5.1229,-5.1229,-5.1229,-5.1229,-5.1229,-5.1229,-5.1229,-5.1229,-5.1229,-5.1229,-5.1229,-5.1229,-5.1229,-5.1229,-5.1229,-5.1229,-5.1229,-5.1229,-5.1229,-5.1229,-5.1229,-5.1229,-5.1229,-5.1229,-5.1229,-5.1229,-5.1229,0.0,0.0,0.0,0.0,0.0,0.0,0.0,-6.0638,-6.0429,-6.0324,-5.9955,-5.9583,-5.9422,-5.9261,-5.9153,-5.9369,-5.9422,-5.9529,-5.9773,-5.9827,-5.9933,-6.0167,-6.0272,-6.0324,-6.0377,-6.0377,-6.0429,-6.0481,-6.0481,-6.0586,-6.0794,-6.0794,-6.0794,-6.0794,-6.0742,-6.069,-6.069,-6.0619,-6.0219,-5.9542,-5.8715,-5.804,-5.7562,-5.6764,-5.6519,-5.6713,-5.6176,-5.6028,-5.6127,-5.5681,-5.5381,-5.5179,-5.5179,-5.5179,-5.5179,-5.5179,-5.5179,-5.5179,-5.5029,-5.464,-5.4192,-5.4042,-5.3533,-5.2995,-5.2995,-5.2546,-5.2007,-5.2007,-5.1618,-5.1229,-5.1229,-5.1229,-5.1229,-5.1229,-5.1229,-5.1229,-5.1229,-5.1229,-5.1229,-5.1229,-5.1229,-5.1229,-5.1229,-5.1229,-5.1229,-5.1229,-5.1229,-5.1229,-5.1229,-5.1229,-5.1229,-5.1229,-5.1229,-5.1229,-5.1229,-5.1229,-5.1229,-5.1229,-5.1229,-5.1229,-5.1229,-5.1229,-5.1229,-5.1229,-5.1229,-5.1229,-5.1229,-5.1229,-5.1229,-5.1229,-5.1229,-5.1229,-6.6812,-6.5382,-6.3703,-6.2583,-6.1652,-6.0949,0.0,-6.0794,-6.0586,-6.0144,-5.9986,-5.9773,-5.9261,-5.9099,-5.9099,-5.9153,-5.9153,-5.9153,-5.9207,-5.9207,-5.9315,-5.9583,-5.988,-6.0144,-6.0377,-6.0377,-6.0481,-6.0742,-6.0742,-6.0742,-6.0794,-6.0794,-6.0794,-6.0794,-6.0586,-6.0429,-6.0429,-5.9848,-5.9205,-5.8532,-5.8109,-5.7531,-5.6933,-5.6549,-5.6421,-5.6421,-5.588,-5.5531,-5.533,-5.528,-5.5229,-5.5179,-5.5179,-5.5179,-5.5179,-5.5179,-5.5179,-5.5089,-5.4521,-5.4281,-5.4102,-5.3503,-5.2845,-5.2306,-5.2306,-5.1858,-5.1319,-5.1319,-5.1289,-5.1229,-5.1229,-5.1229,-5.1229,-5.1229,-5.1229,-5.1229,-5.1229,-5.1229,-5.1229,-5.1229,-5.1229,-5.1229,-5.1229,-5.1229,-5.1229,-5.1229,-5.1229,-5.1229,-5.1229,-5.1229,-5.1229,-5.1229,-5.1229,-5.1229,-5.1229,-5.1229,-5.1229,-5.1229,-5.1229,-5.1229,-5.1229,-5.1229,-5.1229,-5.1229,-5.1229,-5.1229,-5.1229,-5.1229,-5.1229,-5.1229,-5.1229,-5.1229,-6.5382,-6.4447,-6.3419,-6.1822,-6.1124,-6.0794,-6.0794,-6.069,-6.0429,-6.0039,-5.9827,-5.9583,-5.9153,-5.9099,-5.9099,-5.9099,-5.9099,-5.9099,-5.9099,-5.9099,-5.9153,-5.9261,-5.9369,-5.9583,-5.9849,-5.9902,-5.9902,-6.0061,-6.0219,-6.0407,-6.0534,-6.069,-6.0794,-6.0794,-6.069,-6.0638,-6.0638,-6.0362,-5.987,-5.9195,-5.8469,-5.7794,-5.715,-5.6457,-5.6077,-5.5929,-5.5681,-5.5431,-5.5179,-5.5179,-5.5179,-5.5179,-5.5179,-5.5179,-5.5179,-5.5179,-5.5179,-5.5089,-5.4431,-5.3952,-5.3503,-5.2845,-5.2157,-5.1618,-5.1618,-5.1439,-5.1229,-5.1229,-5.1229,-5.1229,-5.1229,-5.1229,-5.1229,-5.1229,-5.1229,-5.1229,-5.1229,-5.1229,-5.1229,-5.1229,-5.1229,-5.1229,-5.1229,-5.1229,-5.1229,-5.1229,-5.1229,-5.1229,-5.1229,-5.1229,-5.1229,-5.1229,-5.1229,-5.1229,-5.1229,-5.1229,-5.1229,-5.1229,-5.1229,-5.1229,-5.1229,-5.1229,-5.1229,-5.1229,-5.1229,-5.1229,-5.1229,-5.1229,-5.1229,-5.1229,-5.1229,-5.1229,-6.4675,-6.4031,-6.3371,-6.1652,-6.1,-6.0794,-6.0794,-6.0638,-6.0377,-6.0039,-5.9827,-5.9529,-5.9153,-5.9099,-5.9099,-5.9099,-5.9099,-5.9099,-5.9099,-5.9099,-5.9099,-5.9099,-5.9099,-5.9153,-5.9369,-5.9476,-5.9529,-5.9636,-5.988,-6.0092,-6.0302,-6.0534,-6.069,-6.069,-6.069,-6.069,-6.069,-6.069,-6.0352,-5.9676,-5.8899,-5.8123,-5.735,-5.6431,-5.588,-5.5681,-5.5631,-5.5431,-5.5179,-5.5179,-5.5179,-5.5179,-5.5179,-5.5179,-5.5179,-5.5179,-5.5179,-5.5089,-5.4431,-5.3743,-5.3084,-5.2426,-5.1768,-5.1229,-5.1229,-5.1229,-5.1229,-5.1229,-5.1229,-5.1229,-5.1229,-5.1229,-5.1229,-5.1229,-5.1229,-5.1229,-5.1229,-5.1229,-5.1229,-5.1229,-5.1229,-5.1229,-5.1229,-5.1229,-5.1229,-5.1229,-5.1229,-5.1229,-5.1229,-5.1229,-5.1229,-5.1229,-5.1229,-5.1229,-5.1229,-5.1229,-5.1229,-5.1229,-5.1229,-5.1229,-5.1229,-5.1229,-5.1229,-5.1229,-5.1229,-5.1229,-5.1229,-5.1229,-5.1229,-5.1229,-5.1229,-5.1229,-6.5548,-6.4538,-6.3561,-6.2485,-6.15,-6.0794,-6.0794,-6.0794,-6.0638,-6.0092,-6.0016,-5.9773,-5.9207,-5.9099,-5.9099,-5.9099,-5.9099,-5.9099,-5.9099,-5.9099,-5.9099,-5.9099,-5.9099,-5.9099,-5.9099,-5.9369,-5.9636,-5.9963,-6.0016,-6.0016,-6.0016,-6.0302,-6.0429,-6.0429,-6.0429,-6.0429,-6.0429,-6.0429,-6.0093,-5.942,-5.9,-5.8324,-5.735,-5.6431,-5.5979,-5.5979,-5.5731,-5.5431,-5.5179,-5.5179,-5.5179,-5.5179,-5.5179,-5.5179,-5.5179,-5.5179,-5.5179,-5.5089,-5.4431,-5.3743,-5.3084,-5.2426,-5.1768,-5.1229,-5.1229,-5.1229,-5.1229,-5.1229,-5.1229,-5.1229,-5.1229,-5.1229,-5.1229,-5.1229,-5.1229,-5.1229,-5.1229,-5.1229,-5.1229,-5.1229,-5.1229,-5.1229,-5.1229,-5.1229,-5.1229,-5.1229,-5.1229,-5.1229,-5.1229,-5.1229,-5.1229,-5.1229,-5.1229,-5.1229,-5.1229,-5.1229,-5.1229,-5.1229,-5.1229,-5.1229,-5.1229,-5.1229,-5.1229,-5.1229,-5.1229,-5.1229,-5.1229,-5.1229,-5.1229,-5.1229,-5.1229,-5.1229,-6.4816,-6.4178,-6.3561,-6.2534,-6.1551,-6.0794,-6.0794,-6.0794,-6.069,-6.0324,-6.0144,-5.988,-5.9422,-5.9207,-5.9099,-5.9099,-5.9099,-5.9099,-5.9099,-5.9099,-5.9099,-5.9099,-5.9099,-5.9099,-5.9099,-5.9153,-5.9261,-5.9369,-5.956,-5.9636,-5.9636,-5.9986,-6.0144,-6.0144,-6.0144,-6.025,-6.0377,-6.0377,-6.0359,-6.03,-5.9113,-5.7778,-5.6462,-5.6119,-5.588,-5.5731,-5.5631,-5.5431,-5.5179,-5.5179,-5.5179,-5.5179,-5.5179,-5.5179,-5.5179,-5.5179,-5.5179,-5.5089,-5.4431,-5.4072,-5.3743,-5.3084,-5.2396,-5.1858,-5.1858,-5.1558,-5.1229,-5.1229,-5.1229,-5.1229,-5.1229,-5.1229,-5.1229,-5.1229,-5.1229,-5.1229,-5.1229,-5.1229,-5.1229,-5.1229,-5.1229,-5.1229,-5.1229,-5.1229,-5.1229,-5.1229,-5.1229,-5.1229,-5.1229,-5.1229,-5.1229,-5.1229,-5.1229,-5.1229,-5.1229,-5.1229,-5.1229,-5.1229,-5.1229,-5.1229,-5.1229,-5.1229,-5.1229,-5.1229,-5.1229,-5.1229,-5.1229,-5.1229,-5.1229,-5.1229,-5.1229,-5.1229,-6.5249,-6.4482,-6.3656,-6.302,-6.1772,-6.0794,-6.0794,-6.0794,-6.069,-6.0481,-6.025,-6.0039,-5.9773,-5.9422,-5.9261,-5.9261,-5.9153,-5.9099,-5.9099,-5.9099,-5.9099,-5.9099,-5.9099,-5.9099,-5.9099,-5.9099,-5.9099,-5.9099,-5.9261,-5.9369,-5.9369,-5.9667,-5.9827,-5.9827,-5.9933,-6.0144,-6.0377,-6.0377,-6.0411,-6.0424,-5.8961,-5.7678,-5.661,-5.6199,-5.5979,-5.588,-5.578,-5.5581,-5.533,-5.533,-5.528,-5.5179,-5.5179,-5.5179,-5.5179,-5.5179,-5.5179,-5.5119,-5.47,-5.4401,-5.4132,-5.3683,-5.3084,-5.2546,-5.2546,-5.2247,-5.1858,-5.1618,-5.1558,-5.1498,-5.1289,-5.1229,-5.1229,-5.1229,-5.1229,-5.1229,-5.1229,-5.1229,-5.1229,-5.1229,-5.1229,-5.1229,-5.1229,-5.1229,-5.1229,-5.1229,-5.1229,-5.1229,-5.1229,-5.1229,-5.1229,-5.1229,-5.1229,-5.1229,-5.1229,-5.1229,-5.1229,-5.1229,-5.1229,-5.1229,-5.1229,-5.1229,-5.1229,-5.1229,-5.1229,-5.1229,-5.1229,-5.1229,-5.1229,-5.1229,-5.1229,-5.1229,-6.639,-6.5227,-6.3732,-6.3718,-6.2238,-6.0794,-6.0794,-6.0794,-6.0742,-6.0481,-6.0429,-6.0324,-6.0069,-5.972,-5.9476,-5.9476,-5.9261,-5.9099,-5.9099,-5.9099,-5.9099,-5.9099,-5.9099,-5.9099,-5.9099,-5.9099,-5.9099,-5.9099,-5.9099,-5.9099,-5.9099,-5.9315,-5.9476,-5.9476,-5.9773,-6.0092,-6.0324,-6.0377,-6.0197,-5.9778,-5.8624,-5.7953,-5.7746,-5.661,-5.6206,-5.6372,-5.6127,-5.583,-5.5581,-5.5581,-5.5431,-5.5229,-5.5179,-5.5179,-5.5179,-5.5179,-5.5179,-5.5179,-5.5179,-5.479,-5.4251,-5.4251,-5.3803,-5.3234,-5.3234,-5.3204,-5.3054,-5.2426,-5.2247,-5.2097,-5.1468,-5.1289,-5.1259,-5.1259,-5.1229,-5.1229,-5.1229,-5.1229,-5.1229,-5.1229,-5.1229,-5.1229,-5.1229,-5.1229,-5.1229,-5.1229,-5.1229,-5.1229,-5.1229,-5.1229,-5.1229,-5.1229,-5.1229,-5.1229,-5.1229,-5.1229,-5.1229,-5.1229,-5.1229,-5.1229,-5.1229,-5.1229,-5.1229,-5.1229,-5.1229,-5.1229,-5.1229,-5.1229,-5.1229,-5.1229,-5.1229,-5.1229,-6.4051,-6.3538,-6.2916,-6.2747,-6.1753,-6.0794,-6.0794,-6.0794,-6.0794,-6.069,-6.0534,-6.0324,-6.0069,-5.972,-5.9422,-5.9207,-5.9153,-5.9099,-5.9099,-5.9099,-5.9099,-5.9099,-5.9099,-5.9099,-5.9099,-5.9099,-5.9099,-5.9099,-5.9099,-5.9099,-5.9099,-5.9153,-5.9207,-5.9207,-5.9261,-5.9422,-5.9743,-5.9986,-5.9914,-5.9471,-5.9215,-5.8613,-5.7777,-5.7494,-5.688,-5.6077,-5.6028,-5.583,-5.5581,-5.5381,-5.5381,-5.5481,-5.528,-5.5179,-5.5179,-5.5179,-5.5179,-5.5179,-5.5179,-5.5089,-5.494,-5.494,-5.4491,-5.3952,-5.3952,-5.3593,-5.3144,-5.2965,-5.2935,-5.2905,-5.2725,-5.2306,-5.1947,-5.1947,-5.1558,-5.1229,-5.1229,-5.1229,-5.1229,-5.1229,-5.1229,-5.1229,-5.1229,-5.1229,-5.1229,-5.1229,-5.1229,-5.1229,-5.1229,-5.1229,-5.1229,-5.1229,-5.1229,-5.1229,-5.1229,-5.1229,-5.1229,-5.1229,-5.1229,-5.1229,-5.1229,-5.1229,-5.1229,-5.1229,-5.1229,-5.1229,-5.1229,-5.1229,-5.1229,-5.1229,-5.1229,-5.1229,-6.4598,-6.3967,-6.3171,-6.2988,-6.1872,-6.0794,-6.0794,-6.0794,-6.0794,-6.0794,-6.069,-6.0481,-6.025,-5.9933,-5.9583,-5.9315,-5.9153,-5.9099,-5.9099,-5.9099,-5.9099,-5.9099,-5.9099,-5.9099,-5.9099,-5.9099,-5.9099,-5.9099,-5.9099,-5.9099,-5.9099,-5.9099,-5.9099,-5.9099,-5.9099,-5.9207,-5.9529,-5.9827,-5.9962,-5.9827,-5.9521,-5.9124,-5.8639,-5.7955,-5.7266,-5.6602,-5.6199,-5.583,-5.5581,-5.5431,-5.5381,-5.5381,-5.5229,-5.5179,-5.5179,-5.5179,-5.5179,-5.5179,-5.5179,-5.5179,-5.5179,-5.5179,-5.494,-5.464,-5.464,-5.4371,-5.4012,-5.3713,-5.3623,-5.3563,-5.3264,-5.2905,-5.2636,-5.2636,-5.2127,-5.1648,-5.1648,-5.1439,-5.1229,-5.1229,-5.1229,-5.1229,-5.1229,-5.1229,-5.1229,-5.1229,-5.1229,-5.1229,-5.1229,-5.1229,-5.1229,-5.1229,-5.1229,-5.1229,-5.1229,-5.1229,-5.1229,-5.1229,-5.1229,-5.1229,-5.1229,-5.1229,-5.1229,-5.1229,-5.1229,-5.1229,-5.1229,-5.1229,-5.1229,-5.1229,-5.1229,-5.1229,-6.6104,-6.516,-6.3808,-6.3623,-6.2288,-6.0949,-6.0845,-6.0794,-6.0794,-6.0794,-6.0794,-6.069,-6.0377,-6.0144,-5.988,-5.9529,-5.9261,-5.9099,-5.9099,-5.9099,-5.9099,-5.9099,-5.9099,-5.9099,-5.9099,-5.9099,-5.9099,-5.9099,-5.9099,-5.9099,-5.9099,-5.9099,-5.9099,-5.9099,-5.9099,-5.9207,-5.9422,-5.972,-6.0039,-6.0272,-5.9692,-5.9511,-5.9645,-5.8226,-5.7484,-5.7251,-5.6423,-5.5921,-5.5581,-5.5581,-5.5431,-5.5229,-5.5179,-5.5179,-5.5179,-5.5179,-5.5179,-5.5179,-5.5179,-5.5179,-5.5179,-5.5179,-5.5179,-5.5179,-5.5179,-5.5179,-5.5059,-5.4491,-5.4341,-5.4192,-5.3593,-5.3384,-5.3324,-5.3324,-5.2815,-5.2336,-5.2336,-5.1828,-5.1349,-5.1349,-5.1289,-5.1229,-5.1229,-5.1229,-5.1229,-5.1229,-5.1229,-5.1229,-5.1229,-5.1229,-5.1229,-5.1229,-5.1229,-5.1229,-5.1229,-5.1229,-5.1229,-5.1229,-5.1229,-5.1229,-5.1229,-5.1229,-5.1229,-5.1229,-5.1229,-5.1229,-5.1229,-5.1229,-5.1229,-5.1229,-5.1229,-5.1229,-6.4634,-6.4388,-6.3863,-6.2812,-6.2319,-6.1853,-6.1,-6.0794,-6.0794,-6.0794,-6.0794,-6.0638,-6.0144,-6.0039,-5.9827,-5.9261,-5.9153,-5.9099,-5.9099,-5.9099,-5.9099,0.0,-5.9099,-5.9099,-5.9099,-5.9099,-5.9099,-5.9099,-5.9099,-5.9099,-5.9099,-5.9099,-5.9099,-5.9099,-5.9099,-5.9099,-5.9153,-5.9207,-5.9369,-5.9636,-5.9516,-5.9312,-5.9058,-5.8763,-5.7961,-5.6728,-5.6556,-5.6144,-5.5581,-5.533,-5.5381,-5.5531,-5.528,-5.5179,-5.5179,-5.5179,-5.5179,-5.5179,-5.5179,-5.5179,-5.5179,-5.5179,-5.5179,-5.5179,-5.5179,-5.5179,-5.5179,-5.5059,-5.5029,-5.4999,-5.488,-5.4431,-5.4042,-5.4042,-5.3503,-5.3025,-5.3025,-5.2486,-5.2037,-5.2037,-5.1588,-5.1229,-5.1229,-5.1229,-5.1229,-5.1229,-5.1229,-5.1229,-5.1229,-5.1229,-5.1229,-5.1229,-5.1229,-5.1229,-5.1229,-5.1229,-5.1229,-5.1229,-5.1229,-5.1229,-5.1229,-5.1229,-5.1229,-5.1229,-5.1229,-5.1229,-5.1229,-5.1229,-5.1229,-5.1229,-5.1229,-5.1229,-6.5487,-6.518,-6.464,-6.4012,-6.3068,-6.2171,-6.1702,0.0,-6.0794,-6.0794,-6.0794,-6.0669,-6.0092,-6.0016,-5.9773,-5.9207,-5.9099,-5.9099,-5.9099,-5.9099,-5.9099,-5.9099,-5.9099,-5.9099,-5.9099,-5.9099,-5.9099,-5.9099,-5.9099,-5.9099,-5.9099,-5.9099,-5.9099,-5.9099,-5.9099,-5.9099,-5.9099,-5.9261,-5.9369,-5.9529,-5.969,-5.9645,-5.9448,-5.8979,-5.8338,-5.757,-5.6775,-5.6191,-5.5891,-5.5379,-5.528,-5.5381,-5.5229,-5.5179,-5.5179,-5.5179,-5.5179,-5.5179,-5.5179,-5.5179,-5.5179,-5.5179,-5.5179,-5.5179,-5.5179,-5.5179,-5.5179,-5.5179,-5.5179,-5.5179,-5.5179,-5.497,-5.473,-5.473,-5.4192,-5.3623,-5.3264,-5.2935,-5.2725,-5.2725,-5.2456,-5.2247,-5.2247,-5.2247,-5.2127,-5.1768,-5.1738,-5.1618,-5.1259,-5.1229,-5.1229,-5.1229,-5.1229,-5.1229,-5.1229,-5.1528,-5.1738,-5.1738,-5.2067,-5.2247,-5.2247,-5.2247,-5.2247,-5.2247,-5.2247,-5.2247,-5.2247,-5.1887,-5.1738,-5.1708,-5.1379,-5.1229,-6.6643,-6.6192,-6.5592,-6.5337,-6.3937,-6.2632,-6.2632,-6.1702,-6.0845,-6.1072,-6.0949,-6.0638,-6.0144,-6.0069,-5.9827,-5.9261,-5.9153,-5.9099,-5.9099,-5.9099,-5.9099,-5.9099,-5.9099,0.0,-5.9099,-5.9099,-5.9099,-5.9099,-5.9099,-5.9099,-5.9099,-5.9099,-5.9099,-5.9099,-5.9099,-5.9099,-5.9099,-5.9315,-5.9422,-5.9422,-5.9667,-5.9827,-5.9773,-5.9017,-5.861,-5.8429,-5.7169,-5.6436,-5.6188,-5.5628,-5.5329,-5.5179,-5.5179,-5.5179,-5.5179,-5.5179,-5.5179,-5.5179,-5.5179,-5.5179,-5.5179,-5.5179,-5.5179,-5.5179,-5.5179,-5.5179,-5.5179,-5.5179,-5.5179,-5.5179,-5.5179,-5.5179,-5.5179,-5.5179,-5.479,-5.4281,-5.3743,-5.3503,-5.3384,-5.3384,-5.3294,-5.3174,-5.3174,-5.3174,-5.2995,-5.2486,-5.2396,-5.2217,-5.1708,-5.1648,-5.1648,-5.1648,-5.1498,-5.1498,-5.1618,-5.2127,-5.2396,-5.2396,-5.2905,-5.3174,-5.3174,-5.3174,-5.3174,-5.3174,-5.3174,-5.3174,-5.3174,-5.2665,-5.2396,-5.2396,-5.1887,-5.1648,-6.6779,-6.6728,-6.644,-6.5548,-6.4447,-6.3656,-6.3656,0.0,-6.1021,-6.1972,-6.143,-6.069,-6.0429,-6.0144,-5.988,-5.9529,-5.9261,-5.9099,-5.9099,-5.9099,-5.9099,-5.9099,0.0,0.0,-5.9099,-5.9099,-5.9099,-5.9099,-5.9099,-5.9099,-5.9099,-5.9099,-5.9099,-5.9099,-5.9099,-5.9099,-5.9099,-5.9099,-5.9153,-5.9153,-5.9153,-5.9153,-5.9153,-5.9093,-5.8734,-5.8112,-5.7992,-5.7274,-5.6218,-5.6107,-5.5718,-5.5179,-5.5179,-5.5179,-5.5179,-5.5179,-5.5179,-5.5179,-5.5179,-5.5179,-5.5179,-5.5179,-5.5179,-5.5179,-5.5179,-5.5179,-5.5179,-5.5179,-5.5179,-5.5179,-5.5179,-5.5179,-5.5179,-5.5179,-5.5149,-5.5089,-5.5029,-5.4551,-5.4132,-5.4132,-5.3623,-5.3174,-5.3174,-5.3174,-5.3144,-5.3084,-5.3084,-5.3084,-5.2995,-5.2995,-5.2995,-5.2995,-5.2456,-5.2336,-5.2935,-5.3054,-5.3084,-5.3084,-5.3144,-5.3174,-5.3174,-5.3174,-5.3174,-5.3174,-5.3174,-5.3174,-5.3174,-5.3114,-5.3084,-5.3084,-5.3025,-5.2995,-6.6812,-6.6812,-6.6728,-6.6278,-6.5426,-6.4675,-6.4675,-6.3164,-6.1803,-6.2221,-6.15,-6.069,-6.0429,-6.0197,-5.988,-5.9529,-5.9261,0.0,-5.9099,-5.9099,-5.9099,-5.9099,-5.9099,-5.9099,-5.9099,-5.9099,-5.9099,-5.9099,-5.9099,-5.9099,-5.9099,-5.9099,-5.9099,-5.9099,-5.9099,-5.9099,-5.9099,-5.9099,-5.9099,-5.9099,-5.9099,-5.9099,-5.9099,-5.9099,-5.8949,-5.868,-5.8291,-5.7812,-5.7274,-5.6496,-5.6068,-5.5748,-5.5359,-5.5179,-5.5179,-5.5179,-5.5179,-5.5179,-5.5179,-5.5179,-5.5179,-5.5179,-5.5179,-5.5179,-5.5179,-5.5179,-5.5179,-5.5179,-5.5179,-5.5179,-5.5179,-5.5179,-5.5179,-5.5179,-5.5179,-5.5179,-5.5179,-5.497,-5.479,-5.479,-5.4581,-5.4401,-5.4401,-5.4401,-5.4251,-5.3862,-5.3803,-5.3653,-5.3234,-5.3174,-5.3324,-5.3743,-5.3204,-5.2905,-5.3144,-5.3563,-5.3803,-5.3803,-5.4162,-5.4401,-5.4401,-5.4401,-5.4401,-5.4401,-5.4401,-5.4401,-5.4401,-5.3982,-5.3803,-5.3773,-5.3384,-5.3174,-6.6812,-6.6812,-6.6812,-6.6812,-6.6062,-6.5382,-6.568,-6.3937,-6.2369,-6.268,-6.1702,-6.0742,-6.0534,-6.0302,-6.0039,-5.969,0.0,-5.9207,-5.9099,-5.9099,-5.9099,-5.9099,-5.9099,-5.9099,-5.9099,-5.9099,-5.9099,-5.9099,-5.9099,-5.9099,-5.9099,-5.9099,-5.9099,-5.9099,-5.9099,-5.9099,-5.9099,-5.9099,-5.9099,-5.9099,-5.9099,-5.9099,-5.9099,-5.9099,-5.9099,-5.9069,-5.862,-5.8291,-5.8052,-5.7124,-5.6645,-5.6376,-5.5748,-5.5478,-5.5448,-5.5269,-5.5179,-5.5179,-5.5179,-5.5179,-5.5179,-5.5179,-5.5179,-5.5179,-5.5179,-5.5179,-5.5179,-5.5179,-5.5179,-5.5179,-5.5179,-5.5179,-5.5179,-5.5179,-5.5179,-5.5179,-5.5179,-5.5179,-5.5179,-5.5179,-5.5179,-5.5179,-5.5179,-5.5179,-5.5029,-5.4581,-5.4491,-5.4311,-5.3832,-5.3773,-5.3952,-5.4461,-5.4072,-5.3773,-5.3773,-5.4221,-5.4491,-5.4491,-5.494,-5.5179,-5.5179,-5.5179,-5.5179,-5.5179,-5.5179,-5.5179,-5.5179,-5.473,-5.4491,-5.4491,-5.4012,-5.3773,-6.6812,-6.6812,-6.6812,-6.6812,-6.6062,-6.5592,-6.6567,-6.4479,-6.2583,-6.3609,-6.2189,-6.0794,-6.0794,-6.0586,-6.0272,-6.0069,-5.972,0.0,-5.9153,-5.9099,-5.9099,-5.9099,-5.9099,-5.9099,-5.9099,-5.9099,-5.9099,-5.9099,-5.9099,-5.9099,-5.9099,-5.9099,-5.9099,-5.9099,-5.9099,-5.9099,-5.9099,-5.9099,-5.9099,-5.9099,-5.9099,-5.9099,-5.9099,-5.9099,-5.9099,-5.9099,-5.9099,-5.871,-5.8112,-5.8112,-5.7693,-5.7034,-5.6406,-5.6218,-5.6077,-5.5418,-5.5179,-5.5179,-5.5179,-5.5179,-5.5179,-5.5179,-5.5179,-5.5179,-5.5179,-5.5179,-5.5179,-5.5179,-5.5179,-5.5179,-5.5179,-5.5179,-5.5179,-5.5179,-5.5179,-5.5179,-5.5179,-5.5179,-5.5179,-5.5179,-5.5179,-5.5179,-5.5179,-5.5179,-5.5179,-5.5179,-5.5179,-5.5179,-5.5179,-5.5179,-5.5179,-5.5179,-5.5179,-5.5179,-5.5179,-5.5179,-5.5179,-5.5179,-5.5179,-5.5179,-5.5179,-5.5179,-5.5179,-5.5179,-5.5179,-5.5179,-5.5179,-5.5179,-5.5179,-5.5179,-5.5179,-5.5179,-6.6812,-6.6812,-6.6812,-6.6812,-6.6567,-6.6397,-6.6728,-6.5548,-6.4262,-6.3891,-6.2778,-6.1602,-6.0949,-6.046,-6.0092,-6.0016,-5.956,0.0,-5.9099,-5.9099,-5.9099,-5.9099,-5.9099,-5.9099,-5.9099,-5.9099,-5.9099,-5.9099,-5.9099,-5.9099,-5.9099,-5.9099,-5.9099,-5.9099,-5.9099,-5.9099,-5.9099,-5.9099,-5.9099,-5.9099,-5.9099,-5.9099,-5.9099,-5.9099,-5.9099,-5.9099,-5.9099,-5.8979,-5.877,-5.8321,-5.7992,-5.7723,-5.7064,-5.6795,-5.6735,-5.6077,-5.5867,-5.5807,-5.5359,-5.5179,-5.5179,-5.5179,-5.5179,-5.5179,-5.5179,-5.5179,-5.5179,-5.5179,-5.5179,-5.5179,-5.5179,-5.5179,-5.5179,-5.5179,-5.5179,-5.5179,-5.5179,-5.5179,-5.5179,-5.5179,-5.5179,-5.5179,-5.5179,-5.5179,-5.5179,-5.5179,-5.5179,-5.5179,-5.5179,-5.5179,-5.5179,-5.5179,-5.5179,-5.5179,-5.5179,-5.5179,-5.5179,-5.5179,-5.5179,-5.5179,-5.5179,-5.5179,-5.5179,-5.5179,-5.5179,-5.5179,-5.5179,-5.5179,-5.5179,-5.5179,-5.5179,-5.5179,-6.6812,-6.6812,-6.6812,-6.6812,-6.6812,-6.6812,-6.6812,-6.6019,-6.5024,-6.4031,-6.302,-6.1972,-6.1,-6.046,-6.0092,-6.0016,-5.956,-5.9207,-5.9099,-5.9099,-5.9099,-5.9099,-5.9099,-5.9099,-5.9099,-5.9099,-5.9099,-5.9099,-5.9099,-5.9099,-5.9099,-5.9099,-5.9099,-5.9099,-5.9099,-5.9099,-5.9099,-5.9099,-5.9099,-5.9099,-5.9099,-5.9099,-5.9099,-5.9099,-5.9099,-5.9099,-5.9099,-5.9099,0.0,-5.865,-5.8501,-5.8411,-5.7752,-5.7483,-5.7393,-5.6765,-5.6428,-5.6158,-5.5718,-5.5388,-5.5179,-5.5179,-5.5179,-5.5179,-5.5179,-5.5179,-5.5179,-5.5179,-5.5179,-5.5179,-5.5179,-5.5179,-5.5179,-5.5179,-5.5179,-5.5179,-5.5179,-5.5179,-5.5179,-5.5179,-5.5179,-5.5179,-5.5179,-5.5179,-5.5179,-5.5179,-5.5179,-5.5179,-5.5179,-5.5179,-5.5179,-5.5179,-5.5179,-5.5179,-5.5179,-5.5179,-5.5179,-5.5179,-5.5179,-5.5179,-5.5179,-5.5179,-5.5179,-5.5179,-5.5179,-5.5179,-5.5179,-5.5179,-5.5179,-5.5179,-5.5179,-5.5179,0.0,-6.6812,-6.6812,-6.6812,-6.6812,-6.6812,-6.6812,-6.6062,0.0,-6.4031,-6.3068,-6.2072,-6.1,-6.0586,-6.0302,-6.0069,-5.972,-5.9369,-5.9153,-5.9099,-5.9099,-5.9099,-5.9099,-5.9099,-5.9099,-5.9099,-5.9099,-5.9099,-5.9099,-5.9099,-5.9099,-5.9099,-5.9099,-5.9099,-5.9099,-5.9099,-5.9099,-5.9099,-5.9099,-5.9099,-5.9099,-5.9099,-5.9099,-5.9099,-5.9099,-5.9099,-5.9099,-5.9099,-5.9099,-5.9099,-5.9099,-5.9039,-5.8441,-5.8201,-5.8112,-5.7423,-5.6795,-5.6368,-5.6308,-5.5807,-5.5239,-5.5209,-5.5179,-5.5179,-5.5179,-5.5179,-5.5179,-5.5179,-5.5179,-5.5179,-5.5179,-5.5179,-5.5179,-5.5179,-5.5179,-5.5179,-5.5179,-5.5179,-5.5179,-5.5179,-5.5179,-5.5179,-5.5179,-5.5179,-5.5179,-5.5179,-5.5179,-5.5179,-5.5179,-5.5179,-5.5179,-5.5179,-5.5179,-5.5179,-5.5179,-5.5179,-5.5179,-5.5179,-5.5179,-5.5179,-5.5179,-5.5179,-5.5179,-5.5179,-5.5179,-5.5179,-5.5179,-5.5179,-5.5179,-5.5179,-5.5179,-5.5179,-6.6812,0.0,-6.6812,-6.6812,-6.6812,-6.6812,0.0,-6.6643,-6.5975,-6.417,-6.3609,-6.2891,-6.1124,-6.0407,-6.0039,-6.0016,-5.956,-5.9153,-5.9099,-5.9099,-5.9099,-5.9099,-5.9099,-5.9099,-5.9099,-5.9099,-5.9099,-5.9099,-5.9099,-5.9099,-5.9099,-5.9099,-5.9099,-5.9099,-5.9099,-5.9099,-5.9099,-5.9099,-5.9099,-5.9099,-5.9099,-5.9099,-5.9099,-5.9099,-5.9099,-5.9099,-5.9099,-5.9099,-5.9099,-5.9099,-5.9099,-5.9099,-5.8949,-5.886,-5.88,-5.8112,-5.7782,-5.7573,-5.7064,-5.6466,-5.5867,-5.5359,-5.5179,-5.5179,-5.5179,-5.5179,-5.5179,-5.5179,-5.5179,-5.5179,-5.5179,-5.5179,-5.5179,-5.5179,-5.5179,-5.5179,-5.5179,-5.5179,-5.5179,-5.5179,-5.5179,-5.5179,-5.5179,-5.5179,-5.5179,-5.5179,-5.5179,-5.5179,-5.5179,-5.5179,-5.5179,-5.5179,-5.5179,-5.5179,-5.5179,-5.5179,-5.5179,-5.5179,-5.5179,-5.5179,-5.5179,-5.5179,-5.5179,-5.5179,-5.5179,-5.5179,-5.5179,-5.5179,-5.5179,-5.5179,-5.5179,-5.5179,-6.6812,-6.6812,-6.6812,-6.6812,-6.6812,-6.6812,-6.6812,-6.6812,-6.6235,-6.4216,-6.3797,-6.318,-6.1175,-6.0355,-6.0016,-6.0016,-5.9506,-5.9099,-5.9099,-5.9099,-5.9099,-5.9099,-5.9099,-5.9099,-5.9099,-5.9099,-5.9099,-5.9099,-5.9099,-5.9099,-5.9099,-5.9099,-5.9099,-5.9099,-5.9099,-5.9099,-5.9099,-5.9099,-5.9099,-5.9099,-5.9099,-5.9099,-5.9099,-5.9099,-5.9099,-5.9099,-5.9099,-5.9099,-5.9099,-5.9099,-5.9099,-5.9099,-5.9099,-5.9099,-5.9069,-5.871,-5.8381,-5.8082,-5.7693,-5.6944,-5.6158,-5.5748,-5.5448,-5.5179,-5.5179,-5.5179,-5.5179,-5.5179,-5.5179,-5.5179,-5.5179,-5.5179,-5.5179,-5.5179,-5.5179,-5.5179,-5.5179,-5.5179,-5.5179,-5.5179,-5.5179,-5.5179,-5.5179,-5.5179,-5.5179,-5.5179,-5.5179,-5.5179,-5.5179,-5.5179,-5.5179,-5.5179,-5.5179,-5.5179,-5.5179,-5.5179,-5.5179,-5.5179,-5.5179,-5.5179,-5.5179,-5.5179,-5.5179,-5.5179,-5.5179,-5.5179,-5.5179,-5.5179,-5.5179,-5.5179,-5.5179,-5.5179,-6.6812,-6.6812,-6.6812,-6.6812,-6.6812,-6.6812,-6.6812,0.0,0.0,-6.4216,-6.3797,-6.318,-6.1175,-6.0355,-6.0016,-6.0016,-5.9506,-5.9099,-5.9099,-5.9099,-5.9099,-5.9099,-5.9099,-5.9099,-5.9099,-5.9099,-5.9099,-5.9099,-5.9099,-5.9099,-5.9099,-5.9099,-5.9099,-5.9099,-5.9099,-5.9099,-5.9099,-5.9099,-5.9099,-5.9099,-5.9099,-5.9099,-5.9099,-5.9099,-5.9099,-5.9099,-5.9099,-5.9099,-5.9099,-5.9099,-5.9099,-5.9099,-5.9099,-5.9099,-5.9099,-5.9099,-5.874,-5.8261,-5.8171,-5.7393,-5.6436,-5.6346,-5.5867,-5.5329,-5.5329,-5.5269,-5.5179,-5.5179,-5.5179,-5.5179,-5.5179,-5.5179,-5.5179,-5.5179,-5.5179,-5.5179,-5.5179,-5.5179,-5.5179,-5.5179,-5.5179,-5.5179,-5.5179,-5.5179,-5.5179,-5.5179,-5.5179,-5.5179,-5.5179,-5.5179,-5.5179,-5.5179,-5.5179,-5.5179,-5.5179,-5.5179,-5.5179,-5.5179,-5.5179,-5.5179,-5.5179,-5.5179,-5.5179,-5.5179,-5.5179,-5.5179,-5.5179,-5.5179,-5.5179,-5.5179,-5.5179,-5.5179,-6.6812,-6.6812,-6.6812,-6.6812,-6.6812,-6.6812,-6.6812,-6.6812,-6.6235,0.0,-6.3797,-6.318,-6.1175,-6.0355,-6.0016,-6.0016,-5.9506,-5.9099,-5.9099,-5.9099,-5.9099,-5.9099,-5.9099,-5.9099,-5.9099,-5.9099,-5.9099,-5.9099,-5.9099,-5.9099,-5.9099,-5.9099,-5.9099,-5.9099,-5.9099,-5.9099,-5.9099,-5.9099,-5.9099,-5.9099,-5.9099,-5.9099,-5.9099,-5.9099,-5.9099,-5.9099,-5.9099,-5.9099,-5.9099,-5.9099,-5.9099,-5.9099,-5.9099,-5.9099,-5.9099,-5.9099,-5.9039,-5.889,-5.8321,-5.7992,-5.7723,-5.7154,-5.6526,-5.6017,-5.6017,-5.5628,-5.5179,-5.5179,-5.5179,-5.5179,-5.5179,-5.5179,-5.5179,-5.5179,-5.5179,-5.5179,-5.5179,-5.5179,-5.5179,-5.5179,-5.5179,-5.5179,-5.5179,-5.5179,-5.5179,-5.5179,-5.5179,-5.5179,-5.5179,-5.5179,-5.5179,-5.5179,-5.5179,-5.5179,-5.5179,-5.5179,-5.5179,-5.5179,-5.5179,-5.5179,-5.5179,-5.5179,-5.5179,-5.5179,-5.5179,-5.5179,-5.5179,-5.5179,-5.5179,-5.5179,-5.5179,-5.5179,-6.6812,-6.6812,-6.6812,-6.6812,-6.6812,-6.6812,-6.6812,-6.6812,-6.6235,-6.4216,-6.3797,-6.318,-6.1175,-6.0512,-6.0092,-5.9773,-5.9369,-5.9099,-5.9099,-5.9099,-5.9099,-5.9099,-5.9099,-5.9099,-5.9099,-5.9099,-5.9099,-5.9099,-5.9099,-5.9099,-5.9099,-5.9099,-5.9099,-5.9099,-5.9099,-5.9099,-5.9099,-5.9099,-5.9099,-5.9099,-5.9099,-5.9099,-5.9099,-5.9099,-5.9099,-5.9099,-5.9099,-5.9099,-5.9099,-5.9099,-5.9099,-5.9099,-5.9099,-5.9099,-5.9099,-5.9099,-5.9099,-5.9069,-5.877,-5.8411,-5.8082,-5.7752,-5.7214,-5.6675,-5.6675,-5.6226,-5.5718,-5.5718,-5.5478,-5.5179,-5.5179,-5.5179,-5.5179,-5.5179,-5.5179,-5.5179,-5.5179,-5.5179,-5.5179,-5.5179,-5.5179,-5.5179,-5.5179,-5.5179,-5.5179,-5.5179,-5.5179,-5.5179,-5.5179,-5.5179,-5.5179,-5.5179,-5.5179,-5.5179,-5.5179,-5.5179,-5.5179,-5.5179,-5.5179,-5.5179,-5.5179,-5.5179,-5.5179,-5.5179,-5.5179,-5.5179,-5.5179,-5.5179,-5.5179,-5.5179,-5.5179,-5.5179,-6.6812,-6.6812,-6.6812,-6.6812,-6.6812,-6.6812,-6.6812,-6.6812,-6.6235,-6.4216,-6.3797,-6.318,-6.1175,-6.0534,-6.0114,-5.9583,-5.9261,-5.9099,-5.9099,-5.9099,-5.9099,-5.9099,-5.9099,-5.9099,-5.9099,-5.9099,-5.9099,-5.9099,-5.9099,-5.9099,-5.9099,-5.9099,-5.9099,-5.9099,-5.9099,-5.9099,-5.9099,-5.9099,-5.9099,-5.9099,-5.9099,-5.9099,-5.9099,-5.9099,-5.9099,-5.9099,-5.9099,-5.9099,-5.9099,-5.9099,-5.9099,-5.9099,-5.9099,-5.9099,-5.9099,-5.9099,-5.9099,-5.9099,-5.9099,-5.877,-5.8351,-5.8351,-5.7902,-5.7334,-5.7334,-5.6885,-5.6376,-5.6376,-5.5927,-5.5388,-5.5239,-5.5179,-5.5179,-5.5179,-5.5179,-5.5179,-5.5179,-5.5179,-5.5179,-5.5179,-5.5179,-5.5179,-5.5179,-5.5179,-5.5179,-5.5179,-5.5179,-5.5179,-5.5179,-5.5179,-5.5179,-5.5179,-5.5179,-5.5179,-5.5179,-5.5179,-5.5179,-5.5179,-5.5179,-5.5179,-5.5179,-5.5179,-5.5179,-5.5179,-5.5179,-5.5179,-5.5179,-5.5179,-5.5179,-5.5179,-5.5179,-5.5179,-6.6812,-6.6812,-6.6812,-6.6812,-6.6812,-6.6812,-6.6812,-6.6812,-6.6235,-6.4216,-6.3797,-6.318,-6.1175,-6.0407,-5.988,-5.9583,-5.9261,-5.9099,-5.9099,-5.9099,-5.9099,-5.9099,-5.9099,-5.9099,-5.9099,-5.9099,-5.9099,-5.9099,-5.9099,-5.9099,-5.9099,-5.9099,-5.9099,-5.9099,-5.9099,-5.9099,-5.9099,-5.9099,-5.9099,-5.9099,-5.9099,-5.9099,-5.9099,-5.9099,-5.9099,-5.9099,-5.9099,-5.9099,-5.9099,-5.9099,-5.9099,-5.9099,-5.9099,-5.9099,-5.9099,-5.9099,-5.9099,-5.9099,-5.9099,-5.9069,-5.9039,-5.9039,-5.859,-5.8052,-5.8052,-5.7573,-5.7034,-5.7034,-5.6585,-5.5957,-5.5359,-5.5179,-5.5179,-5.5179,-5.5179,-5.5179,-5.5179,-5.5179,-5.5179,-5.5179,-5.5179,-5.5179,-5.5179,-5.5179,-5.5179,-5.5179,-5.5179,-5.5179,-5.5179,-5.5179,-5.5179,-5.5179,-5.5179,-5.5179,-5.5179,-5.5179,-5.5179,-5.5179,-5.5179,-5.5179,-5.5179,-5.5179,-5.5179,-5.5179,-5.5179,-5.5179,-5.5179,-5.5179,-5.5179,-5.5179,-5.5179,-5.5179,-6.6812,-6.6812,-6.6812,-6.6812,-6.6812,-6.6812,-6.6812,-6.6812,-6.6397,-6.5024,-6.4262,-6.318,-6.1175,-6.0481,-6.0144,-5.988,-5.9529,-5.9315,-5.9099,-5.9099,-5.9099,-5.9099,-5.9099,-5.9099,-5.9099,-5.9099,-5.9099,-5.9099,-5.9099,-5.9099,-5.9099,-5.9099,-5.9099,-5.9099,-5.9099,-5.9099,-5.9099,-5.9099,-5.9099,-5.9099,-5.9099,-5.9099,-5.9099,-5.9099,-5.9099,-5.9099,-5.9099,-5.9099,-5.9099,-5.9099,-5.9099,-5.9099,-5.9099,-5.9099,-5.9099,-5.9099,-5.9099,-5.9099,-5.9099,-5.9099,-5.9207,-5.9895,-5.9478,-5.8847,-5.953,-5.8813,-5.7723,-5.7723,-5.7244,-5.6585,-5.5957,-5.5508,-5.5179,-5.5179,-5.5179,-5.5179,-5.5179,-5.5179,-5.5179,-5.5179,-5.5179,-5.5179,-5.5179,-5.5179,-5.5179,-5.5179,-5.5179,-5.5179,-5.5179,-5.5179,-5.5179,-5.5179,-5.5179,-5.5179,-5.5179,-5.5179,-5.5179,-5.5179,-5.5179,-5.5179,-5.5179,-5.5179,-5.5179,-5.5179,-5.5179,-5.5179,-5.5179,-5.5179,-5.5179,-5.5179,-5.5179,-5.5179,-6.6812,-6.6812,-6.6812,-6.6812,-6.6812,-6.6812,-6.6812,-6.6812,-6.644,-6.5114,-6.3797,-6.2436,-6.1021,-6.0586,-6.0324,-6.0039,-5.972,-5.9422,-5.9153,-5.9099,-5.9099,-5.9099,-5.9099,-5.9099,-5.9099,-5.9099,-5.9099,-5.9099,-5.9099,-5.9099,-5.9099,-5.9099,-5.9099,-5.9099,-5.9099,-5.9099,-5.9099,-5.9099,-5.9099,-5.9099,-5.9099,-5.9099,-5.9099,-5.9099,-5.9099,-5.9099,-5.9099,-5.9099,-5.9099,-5.9099,-5.9099,-5.9099,-5.9099,-5.9315,-5.9606,-5.9606,-5.9606,-5.9606,-5.9606,-5.9392,-5.9207,-5.9948,-5.9713,-5.9315,-6.039,-5.9875,-5.8964,-5.9301,-5.8711,-5.7794,-5.7423,-5.6564,-5.5807,-5.5807,-5.5628,-5.5508,-5.5508,-5.5329,-5.5179,-5.5179,-5.5179,-5.5179,-5.5179,-5.5179,-5.5179,-5.5179,-5.5179,-5.5179,-5.5179,-5.5179,-5.5179,-5.5179,-5.5179,-5.5179,-5.5179,-5.5179,-5.5179,-5.5179,-5.5179,-5.5179,-5.5179,-5.5179,-5.5179,-5.5179,-5.5179,-5.5179,-5.5179,-5.5179,-5.5179,-5.5179,-5.5179,-5.5179,-6.6812,-6.6812,-6.6812,-6.6812,-6.6812,-6.6812,-6.6812,-6.6812,-6.6235,-6.4216,-6.2189,-6.0845,-6.0794,-6.0586,-6.0355,-6.0039,-5.972,-5.9422,-5.9153,-5.9099,-5.9099,-5.9099,-5.9099,-5.9099,-5.9099,-5.9099,-5.9099,-5.9099,-5.9099,-5.9099,-5.9099,-5.9099,-5.9099,-5.9099,-5.9099,-5.9099,-5.9099,-5.9099,-5.9099,-5.9099,-5.9099,-5.9099,-5.9099,-5.9099,-5.9099,-5.9099,-5.9099,-5.9099,-5.9099,-5.9099,-5.9099,-5.9099,-5.9099,-5.9736,-6.0701,-6.0701,-6.0701,-6.0701,-6.0701,-6.0,-5.9099,-5.9099,-5.9099,-5.9315,-6.039,-6.0701,-6.0928,-6.199,-6.104,-5.9736,-5.9736,-5.8459,-5.7146,-5.7094,-5.6615,-5.6248,-5.6248,-5.5658,-5.5209,-5.5209,-5.5209,-5.5209,-5.5209,-5.5209,-5.5209,-5.5179,-5.5179,-5.5179,-5.5179,-5.5179,-5.5179,-5.5179,-5.5179,-5.5179,-5.5179,-5.5179,-5.5179,-5.5179,-5.5179,-5.5179,-5.5179,-5.5179,-5.5179,-5.5179,-5.5179,-5.5179,-5.5179,-5.5179,-5.5179,-5.5179,-5.5179,-5.5179,-6.6812,-6.6812,-6.6812,-6.6812,-6.6812,-6.6812,-6.6812,-6.6812,-6.644,-6.5114,-6.3844,-6.268,-6.1972,-6.1226,-6.0534,-6.0039,-5.9933,-5.9667,-5.9153,-5.9099,-5.9099,-5.9099,-5.9099,-5.9099,-5.9099,-5.9099,-5.9099,-5.9099,-5.9099,-5.9099,-5.9099,-5.9099,-5.9099,-5.9099,-5.9099,-5.9099,-5.9099,-5.9099,-5.9099,-5.9099,-5.9099,-5.9099,-5.9099,-5.9099,-5.9099,-5.9099,-5.9099,-5.9099,-5.9099,-5.9099,-5.9099,-5.9099,-5.9099,-5.9285,-5.966,-6.0442,-6.0701,-6.0701,-6.0701,-6.0494,-6.0233,-6.0233,-5.9683,-5.9446,-6.1286,-6.1286,-6.0928,-6.199,-6.1932,-6.1527,-6.1527,-6.1171,-6.0113,-5.7691,-5.6944,-5.6825,-5.6825,-5.6675,-5.6526,-5.6526,-5.6526,-5.6406,-5.5957,-5.5867,-5.5718,-5.5269,-5.5179,-5.5179,-5.5179,-5.5179,-5.5179,-5.5179,-5.5179,-5.5179,-5.5179,-5.5179,-5.5179,-5.5179,-5.5179,-5.5179,-5.5179,-5.5179,-5.5179,-5.5179,-5.5179,-5.5179,-5.5179,-5.5179,-5.5179,-5.5179,-5.5179,-5.5179,-6.6812,-6.6812,-6.6812,-6.6812,-6.6812,-6.6812,-6.6812,-6.6482,-6.6019,-6.5426,-6.417,-6.302,-6.2418,-6.1481,-6.0638,-6.025,-6.0039,-5.9827,-5.9315,-5.9153,-5.9099,-5.9099,-5.9099,-5.9099,-5.9099,-5.9099,-5.9099,-5.9099,-5.9099,-5.9099,-5.9099,-5.9099,-5.9099,-5.9099,-5.9099,-5.9099,-5.9099,-5.9099,-5.9099,-5.9099,-5.9099,-5.9099,-5.9099,-5.9099,-5.9099,-5.9099,-5.9099,-5.9099,-5.9099,-5.9099,-5.9099,-5.9099,-5.9099,-5.9339,-5.9842,-6.0928,-6.1337,-6.1387,-6.1841,-6.169,-6.1337,-6.1337,-6.0598,-6.0053,-6.179,-6.1841,-6.1589,-6.2632,-6.2923,-6.2923,-6.2923,-6.2632,-6.1671,-5.9091,-5.8313,-5.8028,-5.7588,-5.7304,-5.7094,-5.7094,-5.7094,-5.6974,-5.6585,-5.6526,-5.6316,-5.5688,-5.5359,-5.5179,-5.5179,-5.5179,-5.5179,-5.5179,-5.5179,-5.5179,-5.5179,-5.5179,-5.5179,-5.5179,-5.5179,-5.5179,-5.5179,-5.5179,-5.5179,-5.5179,-5.5179,-5.5179,-5.5179,-5.5179,-5.5179,-5.5179,-5.5179,-5.5179,-6.6812,-6.6812,-6.6812,-6.6812,-6.6812,-6.6812,-6.6812,-6.6105,-6.5426,-6.5426,-6.3891,-6.2565,-6.2467,-6.1602,-6.0845,-6.0481,-6.0197,-5.988,-5.9529,-5.9261,-5.9099,-5.9099,-5.9099,-5.9099,-5.9099,-5.9099,-5.9099,-5.9099,-5.9099,-5.9099,-5.9099,-5.9099,-5.9099,-5.9099,-5.9099,-5.9099,-5.9099,-5.9099,-5.9099,-5.9099,-5.9099,-5.9153,-5.9261,-5.9153,-5.9099,-5.9099,-5.9099,-5.9099,-5.9099,-5.9099,-5.9099,-5.9099,-5.9099,-5.9713,-6.0671,-6.1759,-6.2238,-6.2436,-6.3436,-6.3196,-6.2436,-6.2306,-6.164,-6.1031,-6.2108,-6.2436,-6.268,-6.3753,-6.4035,-6.4035,-6.4035,-6.334,-6.2306,-6.1235,-6.0362,-5.9522,-5.8542,-5.7775,-5.7274,-5.7274,-5.7274,-5.7244,-5.7184,-5.7184,-5.6974,-5.6346,-5.5718,-5.5269,-5.5269,-5.5239,-5.5179,-5.5179,-5.5179,-5.5179,-5.5179,-5.5179,-5.5179,-5.5179,-5.5179,-5.5179,-5.5179,-5.5179,-5.5179,-5.5179,-5.5179,-5.5179,-5.5179,-5.5179,-5.5179,-5.5179,-5.5179,-5.5179,-6.6812,-6.6812,-6.6812,-6.6812,-6.6812,-6.6812,-6.6812,-6.6643,-6.6482,-6.6482,-6.5504,-6.4401,-6.3609,-6.268,-6.1652,-6.0586,-6.0197,-5.988,-5.9529,-5.9261,-5.9099,-5.9099,-5.9099,-5.9099,-5.9099,-5.9099,-5.9099,-5.9099,-5.9099,-5.9099,-5.9099,-5.9099,-5.9099,-5.9099,-5.9099,-5.9099,-5.9099,-5.9099,-5.9099,-5.9099,-5.9099,-5.9553,-6.0337,-5.9499,-5.9099,-5.9099,-5.9099,-5.9099,-5.9099,-5.9099,-5.9099,-5.9099,-5.9099,-5.9261,-5.9553,-6.065,-6.1589,-6.2306,-6.2583,-6.302,-6.3436,-6.2583,-6.2108,-6.2189,-6.3244,-6.3531,-6.38,-6.4806,-6.5078,-6.5078,-6.5078,-6.4943,-6.4499,-6.3436,-6.1846,-6.0434,-6.0175,-5.938,-5.868,-5.868,-5.868,-5.8501,-5.7992,-5.7902,-5.7663,-5.7004,-5.6346,-5.5957,-5.5957,-5.5508,-5.5179,-5.5179,-5.5179,-5.5179,-5.5179,-5.5179,-5.5179,-5.5179,-5.5179,-5.5179,-5.5179,-5.5179,-5.5179,-5.5179,-5.5179,-5.5179,-5.5179,-5.5179,-5.5179,-5.5179,-5.5179,-5.5179,-6.6812,-6.6812,-6.6812,-6.6812,-6.6812,-6.6812,-6.6812,-6.6812,-6.6812,-6.6812,-6.6019,-6.5024,-6.3984,-6.2972,-6.1922,-6.0794,-6.025,-5.9933,-5.9773,-5.9369,-5.9099,-5.9099,-5.9099,-5.9099,-5.9099,-5.9099,-5.9099,-5.9099,-5.9099,-5.9099,-5.9099,-5.9099,-5.9099,-5.9099,-5.9099,-5.9099,-5.9099,-5.9606,-5.9842,-5.9842,-6.039,-6.0928,-6.1438,-6.0877,-6.0337,-5.9842,-5.9842,-5.9553,-5.9099,-5.9099,-5.9099,-5.9099,-5.9099,-5.9099,-5.9261,-6.0285,-6.1031,-6.169,-6.2729,-6.3436,-6.3894,-6.3815,-6.3451,-6.3196,-6.3753,-6.3894,-6.3988,-6.4499,-6.5033,-6.5425,-6.5425,-6.5425,-6.5258,-6.4761,-6.3388,-6.209,-6.1589,-6.065,-5.9842,-5.9842,-5.9446,-5.9009,-5.865,-5.8321,-5.7992,-5.7633,-5.7034,-5.6496,-5.6248,-5.5867,-5.5538,-5.5209,-5.5179,-5.5179,-5.5179,-5.5179,-5.5179,-5.5179,-5.5179,-5.5179,-5.5179,-5.5179,-5.5179,-5.5179,-5.5179,-5.5179,-5.5179,-5.5179,-5.5179,-5.5179,-5.5179,-5.5179,-6.6812,-6.6812,-6.6812,-6.6812,-6.6812,-6.6812,-6.6812,-6.6812,-6.6812,-6.6812,-6.6148,-6.5248,-6.4262,-6.3228,-6.2221,-6.1226,-6.0481,-6.0039,-6.0016,-5.9506,-5.9153,-5.9099,-5.9099,-5.9099,-5.9099,-5.9099,-5.9099,-5.9099,-5.9099,-5.9099,-5.9099,-5.9099,-5.9099,-5.9099,-5.9099,-5.9099,-5.9099,-6.0,-6.0442,-6.0442,-6.169,-6.2306,-6.2306,-6.2485,-6.199,-6.0979,-6.0979,-6.0494,-5.966,-5.9446,-5.9392,-5.9369,-5.9153,-5.9099,-5.9207,-6.0106,-6.0546,-6.0979,-6.2955,-6.3753,-6.4081,-6.5078,-6.4852,-6.4128,-6.4128,-6.4128,-6.4128,-6.4128,-6.4761,-6.5425,-6.5425,-6.5425,-6.5425,-6.5425,-6.4761,-6.3894,-6.2826,-6.174,-6.0979,-6.0979,-6.0106,-5.9392,-5.9392,-5.8757,-5.8291,-5.8291,-5.7693,-5.7094,-5.6585,-5.6406,-5.6137,-5.5568,-5.5418,-5.5359,-5.5359,-5.5269,-5.5179,-5.5179,-5.5179,-5.5179,-5.5179,-5.5179,-5.5179,-5.5179,-5.5179,-5.5179,-5.5179,-5.5179,-5.5179,-5.5179,-5.5179,-5.5179,-6.6812,-6.6812,-6.6812,-6.6812,-6.6812,-6.6812,-6.6812,-6.6812,-6.6812,-6.6812,-6.6686,-6.6278,-6.5293,-6.4262,-6.3276,-6.227,-6.1093,-6.0302,-6.0039,-5.9667,-5.9369,-5.9099,-5.9099,-5.9099,-5.9099,-5.9099,-5.9099,-5.9099,-5.9099,-5.9099,-5.9099,-5.9099,-5.9099,-5.9099,-5.9099,-5.9099,-5.9099,-5.9261,-5.9315,-5.9339,-6.1337,-6.2306,-6.2306,-6.3244,-6.31,-6.2058,-6.2058,-6.204,-6.179,-6.0877,-6.0494,-6.039,-5.9446,-5.9099,-5.9099,-5.9261,-5.9895,-6.0877,-6.209,-6.3116,-6.4081,-6.5078,-6.5303,-6.5168,-6.5168,-6.5168,-6.5168,-6.5168,-6.5336,-6.5425,-6.5425,-6.5425,-6.5425,-6.5425,-6.5336,-6.4943,-6.3894,-6.2826,-6.2058,-6.2058,-6.1235,-6.0494,-6.0494,-5.9622,-5.8979,-5.8979,-5.8411,-5.7962,-5.7872,-5.7334,-5.6944,-5.6855,-5.6346,-5.6098,-5.6098,-5.5508,-5.5179,-5.5179,-5.5179,-5.5179,-5.5179,-5.5179,-5.5179,-5.5179,-5.5179,-5.5179,-5.5179,-5.5179,-5.5179,-5.5179,-5.5179,-5.5179,-6.6812,-6.6812,-6.6812,-6.6812,-6.6812,-6.6812,-6.6812,-6.6812,-6.6812,-6.6812,-6.6812,-6.6482,-6.5504,-6.4934,-6.4309,-6.3276,-6.209,-6.1144,-6.0887,-6.0084,-5.9422,-5.9153,-5.9099,-5.9099,-5.9099,-5.9099,-5.9099,-5.9099,-5.9099,-5.9099,-5.9099,-5.9099,-5.9099,-5.9099,-5.9099,-5.9099,-5.9099,-5.9713,-6.0598,-6.179,-6.2139,-6.2891,-6.4049,-6.3308,-6.2436,-6.1387,-6.1387,-6.1082,-6.0546,-6.065,-6.0337,-5.9789,-5.9948,-5.966,-5.9099,-5.9099,-5.9392,-6.0053,-6.174,-6.2632,-6.326,-6.4897,-6.5425,-6.5425,-6.5425,-6.5425,-6.5425,-6.5425,-6.5425,-6.5425,-6.5425,-6.5425,-6.5425,-6.5425,-6.5425,-6.5291,-6.4852,-6.3909,-6.302,-6.2436,-6.1909,-6.1589,-6.1589,-6.1184,-6.0877,-6.0877,-6.0145,-5.9423,-5.9058,-5.8181,-5.7513,-5.7124,-5.6855,-5.6675,-5.6675,-5.6406,-5.6256,-5.6256,-5.5927,-5.5748,-5.5748,-5.5388,-5.5179,-5.5179,-5.5179,-5.5179,-5.5179,-5.5179,-5.5179,-5.5179,-5.5179,-5.5179,-6.6812,-6.6812,-6.6812,-6.6812,-6.6812,-6.6812,-6.6812,-6.6812,-6.6812,-6.6812,-6.6812,-6.6567,-6.5811,-6.547,-6.5069,-6.4309,-6.318,-6.2157,-6.1589,-6.0701,-5.9872,-5.9207,-5.9153,-5.9153,-5.9099,-5.9099,-5.9099,-5.9099,-5.9099,-5.9099,-5.9099,-5.9099,-5.9099,-5.9099,-5.9099,-5.9099,-5.9099,-5.9895,-6.1387,-6.3483,-6.268,-6.326,-6.4988,-6.3404,-6.2139,-6.1082,-6.1082,-6.065,-6.0,-6.0774,-6.065,-6.0,-6.0774,-6.065,-5.9895,-5.9895,-5.9736,-5.9789,-6.164,-6.2108,-6.2207,-6.436,-6.5033,-6.5078,-6.5303,-6.5425,-6.5425,-6.5425,-6.5425,-6.5425,-6.5425,-6.5425,-6.5425,-6.5425,-6.5425,-6.5425,-6.5425,-6.4806,-6.4035,-6.326,-6.2875,-6.2729,-6.2729,-6.2485,-6.2306,-6.2306,-6.164,-6.0947,-6.0451,-5.9396,-5.8565,-5.8053,-5.7611,-5.7363,-5.7363,-5.7184,-5.7094,-5.7094,-5.6645,-5.6406,-5.6406,-5.5927,-5.5598,-5.5448,-5.5448,-5.5359,-5.5179,-5.5179,-5.5179,-5.5179,-5.5179,-5.5179,-6.6812,-6.6812,-6.6812,-6.6812,-6.6812,-6.6812,-6.6812,-6.6812,-6.6812,-6.6812,-6.6812,-6.677,-6.6728,-6.5975,-6.5293,-6.5248,-6.4355,-6.3196,-6.1709,-6.164,-6.1113,-5.9315,-5.9315,-5.9369,-5.9099,-5.9099,-5.9099,-5.9099,-5.9099,-5.9099,-5.9099,-5.9099,-5.9099,-5.9099,-5.9099,-5.9099,-5.9099,-5.9153,-6.0233,-6.2355,-6.2337,-6.2875,-6.3988,-6.3847,-6.3244,-6.2207,-6.2207,-6.2189,-6.2108,-6.2157,-6.2157,-6.2108,-6.2157,-6.2157,-6.2108,-6.2108,-6.1489,-6.0774,-6.194,-6.164,-6.1133,-6.3292,-6.3988,-6.4128,-6.5123,-6.5425,-6.5425,-6.5425,-6.5425,-6.5425,-6.5425,-6.5425,-6.5425,-6.5425,-6.5425,-6.5425,-6.5425,-6.5381,-6.5336,-6.5258,-6.4453,-6.38,-6.38,-6.2972,-6.2306,-6.2306,-6.2256,-6.2207,-6.2175,-6.1224,-6.0557,-6.0527,-5.9017,-5.8082,-5.8082,-5.7483,-5.7094,-5.7094,-5.7064,-5.7034,-5.7034,-5.7004,-5.6705,-5.6188,-5.6188,-5.5807,-5.5179,-5.5179,-5.5179,-5.5179,-5.5179,-5.5179,-6.6812,-6.6812,-6.6812,-6.6812,-6.6812,-6.6812,-6.6812,-6.6812,-6.6812,-6.6812,-6.6812,-6.6812,-6.6812,-6.6525,-6.6235,-6.6235,-6.5426,-6.4538,-6.3779,-6.3196,-6.2256,-6.0536,-6.038,-6.0097,-5.9207,-5.9099,-5.9099,-5.9099,-5.9099,-5.9099,-5.9099,-5.9099,-5.9099,-5.9099,-5.9099,-5.9099,-5.9099,-5.9099,-5.9842,-6.1286,-6.1959,-6.2875,-6.3894,-6.3894,-6.3705,-6.3292,-6.2583,-6.194,-6.1286,-6.1286,-6.0877,-6.039,-6.1759,-6.1891,-6.1387,-6.204,-6.164,-6.0825,-6.1909,-6.1589,-6.0928,-6.2386,-6.334,-6.3941,-6.4314,-6.4897,-6.5425,-6.5425,-6.5425,-6.5425,-6.5425,-6.5425,-6.5425,-6.5425,-6.5425,-6.5425,-6.5425,-6.5425,-6.5425,-6.5425,-6.5123,-6.4852,-6.4852,-6.4545,-6.4281,-6.4281,-6.372,-6.334,-6.334,-6.2386,-6.174,-6.174,-6.0558,-5.9792,-5.9792,-5.8927,-5.8381,-5.8381,-5.7992,-5.7752,-5.7752,-5.7334,-5.7004,-5.6765,-5.6765,-5.6256,-5.5179,-5.5179,-5.5179,-5.5179,-5.5179,-5.5179,-6.6812,-6.6812,-6.6812,-6.6812,-6.6812,-6.6812,-6.6812,-6.6812,-6.6812,-6.6812,-6.6812,-6.6812,-6.6812,-6.6812,-6.6812,-6.6812,-6.6235,-6.5559,-6.4992,-6.4401,-6.3339,-6.1426,-6.1173,-6.064,-5.9369,-5.9153,-5.9189,-5.9428,-5.9428,-5.9548,-5.9757,-5.9787,-5.9668,-5.9428,-5.9428,-5.9338,-5.9099,-5.9099,-5.966,-6.0671,-6.179,-6.2875,-6.3894,-6.4221,-6.4407,-6.4314,-6.326,-6.2238,-6.1286,-6.164,-6.1133,-6.039,-6.2502,-6.2729,-6.1891,-6.2972,-6.268,-6.1891,-6.2583,-6.2139,-6.1337,-6.2058,-6.2778,-6.3436,-6.38,-6.4393,-6.4988,-6.5336,-6.5425,-6.5425,-6.5425,-6.5425,-6.5425,-6.5425,-6.5425,-6.5425,-6.5425,-6.5425,-6.5425,-6.5425,-6.5425,-6.5425,-6.5425,-6.5425,-6.5425,-6.5425,-6.4852,-6.4407,-6.4407,-6.3483,-6.2826,-6.2826,-6.1891,-6.1235,-6.1235,-6.0233,-5.966,-5.966,-5.8894,-5.8471,-5.8471,-5.8022,-5.7663,-5.7453,-5.7453,-5.6915,-5.5837,-5.5628,-5.5538,-5.5508,-5.5299,-5.5179,0.0,0.0,0.0,-6.6812,-6.6812,-6.6812,-6.6812,-6.6812,-6.6812,-6.6812,-6.6812,-6.6812,-6.6812,-6.6812,-6.6812,-6.6812,-6.6812,-6.6363,-6.5126,-6.5171,-6.4401,-6.1909,-6.1589,-6.1031,-5.966,-5.9261,-5.9398,-6.0027,-6.0116,-6.0416,-6.1074,-6.1104,-6.0805,-6.0146,-6.0116,-5.9787,-5.9129,-5.9129,-5.9606,-6.0701,-6.179,-6.2826,-6.3894,-6.4943,-6.5425,-6.5381,-6.436,-6.334,-6.2485,-6.3436,-6.3244,-6.2453,-6.4545,-6.4715,-6.3988,-6.4988,-6.4761,-6.3894,-6.3894,-6.3196,-6.2306,-6.2306,-6.2306,-6.2534,-6.3578,-6.3894,-6.4128,-6.5123,-6.5425,-6.5425,-6.5425,-6.5425,-6.5425,-6.5425,-6.5425,-6.5425,-6.5425,-6.5425,-6.5425,-6.5425,-6.5425,-6.5425,-6.5425,-6.5425,-6.5425,-6.5425,-6.5425,-6.5425,-6.5425,-6.4499,-6.3894,-6.3941,-6.2972,-6.2306,-6.2306,-6.1337,-6.0701,-6.065,-5.9713,-5.9099,-5.9099,-5.9099,-5.88,-5.8171,-5.8141,-5.7812,-5.7154,-5.6496,-5.6248,-5.6248,-5.5538,-5.5239,-6.6812,0.0,0.0,0.0,0.0,0.0,-6.6812,-6.6812,-6.6812,-6.6812,-6.6812,-6.6812,-6.6812,-6.6812,-6.6812,-6.6812,-6.6812,-6.6686,-6.632,-6.6354,-6.5767,-6.4137,-6.3148,-6.2076,-6.0743,-6.0106,-5.9877,-6.0086,-6.0535,-6.0894,-6.1104,-6.1104,-6.1014,-6.0835,-6.0835,-6.0505,-5.9817,-5.9817,-5.9741,-5.9553,-6.1438,-6.2485,-6.2826,-6.4591,-6.5425,-6.5381,-6.5123,-6.4852,-6.442,-6.326,-6.2139,-6.1286,-6.26,-6.2972,-6.2875,-6.3941,-6.4128,-6.3894,-6.3894,-6.3196,-6.2306,-6.2306,-6.2826,-6.3483,-6.38,-6.4407,-6.5033,-6.5303,-6.5425,-6.5425,-6.5425,-6.5425,-6.5425,-6.5425,-6.5425,-6.5425,-6.5425,-6.5425,-6.5425,-6.5425,-6.5425,-6.5425,-6.5425,-6.5425,-6.5425,-6.5425,-6.5425,-6.5425,-6.5425,-6.4499,-6.4175,-6.4897,-6.3356,-6.2306,-6.2306,-6.1337,-6.0337,-5.9606,-5.9261,-5.9099,-5.9099,-5.9099,-5.9009,-5.883,-5.883,-5.874,-5.853,-5.7393,-5.6825,-5.6825,-5.6645,-5.6316,-6.6812,-6.6812,-6.6812,-6.6812,0.0,0.0,-6.6812,-6.6812,-6.6812,-6.6812,-6.6812,-6.6812,-6.6812,-6.6812,-6.6812,-6.6812,-6.6812,-6.6812,-6.6812,-6.6812,-6.6397,-6.5171,-6.4322,-6.3388,-6.2405,-6.1877,-6.1615,-6.1662,-6.2031,-6.2173,-6.1912,-6.1942,-6.1822,-6.1523,-6.1523,-6.1194,-6.0505,-6.0236,-5.9877,-5.9518,-6.098,-6.164,-6.169,-6.3356,-6.4096,-6.4142,-6.4591,-6.4761,-6.4715,-6.3909,-6.2972,-6.2139,-6.3212,-6.3068,-6.2453,-6.3955,-6.4268,-6.3941,-6.436,-6.4096,-6.3499,-6.3116,-6.3388,-6.3894,-6.3894,-6.4314,-6.4852,-6.5258,-6.5425,-6.5425,-6.5425,-6.5425,-6.5425,-6.5425,-6.5425,-6.5425,-6.5425,-6.5425,-6.5425,-6.5425,-6.5425,-6.5425,-6.5425,-6.5425,-6.5425,-6.5425,-6.5425,-6.5425,-6.5425,-6.4897,-6.4761,-6.5336,-6.4328,-6.3593,-6.3593,-6.2207,-6.1082,-6.0494,-5.9606,-5.9099,-5.9099,-5.9099,-5.9099,-5.9099,-5.9099,-5.9099,-5.9099,-5.8052,-5.7363,-5.7094,-5.7094,-5.6885,-6.6812,-6.6812,0.0,-6.6812,-6.6812,0.0,-6.6812,-6.6812,-6.6812,-6.6812,-6.6812,-6.6812,-6.6812,-6.6812,-6.6812,-6.6812,-6.6812,-6.6812,-6.6812,-6.6812,-6.6482,-6.5592,-6.5126,-6.4754,-6.4336,-6.4009,-6.381,-6.3819,-6.3787,-6.3518,-6.3107,-6.3079,-6.281,-6.2211,-6.2211,-6.1938,-6.1391,-6.0651,-6.0376,-6.0396,-6.0691,-6.0794,-6.0845,-6.1872,-6.2306,-6.2355,-6.3436,-6.3894,-6.3988,-6.4988,-6.4806,-6.3988,-6.4897,-6.4096,-6.2729,-6.4545,-6.4669,-6.4035,-6.5033,-6.5336,-6.5078,-6.4314,-6.4081,-6.4081,-6.4081,-6.4081,-6.4221,-6.5123,-6.5425,-6.5425,-6.5425,-6.5425,-6.5425,-6.5425,-6.5425,-6.5425,-6.5425,-6.5425,-6.5425,-6.5425,-6.5425,-6.5425,-6.5425,-6.5425,-6.5425,-6.5425,-6.5425,-6.5425,-6.5425,-6.5303,-6.5291,-6.5381,-6.5336,-6.5213,-6.5213,-6.3546,-6.2436,-6.2306,-6.0494,-5.9392,-5.9315,-5.9261,-5.9207,-5.9099,-5.9099,-5.9099,-5.9099,-5.853,-5.7902,-5.7304,-5.7304,-5.7274,-6.6812,-6.6812,-6.6812,-6.6812,-6.6812,0.0,-6.6812,-6.6812,-6.6812,-6.6812,-6.6812,-6.6812,-6.6812,-6.6812,-6.6812,-6.6812,-6.6812,-6.6812,-6.6812,-6.6812,-6.6728,-6.6525,-6.5559,-6.5074,-6.5567,-6.4964,-6.4417,-6.4079,-6.3553,-6.3216,-6.3137,-6.3079,-6.3019,-6.2899,-6.2869,-6.3052,-6.3268,-6.2238,-6.1906,-6.225,-6.1765,-6.148,-6.1532,-6.2041,-6.2306,-6.2355,-6.3436,-6.3894,-6.3988,-6.4988,-6.4806,-6.3894,-6.4128,-6.3941,-6.3658,-6.4035,-6.4081,-6.4035,-6.5033,-6.4852,-6.4268,-6.4897,-6.5123,-6.5123,-6.5123,-6.5123,-6.5123,-6.5303,-6.5425,-6.5425,-6.5425,-6.5425,-6.5425,-6.5425,-6.5425,-6.5425,-6.5425,-6.5425,-6.5425,-6.5425,-6.5425,-6.5425,-6.5425,-6.5425,-6.5425,-6.5425,-6.5425,-6.5425,-6.5425,-6.4715,-6.4499,-6.5303,-6.4669,-6.4175,-6.4175,-6.3847,-6.3244,-6.2355,-6.194,-6.1286,-6.0442,-6.039,-6.0,-5.9099,-5.9099,-5.9099,-5.9099,-5.8979,-5.883,-5.871,-5.871,-5.8441,-6.6812,-6.6812,-6.6812,-6.6812,-6.6812,0.0,0.0,-6.6812,-6.6812,-6.6812,-6.6812,-6.6812,-6.6812,-6.6812,-6.6812,-6.6812,-6.6812,-6.6812,-6.6812,-6.6812,-6.6812,-6.6812,-6.6537,-6.6645,-6.7278,-6.7161,-6.6514,-6.5355,-6.4439,-6.3649,-6.3137,-6.3079,-6.3079,-6.3079,-6.3079,-6.3186,-6.3447,-6.2525,-6.225,-6.2469,-6.1747,-6.1207,-6.0897,-6.1116,-6.1009,-6.0774,-6.1841,-6.2288,-6.2436,-6.4002,-6.436,-6.3941,-6.4453,-6.4314,-6.3941,-6.4453,-6.4314,-6.4035,-6.5033,-6.5078,-6.4761,-6.5213,-6.5425,-6.5425,-6.5425,-6.5425,-6.5425,-6.5425,-6.5425,-6.5425,-6.5425,-6.5425,-6.5425,-6.5425,-6.5425,-6.5425,-6.5425,-6.5425,-6.5425,-6.5425,-6.5425,-6.5425,-6.5425,-6.5425,-6.5425,-6.5425,-6.5425,-6.5425,-6.5425,-6.4943,-6.4852,-6.5381,-6.4943,-6.4669,-6.4669,-6.4175,-6.3705,-6.3148,-6.2583,-6.2058,-6.1539,-6.1489,-6.1235,-6.0701,-6.0701,-6.0442,-5.9895,-5.9895,-5.9606,-5.9099,-5.9099,-5.8919,-6.6812,-6.6812,-6.6812,-6.6812,-6.6812,-6.6812,0.0,0.0,0.0,-6.6812,-6.6812,-6.6812,-6.6812,-6.6812,-6.688,-6.7015,-6.6914,-6.6914,-6.7218,-6.7117,-6.7015,-6.7015,-6.7658,-6.835,-6.8951,-6.9221,-6.8624,-6.6938,-6.5575,-6.4376,-6.3451,-6.3222,-6.3079,-6.3079,-6.3079,-6.3194,-6.3394,-6.2852,-6.2694,-6.2889,-6.2031,-6.1318,-6.0776,-6.0316,-5.9787,-5.9333,-6.0294,-6.0701,-6.0908,-6.3004,-6.3894,-6.3988,-6.4988,-6.4897,-6.4268,-6.5078,-6.4761,-6.4035,-6.5033,-6.5258,-6.5123,-6.5336,-6.5425,-6.5425,-6.5425,-6.5425,-6.5425,-6.5425,-6.5425,-6.5425,-6.5425,-6.5425,-6.5425,-6.5425,-6.5425,-6.5425,-6.5425,-6.5425,-6.5425,-6.5425,-6.5425,-6.5425,-6.5425,-6.5425,-6.5425,-6.5425,-6.5425,-6.5425,-6.5425,-6.5425,-6.5425,-6.5425,-6.5425,-6.5425,-6.5425,-6.4669,-6.4175,-6.4175,-6.3356,-6.2826,-6.2632,-6.2436,-6.2306,-6.2306,-6.2306,-6.1859,-6.0979,-6.0979,-6.0337,-5.9099,-5.9099,-5.9099,-6.6812,-6.6812,-6.6812,-6.6812,-6.6812,-6.6812,-6.6812,0.0,-6.6812,-6.6812,0.0,-6.6812,-6.6812,0.0,0.0,-6.7658,-6.7252,-6.7286,-6.8639,-6.8233,-6.7793,-6.7793,-6.847,-6.9248,-6.9948,-6.9556,-6.8958,-6.8321,-6.6291,-6.4923,-6.4512,-6.3592,-6.3079,-6.3079,-6.3079,-6.3535,-6.4512,-6.4451,-6.494,-6.5878,-6.429,-6.3463,-6.3285,-6.1091,-6.0057,-5.9992,-6.0508,-6.0701,-6.0908,-6.3004,-6.3894,-6.3988,-6.4988,-6.5336,-6.5213,-6.5381,-6.4761,-6.4035,-6.5033,-6.4806,-6.4221,-6.5123,-6.5425,-6.5425,-6.5425,-6.5425,-6.5425,-6.5425,-6.5425,-6.5425,-6.5425,-6.5425,-6.5425,-6.5425,-6.5425,-6.5425,-6.5425,-6.5425,-6.5425,-6.5425,-6.5425,-6.5425,-6.5425,-6.5425,-6.5425,-6.5425,-6.5425,-6.5425,-6.5425,-6.5425,-6.5425,-6.5425,-6.5425,-6.5425,-6.5425,-6.5336,-6.5213,-6.5213,-6.5123,-6.4636,-6.3753,-6.2826,-6.2306,-6.2306,-6.2306,-6.2207,-6.2108,-6.2108,-6.1082,-5.9099,-5.9099,-5.9099,-6.6812,-6.6812,-6.6812,-6.6812,-6.6812,-6.6812,-6.6812,-6.6812,-6.6812,-6.6812,0.0,0.0,0.0,0.0,0.0,0.0,-6.803,-6.8368,-6.9011,-6.918,-6.9079,-6.8639,-6.9282,-6.9982,-7.0558,-7.036,-6.9713,-6.8568,-6.699,-6.5705,-6.4789,-6.3706,-6.3079,-6.3079,-6.3079,-6.3337,-6.3732,-6.3732,-6.432,-6.5413,-6.4676,-6.4149,-6.3749,-6.2707,-6.1437,-6.0111,-6.0301,-6.0152,-5.9895,-6.1387,-6.204,-6.2139,-6.3212,-6.4328,-6.5425,-6.5425,-6.5123,-6.4852,-6.5258,-6.5123,-6.4852,-6.5258,-6.5425,-6.5425,-6.5425,-6.5425,-6.5425,-6.5425,-6.5425,-6.5425,-6.5425,-6.5425,-6.5425,-6.5425,-6.5425,-6.5425,-6.5425,-6.5425,-6.5425,-6.5425,-6.5425,-6.5425,-6.5425,-6.5425,-6.5425,-6.5425,-6.5425,-6.5425,-6.5425,-6.5425,-6.5425,-6.5425,-6.5425,-6.5425,-6.5425,-6.5425,-6.5425,-6.5425,-6.5425,-6.5213,-6.4806,-6.4328,-6.4096,-6.4096,-6.4096,-6.3815,-6.3244,-6.3244,-6.2436,-6.0928,-6.0337,-5.9683,-6.6397,-6.6567,-6.6812,-6.6812,-6.6812,-6.6812,-6.6812,-6.6812,-6.6812,-6.6812,-6.6981,0.0,0.0,0.0,-6.8301,-6.8504,0.0,-6.9248,-6.9654,-6.9992,-6.9992,-6.9451,-7.006,-7.0613,-7.0973,-7.1007,-7.0469,-6.9138,-6.7737,-6.6417,-6.525,-6.3845,-6.3079,-6.3079,-6.3079,-6.3079,-6.3079,-6.3394,-6.4071,-6.5142,-6.5142,-6.4979,-6.4514,-6.4004,-6.2659,-6.0625,-6.0236,-5.9817,-5.9447,-6.0324,-6.0701,-6.0774,-6.1891,-6.3404,-6.4988,-6.4988,-6.5168,-6.5425,-6.5425,-6.5425,-6.5425,-6.5425,-6.5425,-6.5425,-6.5425,-6.5425,-6.5425,-6.5425,-6.5425,-6.5425,-6.5425,-6.5425,-6.5425,-6.5425,-6.5425,-6.5425,-6.5425,-6.5425,-6.5425,-6.5425,-6.5425,-6.5425,-6.5425,-6.5425,-6.5425,-6.5425,-6.5425,-6.5425,-6.5425,-6.5425,-6.5425,-6.5425,-6.5425,-6.5425,-6.5425,-6.5425,-6.5258,-6.4988,-6.4988,-6.4988,-6.4988,-6.4988,-6.5123,-6.5381,-6.5425,-6.5033,-6.4314,-6.4314,-6.3768,-6.2729,-6.1659,-6.065,-6.5337,-6.6062,-6.6812,-6.6812,-6.6812,-6.6812,-6.6812,-6.6812,-6.6812,-6.6812,-6.7387,-6.7861,-6.7861,-6.8504,-6.9316,-6.9992,-6.9553,0.0,0.0,-7.0635,-7.0195,-7.0161,-7.0804,-7.1278,-7.1267,-7.1267,-7.1052,-7.0469,-6.8437,-6.6938,-6.6375,-6.4295,-6.3079,-6.3079,-6.3079,-6.3079,-6.3079,-6.4097,-6.5196,-6.6375,-6.6375,-6.6375,-6.6259,-6.4599,-6.3177,-6.1942,-6.0655,-6.0086,-6.0106,-6.0508,-6.0701,-6.0774,-6.1891,-6.2972,-6.3941,-6.3941,-6.4577,-6.5425,-6.5425,-6.5425,-6.5425,-6.5425,-6.5425,-6.5425,-6.5425,-6.5425,-6.5425,-6.5425,-6.5425,-6.5425,-6.5425,-6.5425,-6.5425,-6.5425,-6.5425,-6.5425,-6.5425,-6.5425,-6.5425,-6.5425,-6.5425,-6.5425,-6.5425,-6.5425,-6.5425,-6.5425,-6.5425,-6.5425,-6.5425,-6.5425,-6.5425,-6.5425,-6.5425,-6.5425,-6.5425,-6.5425,-6.4988,-6.3988,-6.3941,-6.3941,-6.3941,-6.3941,-6.4439,-6.5381,-6.5425,-6.5381,-6.5381,-6.5381,-6.4852,-6.3847,-6.294,-6.2009,-6.5114,-6.5548,-6.5975,-6.661,-6.6812,-6.6812,-6.6812,-6.7184,-6.7523,-6.7523,-6.8166,-6.8707,-6.8707,-6.9316,-6.9891,0.0,0.0,-7.0737,0.0,-7.1109,-7.0939,-7.0939,-7.1142,-7.1312,-7.1312,-7.1312,-7.1052,-7.0515,-6.9154,-6.7737,-6.648,-6.4954,-6.3845,-6.3137,-6.3079,-6.3079,-6.3079,-6.3421,-6.4153,-6.525,-6.525,-6.5683,-6.6375,-6.5033,-6.396,-6.3177,-6.192,-6.0924,-6.0111,-6.0253,-6.0052,-5.9713,-6.0053,-6.0856,-6.194,-6.3388,-6.4531,-6.5425,-6.5425,-6.5425,-6.5425,-6.5425,-6.5425,-6.5425,-6.5425,-6.5425,-6.5425,-6.5425,-6.5425,-6.5425,-6.5425,-6.5425,-6.5425,-6.5425,-6.5425,-6.5425,-6.5425,-6.5425,-6.5425,-6.5425,-6.5425,-6.5425,-6.5425,-6.5425,-6.5425,-6.5425,-6.5425,-6.5425,-6.5425,-6.5425,-6.5425,-6.5425,-6.5425,-6.5425,-6.5425,-6.5425,-6.5258,-6.4897,-6.4897,-6.4897,-6.4897,-6.4897,-6.5033,-6.5381,-6.4761,-6.4852,-6.5647,-6.4806,-6.4728,-6.5359,-6.5024,-6.3891,-6.4031,-6.4492,-6.4967,-6.5847,-6.6124,-6.6278,-6.6886,-6.741,-6.7877,-6.8215,-6.8944,-6.9485,-6.9485,-7.0094,-7.0601,0.0,0.0,0.0,0.0,-7.1312,-7.1312,-7.1312,-7.1312,-7.1312,-7.1312,-7.1312,-7.1131,-7.0687,-6.9556,-6.8371,-6.7208,-6.5575,-6.4376,-6.3706,-6.3279,-6.3079,-6.3079,-6.3079,-6.3649,-6.4734,-6.4734,-6.5087,-6.579,-6.5032,-6.4298,-6.3487,-6.2521,-6.1613,-6.0745,-6.0296,-5.9847,-5.9428,-5.9189,-5.9766,-6.0877,-6.2238,-6.3673,-6.4897,-6.5291,-6.5425,-6.5425,-6.5425,-6.5425,-6.5425,-6.5425,-6.5425,-6.5425,-6.5425,-6.5425,-6.5425,-6.5425,-6.5425,-6.5425,-6.5425,-6.5425,-6.5425,-6.5425,-6.5425,-6.5425,-6.5425,-6.5425,-6.5425,-6.5425,-6.5425,-6.5425,-6.5425,-6.5425,-6.5425,-6.5425,-6.5425,-6.5425,-6.5425,-6.5425,-6.5425,-6.5425,-6.5425,-6.5213,-6.4897,-6.4852,-6.4852,-6.4852,-6.4852,-6.5297,-6.6142,-6.5023,-6.5115,-6.6445,-6.5115,-6.491,-6.5834,-6.5922,-6.5237]},{"header":{"parameterUnit":"m.s-1","parameterCategory":1,"la1":30.6,"la2":29.2853,"lo1":-89.7004,"lo2":-87.6739,"dy":0.0162,"dx":0.0183,"nx":112,"ny":82,"refTime":"2024-04-12T18:00:00:Z","depth":0,"parameterNumber":3,"parameterNumberName":"V-component_of_WINDS"},"data":[0.0,0.0,0.0,0.0,0.0,0.0,0.0,0.0,0.0,0.0,0.0,0.0,0.0,0.0,0.0,0.0,0.0,0.0,0.0,0.0,0.0,0.0,0.0,0.0,0.0,0.0,0.0,0.0,0.0,0.0,0.0,0.0,0.0,0.0,0.0,0.0,0.0,0.0,0.0,0.0,0.0,0.0,0.0,0.0,0.0,0.0,0.0,0.0,0.0,0.0,0.0,0.0,0.0,0.0,0.0,0.0,0.0,0.0,0.0,0.0,0.0,0.0,0.0,0.0,0.0,0.0,0.0,0.0,0.0,0.0,0.0,0.0,0.0,0.0,0.0,0.0,0.0,0.0,0.0,0.0,0.0,0.0,0.0,0.0,0.0,0.0,0.0,0.0,0.0,0.0,3.13,3.13,3.13,3.13,3.13,3.13,3.0685,2.9386,0.0,0.0,0.0,0.0,0.0,0.0,0.0,0.0,0.0,0.0,0.0,0.0,0.0,0.0,0.0,0.0,0.0,0.0,0.0,0.0,0.0,0.0,0.0,0.0,0.0,0.0,0.0,0.0,0.0,0.0,0.0,0.0,0.0,0.0,0.0,0.0,0.0,0.0,0.0,0.0,0.0,0.0,0.0,0.0,0.0,0.0,0.0,0.0,0.0,0.0,0.0,0.0,0.0,0.0,0.0,0.0,0.0,0.0,0.0,0.0,0.0,0.0,0.0,0.0,0.0,0.0,0.0,0.0,0.0,0.0,0.0,0.0,0.0,0.0,0.0,0.0,0.0,0.0,0.0,0.0,0.0,0.0,0.0,0.0,0.0,0.0,0.0,0.0,0.0,0.0,0.0,0.0,0.0,0.0,0.0,0.0,0.0,0.0,0.0,0.0,0.0,0.0,0.0,0.0,3.13,3.13,3.13,3.13,3.13,3.13,3.1223,3.0916,0.0,0.0,0.0,0.0,0.0,0.0,0.0,0.0,0.0,0.0,0.0,0.0,0.0,0.0,0.0,0.0,0.0,0.0,0.0,0.0,0.0,0.0,0.0,0.0,0.0,0.0,0.0,0.0,0.0,0.0,0.0,0.0,0.0,0.0,0.0,0.0,0.0,0.0,0.0,0.0,0.0,0.0,0.0,0.0,0.0,0.0,0.0,0.0,0.0,0.0,0.0,0.0,0.0,0.0,0.0,0.0,0.0,0.0,0.0,0.0,0.0,0.0,0.0,0.0,0.0,0.0,0.0,0.0,0.0,0.0,0.0,0.0,0.0,0.0,0.0,0.0,0.0,0.0,0.0,0.0,0.0,0.0,0.0,0.0,0.0,0.0,0.0,0.0,0.0,0.0,0.0,0.0,0.0,0.0,0.0,0.0,0.0,0.0,0.0,0.0,0.0,0.0,0.0,3.4278,3.4354,3.4579,3.4579,3.4579,3.4579,3.4579,3.4128,3.3053,3.2293,0.0,0.0,0.0,0.0,0.0,0.0,0.0,0.0,0.0,0.0,0.0,0.0,0.0,0.0,0.0,0.0,0.0,0.0,0.0,0.0,0.0,0.0,0.0,0.0,0.0,0.0,0.0,0.0,0.0,0.0,0.0,0.0,0.0,0.0,0.0,0.0,0.0,0.0,0.0,0.0,0.0,0.0,0.0,0.0,0.0,0.0,0.0,0.0,0.0,0.0,0.0,0.0,0.0,0.0,0.0,0.0,0.0,0.0,0.0,0.0,0.0,0.0,0.0,0.0,0.0,0.0,0.0,0.0,0.0,0.0,0.0,0.0,0.0,0.0,0.0,0.0,0.0,0.0,0.0,0.0,0.0,0.0,0.0,0.0,0.0,0.0,0.0,0.0,0.0,0.0,0.0,0.0,0.0,0.0,0.0,0.0,0.0,0.0,0.0,0.0,0.0,0.0,3.696,3.7034,3.7347,3.7421,3.7421,3.7421,3.7421,3.6719,3.5196,3.5121,0.0,0.0,0.0,0.0,0.0,0.0,0.0,0.0,0.0,0.0,0.0,0.0,0.0,0.0,0.0,0.0,0.0,0.0,0.0,0.0,0.0,0.0,0.0,0.0,0.0,0.0,0.0,0.0,0.0,0.0,0.0,0.0,0.0,0.0,0.0,0.0,0.0,0.0,0.0,0.0,0.0,0.0,0.0,0.0,0.0,0.0,0.0,0.0,0.0,0.0,0.0,0.0,0.0,0.0,0.0,0.0,0.0,0.0,0.0,0.0,0.0,0.0,0.0,0.0,0.0,0.0,0.0,0.0,0.0,0.0,0.0,0.0,0.0,0.0,0.0,0.0,0.0,0.0,0.0,0.0,0.0,0.0,0.0,0.0,0.0,0.0,0.0,0.0,0.0,0.0,0.0,0.0,0.0,0.0,0.0,0.0,0.0,0.0,0.0,0.0,0.0,0.0,3.7329,3.7347,3.7421,3.7421,3.7421,3.7421,3.7421,3.7329,3.7181,3.7181,0.0,0.0,0.0,0.0,0.0,0.0,0.0,0.0,0.0,0.0,0.0,0.0,0.0,0.0,0.0,0.0,0.0,0.0,0.0,0.0,0.0,0.0,0.0,0.0,0.0,0.0,0.0,0.0,0.0,0.0,0.0,0.0,0.0,0.0,0.0,0.0,0.0,0.0,0.0,0.0,0.0,0.0,0.0,0.0,0.0,0.0,0.0,0.0,0.0,0.0,0.0,0.0,0.0,0.0,0.0,0.0,0.0,0.0,0.0,0.0,0.0,0.0,0.0,0.0,0.0,0.0,0.0,0.0,0.0,0.0,0.0,0.0,0.0,0.0,0.0,0.0,0.0,0.0,0.0,0.0,0.0,0.0,0.0,0.0,0.0,0.0,0.0,0.0,0.0,0.0,0.0,0.0,0.0,0.0,0.0,0.0,0.0,0.0,0.0,0.0,0.0,0.0,3.7789,3.7862,3.8136,3.8136,3.8136,3.8136,3.8136,3.8063,3.7789,0.0,0.0,0.0,0.0,0.0,0.0,0.0,0.0,0.0,0.0,0.0,0.0,0.0,0.0,0.0,0.0,0.0,0.0,0.0,0.0,0.0,0.0,0.0,0.0,0.0,0.0,0.0,0.0,0.0,0.0,0.0,0.0,0.0,0.0,0.0,0.0,0.0,0.0,0.0,0.0,0.0,0.0,0.0,0.0,0.0,0.0,0.0,0.0,0.0,0.0,0.0,0.0,0.0,0.0,0.0,0.0,0.0,0.0,0.0,0.0,0.0,0.0,0.0,0.0,0.0,0.0,0.0,0.0,0.0,0.0,0.0,0.0,0.0,0.0,0.0,0.0,0.0,0.0,0.0,0.0,0.0,0.0,0.0,0.0,0.0,0.0,0.0,0.0,0.0,0.0,0.0,0.0,0.0,0.0,0.0,0.0,0.0,0.0,0.0,0.0,0.0,0.0,3.8155,3.8228,3.8302,3.8574,3.8574,3.8574,3.8574,3.8574,3.8501,3.8228,0.0,0.0,0.0,0.0,0.0,0.0,0.0,0.0,0.0,0.0,0.0,0.0,0.0,0.0,0.0,0.0,0.0,0.0,0.0,0.0,0.0,0.0,0.0,0.0,0.0,0.0,0.0,0.0,0.0,0.0,0.0,0.0,0.0,0.0,0.0,0.0,0.0,0.0,0.0,0.0,0.0,0.0,0.0,0.0,0.0,0.0,0.0,0.0,0.0,0.0,0.0,0.0,0.0,0.0,0.0,0.0,0.0,0.0,0.0,0.0,0.0,0.0,0.0,0.0,0.0,0.0,0.0,0.0,0.0,0.0,0.0,0.0,0.0,0.0,0.0,0.0,0.0,0.0,0.0,0.0,0.0,0.0,0.0,0.0,0.0,0.0,0.0,0.0,0.0,0.0,0.0,0.0,0.0,0.0,0.0,0.0,0.0,0.0,0.0,0.0,0.0,0.0,3.8574,3.8574,3.8574,3.8574,3.8574,3.8574,3.8574,3.8574,3.8574,0.0,0.0,0.0,0.0,0.0,0.0,0.0,0.0,0.0,0.0,0.0,0.0,0.0,0.0,0.0,0.0,0.0,0.0,0.0,0.0,0.0,0.0,0.0,0.0,0.0,0.0,0.0,0.0,0.0,0.0,0.0,0.0,0.0,0.0,0.0,0.0,0.0,0.0,0.0,0.0,0.0,0.0,0.0,0.0,0.0,0.0,0.0,0.0,0.0,0.0,0.0,0.0,0.0,0.0,0.0,0.0,0.0,0.0,0.0,0.0,0.0,0.0,0.0,0.0,0.0,0.0,0.0,0.0,0.0,0.0,0.0,0.0,0.0,0.0,0.0,0.0,0.0,0.0,0.0,0.0,0.0,0.0,0.0,0.0,0.0,0.0,0.0,0.0,0.0,0.0,0.0,0.0,0.0,0.0,0.0,0.0,0.0,0.0,0.0,0.0,0.0,0.0,0.0,3.8574,3.8574,3.8574,3.8574,3.8574,3.8574,3.8574,3.8574,3.8574,3.8574,0.0,0.0,0.0,0.0,0.0,0.0,0.0,0.0,0.0,0.0,0.0,0.0,0.0,0.0,0.0,0.0,0.0,0.0,0.0,0.0,0.0,0.0,0.0,0.0,0.0,0.0,0.0,0.0,0.0,0.0,0.0,0.0,0.0,0.0,0.0,0.0,0.0,0.0,0.0,0.0,0.0,0.0,0.0,0.0,0.0,0.0,0.0,0.0,0.0,0.0,0.0,0.0,0.0,0.0,0.0,0.0,0.0,0.0,0.0,0.0,0.0,0.0,0.0,0.0,0.0,0.0,0.0,0.0,0.0,0.0,0.0,0.0,0.0,0.0,0.0,0.0,0.0,0.0,0.0,0.0,0.0,0.0,0.0,0.0,0.0,0.0,0.0,0.0,0.0,0.0,0.0,0.0,0.0,0.0,0.0,0.0,0.0,0.0,0.0,0.0,0.0,0.0,3.8574,3.8574,3.8574,3.8574,3.8418,3.832,3.832,3.8164,3.8066,3.8066,0.0,0.0,0.0,0.0,0.0,0.0,0.0,0.0,0.0,0.0,0.0,0.0,0.0,0.0,0.0,0.0,0.0,0.0,0.0,0.0,0.0,0.0,0.0,0.0,0.0,0.0,0.0,0.0,0.0,0.0,0.0,0.0,0.0,0.0,0.0,0.0,0.0,0.0,0.0,0.0,0.0,0.0,0.0,0.0,0.0,0.0,0.0,0.0,0.0,0.0,0.0,0.0,0.0,0.0,0.0,0.0,0.0,0.0,0.0,0.0,0.0,0.0,0.0,0.0,0.0,0.0,0.0,0.0,0.0,0.0,0.0,0.0,0.0,0.0,0.0,0.0,0.0,0.0,0.0,0.0,0.0,0.0,0.0,0.0,0.0,0.0,0.0,0.0,0.0,0.0,0.0,0.0,0.0,0.0,0.0,0.0,0.0,0.0,0.0,0.0,0.0,0.0,3.8516,3.8622,3.8602,3.8457,3.8105,3.7871,3.7871,3.7519,3.7305,3.7305,0.0,0.0,0.0,0.0,0.0,0.0,0.0,0.0,0.0,0.0,0.0,0.0,0.0,0.0,0.0,0.0,0.0,0.0,0.0,0.0,0.0,0.0,0.0,0.0,0.0,0.0,0.0,0.0,0.0,0.0,0.0,0.0,0.0,0.0,0.0,0.0,0.0,0.0,0.0,0.0,0.0,0.0,0.0,0.0,0.0,0.0,0.0,0.0,0.0,0.0,0.0,0.0,0.0,0.0,0.0,0.0,0.0,0.0,0.0,0.0,3.7696,3.7568,0.0,0.0,0.0,0.0,0.0,0.0,0.0,0.0,0.0,0.0,0.0,0.0,0.0,0.0,0.0,0.0,0.0,0.0,0.0,0.0,0.0,0.0,0.0,0.0,0.0,0.0,0.0,0.0,0.0,0.0,0.0,0.0,0.0,0.0,0.0,0.0,0.0,0.0,0.0,0.0,3.821,3.8728,3.8808,3.77,3.748,3.7422,3.7422,3.7344,3.7305,3.7305,3.7305,0.0,0.0,0.0,0.0,0.0,0.0,0.0,0.0,0.0,0.0,0.0,0.0,0.0,0.0,0.0,0.0,0.0,0.0,0.0,0.0,0.0,0.0,0.0,0.0,0.0,0.0,0.0,0.0,0.0,0.0,0.0,0.0,0.0,0.0,0.0,0.0,0.0,0.0,0.0,0.0,0.0,0.0,0.0,0.0,0.0,0.0,0.0,0.0,0.0,0.0,0.0,0.0,0.0,0.0,0.0,0.0,0.0,0.0,0.0,3.8136,3.8063,0.0,0.0,0.0,0.0,0.0,0.0,0.0,0.0,0.0,0.0,0.0,0.0,0.0,0.0,0.0,0.0,0.0,0.0,0.0,0.0,0.0,0.0,0.0,0.0,0.0,0.0,0.0,0.0,0.0,0.0,0.0,0.0,0.0,0.0,0.0,0.0,0.0,0.0,0.0,0.0,3.9667,4.0082,4.014,3.9406,3.9131,3.9007,3.9007,3.8801,3.8677,3.8677,3.8677,0.0,0.0,0.0,0.0,0.0,0.0,0.0,0.0,0.0,0.0,0.0,0.0,0.0,0.0,0.0,0.0,0.0,0.0,0.0,0.0,0.0,0.0,0.0,0.0,0.0,0.0,0.0,0.0,0.0,0.0,0.0,0.0,0.0,0.0,0.0,0.0,0.0,0.0,0.0,0.0,0.0,0.0,0.0,0.0,0.0,0.0,0.0,0.0,0.0,0.0,0.0,0.0,0.0,3.8574,3.8574,3.8574,3.8574,3.8574,3.8574,3.8574,3.8574,3.8574,3.8574,0.0,0.0,0.0,0.0,0.0,0.0,0.0,0.0,0.0,0.0,0.0,0.0,0.0,0.0,0.0,0.0,0.0,0.0,0.0,0.0,0.0,0.0,3.9044,3.9181,4.0198,4.0675,3.9421,0.0,0.0,0.0,0.0,0.0,0.0,0.0,0.0,0.0,0.0,0.0,4.1234,4.1571,4.1527,4.1305,4.0956,4.0716,4.0716,4.0432,4.0192,4.0192,4.0257,4.0257,0.0,0.0,0.0,0.0,0.0,0.0,0.0,0.0,0.0,0.0,0.0,0.0,0.0,0.0,0.0,0.0,0.0,0.0,0.0,0.0,0.0,0.0,0.0,0.0,0.0,0.0,0.0,0.0,0.0,0.0,0.0,0.0,3.8574,3.8574,0.0,0.0,0.0,0.0,0.0,0.0,0.0,0.0,0.0,0.0,0.0,0.0,0.0,3.8574,3.8574,3.8574,3.8574,3.8574,3.8574,3.8574,3.8574,3.8574,3.8574,3.8574,3.8574,0.0,3.8574,3.8574,0.0,0.0,0.0,0.0,0.0,0.0,0.0,0.0,0.0,0.0,0.0,0.0,0.0,0.0,0.0,0.0,0.0,0.0,0.0,0.0,0.0,0.0,4.0717,4.1631,4.196,4.1899,4.1216,4.0507,4.036,4.1545,4.0465,3.971,0.0,0.0,0.0,0.0,0.0,0.0,4.1,4.1631,4.1708,4.0519,4.0323,4.0301,4.0301,4.0236,4.0192,4.0192,4.0452,4.0516,4.0192,4.0516,0.0,0.0,0.0,0.0,0.0,0.0,0.0,0.0,0.0,0.0,0.0,0.0,0.0,0.0,0.0,0.0,0.0,0.0,0.0,0.0,0.0,0.0,0.0,0.0,0.0,0.0,0.0,0.0,0.0,3.8574,3.8574,3.8574,3.8574,3.8574,0.0,0.0,0.0,0.0,0.0,0.0,0.0,0.0,0.0,3.8574,3.8574,3.8574,3.8574,3.8574,3.8574,3.8574,3.8574,3.8574,3.8574,3.8574,3.8574,3.8574,3.8574,3.8574,3.8574,3.8574,3.8574,3.8574,0.0,0.0,0.0,0.0,3.8574,3.8574,3.8574,3.8574,3.8574,3.8574,0.0,0.0,0.0,0.0,0.0,0.0,0.0,4.0787,4.1071,4.1215,4.131,4.1711,4.248,4.3018,4.2816,4.226,4.1813,4.1828,4.1155,4.0754,4.1431,4.1259,0.0,0.0,0.0,4.291,4.3268,4.3671,4.374,4.3153,4.3091,4.3091,4.3091,4.3091,4.3091,4.3091,4.3216,4.3193,4.3091,4.3193,4.2816,0.0,0.0,0.0,0.0,0.0,0.0,0.0,0.0,0.0,0.0,0.0,0.0,0.0,0.0,0.0,0.0,0.0,0.0,0.0,0.0,0.0,0.0,0.0,0.0,0.0,0.0,0.0,0.0,3.8574,3.8574,3.8574,3.8574,3.872,0.0,0.0,0.0,0.0,0.0,0.0,3.8574,3.8574,3.8574,3.8574,3.8574,3.8574,3.8574,3.8991,3.9136,3.9208,3.955,3.9766,3.9766,3.9766,3.9766,3.9766,3.9766,3.9766,3.9694,3.8918,3.8574,3.8574,3.8574,3.8574,3.8574,3.8574,3.8865,3.9136,3.9136,3.9405,3.9766,3.9766,4.0381,4.1158,4.1102,0.0,0.0,0.0,0.0,4.232,4.2304,4.2349,4.2393,4.2591,4.3513,4.4272,4.4132,4.3869,4.3432,4.2545,4.2082,4.1905,4.2258,4.2141,0.0,4.3716,4.3577,4.3841,4.5147,4.5331,4.5331,4.5331,4.5331,4.5331,4.5331,4.5331,4.5331,4.5331,4.5392,4.5392,4.5331,4.5392,4.4878,4.3755,0.0,0.0,0.0,0.0,0.0,0.0,0.0,0.0,0.0,0.0,0.0,0.0,0.0,0.0,0.0,0.0,0.0,0.0,0.0,0.0,0.0,0.0,0.0,0.0,0.0,0.0,0.0,0.0,0.0,3.8574,3.8574,0.0,0.0,0.0,0.0,4.0586,3.9405,3.8574,3.8574,3.8574,3.8574,3.8574,3.8574,3.8574,3.8574,3.9962,4.0657,4.0728,4.2123,4.2753,4.2753,4.2753,4.2753,4.2753,4.2753,4.2753,4.2543,3.9766,3.8574,3.8574,3.8574,3.8574,3.8574,3.8574,3.9478,4.0657,4.0657,4.163,4.2753,4.2753,4.2518,4.222,4.2011,4.2014,0.0,0.0,4.2393,4.2726,4.4198,4.4524,4.473,4.5639,4.5917,4.5833,4.5319,4.5196,4.5158,4.4942,4.3702,4.3098,4.4395,0.0,4.511,4.5172,4.5147,4.5208,4.527,4.5331,4.5331,4.5331,4.5331,4.5331,4.5331,4.5331,4.5331,4.5331,4.5574,4.5635,4.5331,4.5635,4.5574,4.5208,4.5208,0.0,0.0,0.0,0.0,0.0,0.0,0.0,0.0,0.0,0.0,0.0,0.0,0.0,0.0,0.0,0.0,0.0,0.0,0.0,0.0,0.0,0.0,0.0,0.0,0.0,0.0,0.0,0.0,3.8574,3.8574,0.0,4.0657,4.032,4.0586,4.2123,4.17,4.1418,4.1418,4.1418,4.1418,4.1418,4.1418,4.1418,4.1418,4.1982,4.2193,4.2193,4.2753,4.3032,4.3032,4.3032,4.3032,4.3032,4.3032,4.3032,4.2892,4.1841,4.1418,4.1418,4.1418,4.1418,4.1418,4.1418,4.1771,4.215,4.185,4.2111,4.2667,4.3512,4.3687,4.3727,4.4789,4.5131,4.5124,4.4856,4.4761,4.4793,4.5011,4.5126,4.5202,4.5527,4.5626,4.549,4.538,4.5331,4.5257,4.5207,4.4753,4.4546,4.5025,4.5208,4.5392,4.5574,4.5635,4.5572,4.5465,4.5415,4.5266,4.4892,4.4867,4.4867,4.4867,4.4867,4.4867,4.4867,4.4985,4.516,4.539,4.5535,4.571,4.5939,4.5939,4.5939,0.0,0.0,0.0,0.0,0.0,0.0,0.0,0.0,0.0,0.0,0.0,0.0,0.0,0.0,0.0,0.0,0.0,0.0,0.0,0.0,0.0,0.0,0.0,0.0,0.0,3.8991,3.9333,3.9333,3.9766,4.0657,4.2193,4.1841,4.2193,4.3656,4.3309,4.3032,4.3032,4.3032,4.3032,4.3032,4.3032,4.3032,4.3032,4.3517,4.3794,4.3794,4.4276,4.4482,4.4482,4.4482,4.4482,4.4482,4.4482,4.4391,4.4233,4.4233,4.4143,4.3894,4.3247,4.2922,4.2791,4.2791,4.2958,4.326,4.3422,4.3533,4.3643,4.4389,4.4701,4.4911,4.6123,4.6513,4.6439,4.6217,4.618,4.6081,4.5734,4.5635,4.5635,4.5635,4.5487,4.5363,4.5363,4.5215,4.5066,4.5066,4.5179,4.5182,4.5182,4.5154,4.5126,4.539,4.539,4.536,4.5187,4.5196,4.5045,4.4669,4.4618,4.4618,4.4618,4.4618,4.4618,4.4618,4.4618,4.4794,4.5171,4.5196,4.5372,4.5748,4.5748,4.5748,4.5748,0.0,0.0,0.0,0.0,0.0,0.0,0.0,0.0,0.0,0.0,0.0,0.0,0.0,0.0,0.0,0.0,0.0,0.0,0.0,0.0,0.0,0.0,0.0,3.9136,3.9962,4.0871,4.0871,4.2123,4.3587,4.5142,4.3932,4.3725,4.5278,4.4001,4.3171,4.3171,4.3171,4.3171,4.3171,4.3171,4.3171,4.3171,4.4641,4.5346,4.5414,4.6808,4.7497,4.7497,4.7473,4.7473,4.7473,4.7473,4.7161,4.668,4.668,4.6391,4.5749,4.3871,4.2773,4.2379,4.2379,4.2973,4.3959,4.5372,4.5886,4.5854,4.5663,4.5619,4.5646,4.5784,4.5817,4.5878,4.618,4.6301,4.6301,4.6276,4.6276,4.6276,4.625,4.5849,4.5472,4.5472,4.502,4.4618,4.4618,4.4836,4.4948,4.4973,4.4761,4.4618,4.4618,4.4618,0.0,4.4593,4.4593,4.4593,4.4568,4.4568,4.4568,4.4568,4.4568,4.4568,4.4568,4.4568,4.4593,4.4593,4.4593,4.4593,4.4618,4.4618,4.4618,4.4618,0.0,0.0,0.0,0.0,0.0,0.0,0.0,0.0,0.0,0.0,0.0,0.0,0.0,0.0,0.0,0.0,0.0,0.0,0.0,0.0,0.0,4.2753,4.2753,4.1912,4.2123,4.2403,4.2403,4.2753,4.3587,4.5142,4.4914,4.5278,4.6808,4.6516,4.6248,4.6248,4.6248,4.6248,4.6248,4.6248,4.6248,4.6248,4.6674,4.6874,4.6874,4.7298,4.7497,4.7497,4.7112,4.692,4.692,4.6535,4.6271,4.615,4.6408,4.6375,4.6214,4.5421,4.5052,4.4935,4.4935,4.4801,4.4761,4.5167,4.5218,4.513,4.5355,4.5552,4.5772,4.6049,4.618,4.618,4.624,4.6301,4.6225,4.5824,4.5723,4.5598,4.5196,4.497,4.4869,4.4869,4.4744,4.4618,4.4618,4.4385,4.4277,4.4619,4.4661,4.4618,4.4618,4.4618,4.4468,4.4091,4.4016,4.3865,4.3463,4.3438,4.3438,4.3438,4.3438,4.3438,4.3438,4.3438,4.3614,4.4016,4.4016,4.4217,4.4618,4.4618,4.4618,0.0,0.0,0.0,0.0,0.0,0.0,0.0,0.0,0.0,0.0,0.0,0.0,0.0,0.0,0.0,0.0,0.0,0.0,0.0,0.0,0.0,0.0,4.4687,4.5028,4.4914,4.4344,4.3932,4.3932,4.4504,4.5255,4.6113,4.6248,4.6607,4.7431,4.7497,4.7497,4.7497,4.7497,4.7497,4.7497,4.7497,4.7497,4.7497,4.7497,4.7497,4.7497,4.7413,4.7292,4.7161,4.6762,4.652,4.6367,4.6183,4.5917,4.5597,4.6105,4.6085,4.575,0.0,0.0,0.0,0.0,4.5445,4.5178,4.5178,4.5108,4.5086,4.5392,4.5635,4.5878,4.618,4.615,4.5974,4.5974,4.5799,4.5522,4.5196,4.5121,4.5045,4.4694,4.4443,4.4267,4.4267,4.4091,4.394,4.394,4.3689,0.0,4.389,4.394,4.394,4.394,4.394,4.3815,4.3489,4.3463,4.3338,4.3011,4.2986,4.2986,4.2986,4.2986,0.0,0.0,0.0,4.3112,4.3438,4.3463,0.0,0.0,0.0,4.394,4.394,4.394,0.0,0.0,4.4418,4.4618,0.0,0.0,0.0,0.0,0.0,0.0,0.0,0.0,0.0,0.0,0.0,0.0,0.0,0.0,0.0,0.0,4.7184,4.796,4.763,4.6516,4.5617,4.5549,4.6741,4.7497,4.7497,4.7497,4.7497,4.7497,4.7497,4.7497,4.7497,4.7497,0.0,0.0,0.0,4.7497,4.7497,4.7449,4.7425,4.7401,4.7133,4.6891,4.6607,4.6399,4.6157,4.5902,4.6148,4.5857,4.517,4.5795,4.5625,4.5061,4.6263,4.6399,4.5932,4.5503,4.5331,4.5331,4.5331,0.0,0.0,4.5696,4.5768,4.5778,4.6105,4.5824,4.5397,4.5397,4.502,4.4618,4.4543,4.4543,4.4518,4.4443,4.4066,4.3714,4.3714,4.3313,4.2986,4.2986,4.2986,4.2986,4.2986,4.2986,4.2986,4.2986,4.2986,4.2986,4.2986,4.2986,4.2986,4.2986,4.2986,0.0,4.2986,4.2986,4.2986,4.2986,4.2986,4.2986,4.2986,4.2986,4.2986,4.2986,4.2986,4.2986,4.2986,4.2986,4.2986,4.3011,4.3991,4.4443,0.0,0.0,0.0,0.0,0.0,0.0,0.0,0.0,0.0,0.0,0.0,0.0,0.0,0.0,0.0,4.7894,4.8313,4.8445,4.8379,4.8116,4.7762,4.7165,4.7364,4.7497,4.7497,4.7497,4.7497,4.7497,4.7497,4.7497,4.7497,4.7497,4.7497,4.7497,4.7497,4.7497,4.7497,4.7064,4.6872,4.6848,4.6383,0.0,4.6054,4.5842,4.5726,4.5639,4.5575,4.5392,4.5294,4.5662,4.5917,4.5963,4.5674,4.5576,4.5417,4.538,4.5331,4.5331,4.5331,4.5453,4.5696,4.5757,4.57,4.5588,4.5648,4.5246,0.0,4.4794,4.4719,4.4518,4.4066,4.3966,4.384,4.3413,4.3212,4.3137,4.3137,4.3062,4.2986,4.2986,4.2986,4.2986,4.2986,4.2986,4.2986,4.2986,4.2986,4.2986,4.2986,4.2986,4.2986,4.2986,4.2986,4.2986,4.2986,4.2986,4.2986,4.2986,4.2986,4.2986,4.2986,4.2986,4.2986,4.2986,4.2986,4.2986,4.2986,4.2986,4.2986,4.2986,4.3187,4.3288,0.0,0.0,0.0,0.0,0.0,0.0,0.0,0.0,0.0,0.0,0.0,4.667,4.7557,0.0,4.8174,4.8747,4.8837,4.8772,4.86,4.86,4.8379,4.7828,4.7762,4.7762,4.7762,4.7762,4.7762,4.7762,4.7762,4.7696,4.7497,4.7497,4.7497,4.7497,4.7497,4.7497,4.7497,4.7233,4.6968,4.6704,4.6303,4.5917,4.5501,4.5285,4.5105,4.4981,4.5208,4.5208,4.5086,4.5574,4.5999,4.624,4.5939,4.5817,4.5817,4.5817,4.5817,4.5817,4.5817,4.5764,4.566,4.566,4.5404,4.5045,4.5045,4.4669,4.4217,4.4217,4.4016,4.374,4.3463,4.3388,4.3313,4.3037,4.2986,4.2986,4.2986,4.2986,4.2986,4.2986,4.2986,4.2986,4.2986,4.2986,4.2986,4.2986,4.2986,4.2986,4.2986,4.2986,4.2986,4.2986,4.2986,4.2986,4.2986,4.2986,4.2986,4.2986,4.2986,4.2986,4.2986,4.2986,4.2986,4.2986,4.2986,4.2986,4.2986,4.2986,4.2986,4.2986,4.2986,4.2986,0.0,0.0,0.0,0.0,0.0,0.0,0.0,4.7696,4.796,4.8092,4.8551,4.9007,4.9202,4.9396,4.9525,4.9267,4.9202,4.9072,4.8837,4.8772,4.8641,4.8289,4.8158,4.8092,4.8026,4.8026,4.796,4.7894,4.7894,4.7762,4.7497,4.7497,4.7497,4.7497,4.7563,4.763,4.763,4.7467,4.7154,4.6624,4.6287,4.5755,4.4972,4.4849,4.4656,4.4409,4.5086,4.527,4.5147,4.5696,4.6059,4.6301,4.6301,4.6301,4.6301,4.6301,4.6301,4.6301,4.6175,4.5849,4.5472,4.5347,4.492,4.4468,4.4468,4.4091,4.3639,4.3639,4.3313,4.2986,4.2986,4.2986,4.2986,4.2986,4.2986,4.2986,4.2986,4.2986,4.2986,4.2986,4.2986,4.2986,4.2986,4.2986,4.2986,4.2986,4.2986,4.2986,4.2986,4.2986,4.2986,4.2986,4.2986,4.2986,4.2986,4.2986,4.2986,4.2986,4.2986,4.2986,4.2986,4.2986,4.2986,4.2986,4.2986,4.2986,4.2986,4.2986,4.2986,4.2986,4.2986,4.2986,3.8574,4.0657,4.3171,4.4846,4.6248,4.7298,0.0,4.7497,4.7762,4.8379,4.8576,4.8837,4.9396,4.959,4.959,4.9525,4.9525,4.9525,4.9461,4.9461,4.9332,4.9007,4.8706,4.8379,4.8026,4.8026,4.7894,4.7563,4.7563,4.7563,4.7497,4.7497,4.7497,4.7497,4.7762,4.796,4.796,4.7499,4.6989,4.6454,4.5604,4.4948,4.4381,4.468,4.4779,4.4779,4.5453,4.5878,4.612,4.618,4.624,4.6301,4.6301,4.6301,4.6301,4.6301,4.6301,4.6225,4.5748,4.5547,4.5397,4.4895,4.4342,4.389,4.389,4.3514,4.3062,4.3062,4.3037,4.2986,4.2986,4.2986,4.2986,4.2986,4.2986,4.2986,4.2986,4.2986,4.2986,4.2986,4.2986,4.2986,4.2986,4.2986,4.2986,4.2986,4.2986,4.2986,4.2986,4.2986,4.2986,4.2986,4.2986,4.2986,4.2986,4.2986,4.2986,4.2986,4.2986,4.2986,4.2986,4.2986,4.2986,4.2986,4.2986,4.2986,4.2986,4.2986,4.2986,4.2986,4.2986,4.2986,4.0657,4.2052,4.3587,4.5955,4.7008,4.7497,4.7497,4.763,4.796,4.851,4.8772,4.9007,4.9525,4.959,4.959,4.959,4.959,4.959,4.959,4.959,4.9525,4.9396,4.9267,4.9007,4.8682,4.8616,4.8616,4.842,4.8223,4.805,4.7828,4.763,4.7497,4.7497,4.763,4.7696,4.7696,4.7479,4.7092,4.6561,4.6093,4.5561,4.5053,4.511,4.5208,4.5392,4.5696,4.5999,4.6301,4.6301,4.6301,4.6301,4.6301,4.6301,4.6301,4.6301,4.6301,4.6225,4.5673,4.5271,4.4895,4.4342,4.3765,4.3313,4.3313,4.3162,4.2986,4.2986,4.2986,4.2986,4.2986,4.2986,4.2986,4.2986,4.2986,4.2986,4.2986,4.2986,4.2986,4.2986,4.2986,4.2986,4.2986,4.2986,4.2986,4.2986,4.2986,4.2986,4.2986,4.2986,4.2986,4.2986,4.2986,4.2986,4.2986,4.2986,4.2986,4.2986,4.2986,4.2986,4.2986,4.2986,4.2986,4.2986,4.2986,4.2986,4.2986,4.2986,4.2986,4.2986,4.2986,4.2986,4.17,4.2683,4.3656,4.6248,4.7232,4.7497,4.7497,4.7696,4.8026,4.851,4.8772,4.9072,4.9525,4.959,4.959,4.959,4.959,4.959,4.959,4.959,4.959,4.959,4.959,4.9525,4.9267,4.9137,4.9072,4.8942,4.8706,4.8445,4.8182,4.7828,4.763,4.763,4.763,4.763,4.763,4.763,4.7364,4.6834,4.6432,4.6027,4.5619,4.5392,4.5453,4.5696,4.5757,4.5999,4.6301,4.6301,4.6301,4.6301,4.6301,4.6301,4.6301,4.6301,4.6301,4.6225,4.5673,4.5095,4.4543,4.3991,4.3438,4.2986,4.2986,4.2986,4.2986,4.2986,4.2986,4.2986,4.2986,4.2986,4.2986,4.2986,4.2986,4.2986,4.2986,4.2986,4.2986,4.2986,4.2986,4.2986,4.2986,4.2986,4.2986,4.2986,4.2986,4.2986,4.2986,4.2986,4.2986,4.2986,4.2986,4.2986,4.2986,4.2986,4.2986,4.2986,4.2986,4.2986,4.2986,4.2986,4.2986,4.2986,4.2986,4.2986,4.2986,4.2986,4.2986,4.2986,4.2986,4.2986,4.0463,4.1912,4.3379,4.4983,4.6449,4.7497,4.7497,4.7497,4.7696,4.8445,4.86,4.8837,4.9461,4.959,4.959,4.959,4.959,4.959,4.959,4.959,4.959,4.959,4.959,4.959,4.959,4.9267,4.8942,4.8666,4.86,4.86,4.86,4.8182,4.796,4.796,4.796,4.796,4.796,4.796,4.7693,4.7159,4.6303,4.5773,4.5619,4.5392,4.5331,4.5331,4.5635,4.5999,4.6301,4.6301,4.6301,4.6301,4.6301,4.6301,4.6301,4.6301,4.6301,4.6225,4.5673,4.5095,4.4543,4.3991,4.3438,4.2986,4.2986,4.2986,4.2986,4.2986,4.2986,4.2986,4.2986,4.2986,4.2986,4.2986,4.2986,4.2986,4.2986,4.2986,4.2986,4.2986,4.2986,4.2986,4.2986,4.2986,4.2986,4.2986,4.2986,4.2986,4.2986,4.2986,4.2986,4.2986,4.2986,4.2986,4.2986,4.2986,4.2986,4.2986,4.2986,4.2986,4.2986,4.2986,4.2986,4.2986,4.2986,4.2986,4.2986,4.2986,4.2986,4.2986,4.2986,4.2986,4.0012,4.1678,4.3379,4.4914,4.6382,4.7497,4.7497,4.7497,4.763,4.8092,4.8379,4.8706,4.9202,4.9461,4.959,4.959,4.959,4.959,4.959,4.959,4.959,4.959,4.959,4.959,4.959,4.9525,4.9396,4.9267,4.9097,4.8942,4.8942,4.8576,4.8379,4.8379,4.8379,4.8248,4.8026,4.8026,4.7797,4.743,4.6601,4.5959,4.5417,4.5343,4.5453,4.5635,4.5757,4.5999,4.6301,4.6301,4.6301,4.6301,4.6301,4.6301,4.6301,4.6301,4.6301,4.6225,4.5673,4.5372,4.5095,4.4543,4.3966,4.3514,4.3514,4.3263,4.2986,4.2986,4.2986,4.2986,4.2986,4.2986,4.2986,4.2986,4.2986,4.2986,4.2986,4.2986,4.2986,4.2986,4.2986,4.2986,4.2986,4.2986,4.2986,4.2986,4.2986,4.2986,4.2986,4.2986,4.2986,4.2986,4.2986,4.2986,4.2986,4.2986,4.2986,4.2986,4.2986,4.2986,4.2986,4.2986,4.2986,4.2986,4.2986,4.2986,4.2986,4.2986,4.2986,4.2986,4.2986,4.2986,3.9303,4.1278,4.324,4.423,4.6022,4.7497,4.7497,4.7497,4.763,4.7894,4.8248,4.851,4.8837,4.9202,4.9396,4.9396,4.9525,4.959,4.959,4.959,4.959,4.959,4.959,4.959,4.959,4.959,4.959,4.959,4.9396,4.9267,4.9267,4.8967,4.8772,4.8772,4.8641,4.8379,4.8026,4.8026,4.7731,4.7209,4.6794,4.6085,4.5231,4.5306,4.5331,4.5453,4.5574,4.5817,4.612,4.612,4.618,4.6301,4.6301,4.6301,4.6301,4.6301,4.6301,4.625,4.5899,4.5648,4.5422,4.5045,4.4543,4.4091,4.4091,4.384,4.3514,4.3313,4.3263,4.3212,4.3037,4.2986,4.2986,4.2986,4.2986,4.2986,4.2986,4.2986,4.2986,4.2986,4.2986,4.2986,4.2986,4.2986,4.2986,4.2986,4.2986,4.2986,4.2986,4.2986,4.2986,4.2986,4.2986,4.2986,4.2986,4.2986,4.2986,4.2986,4.2986,4.2986,4.2986,4.2986,4.2986,4.2986,4.2986,4.2986,4.2986,4.2986,4.2986,4.2986,4.2986,4.2986,3.8524,4.0758,4.2988,4.3079,4.5323,4.7497,4.7497,4.7497,4.7563,4.7894,4.796,4.8092,4.8535,4.8902,4.9137,4.9137,4.9396,4.959,4.959,4.959,4.959,4.959,4.959,4.959,4.959,4.959,4.959,4.959,4.959,4.959,4.959,4.9332,4.9137,4.9137,4.8837,4.8445,4.8092,4.8026,4.7562,4.6704,4.6841,4.6304,4.5116,4.5231,4.511,4.484,4.5147,4.5514,4.5817,4.5817,4.5999,4.624,4.6301,4.6301,4.6301,4.6301,4.6301,4.6301,4.6301,4.5974,4.5522,4.5522,4.5146,4.4669,4.4669,4.4644,4.4518,4.3991,4.384,4.3714,4.3187,4.3037,4.3011,4.3011,4.2986,4.2986,4.2986,4.2986,4.2986,4.2986,4.2986,4.2986,4.2986,4.2986,4.2986,4.2986,4.2986,4.2986,4.2986,4.2986,4.2986,4.2986,4.2986,4.2986,4.2986,4.2986,4.2986,4.2986,4.2986,4.2986,4.2986,4.2986,4.2986,4.2986,4.2986,4.2986,4.2986,4.2986,4.2986,4.2986,4.2986,4.2986,3.8867,4.0869,4.2938,4.4345,4.6113,4.7497,4.7497,4.7497,4.7497,4.763,4.7828,4.8092,4.8535,4.8902,4.9202,4.9461,4.9525,4.959,4.959,4.959,4.959,4.959,4.959,4.959,4.959,4.959,4.959,4.959,4.959,4.959,4.959,4.9525,4.9461,4.9461,4.9396,4.9202,4.8812,4.8576,4.7979,4.7094,4.7102,4.6415,4.514,4.5122,4.5143,4.5208,4.527,4.5514,4.5817,4.6059,4.6059,4.5939,4.618,4.6301,4.6301,4.6301,4.6301,4.6301,4.6301,4.6225,4.61,4.61,4.5723,4.5271,4.5271,4.497,4.4593,4.4443,4.4418,4.4392,4.4242,4.389,4.3589,4.3589,4.3263,4.2986,4.2986,4.2986,4.2986,4.2986,4.2986,4.2986,4.2986,4.2986,4.2986,4.2986,4.2986,4.2986,4.2986,4.2986,4.2986,4.2986,4.2986,4.2986,4.2986,4.2986,4.2986,4.2986,4.2986,4.2986,4.2986,4.2986,4.2986,4.2986,4.2986,4.2986,4.2986,4.2986,4.2986,4.2986,4.2986,4.2986,3.8718,4.085,4.2911,4.4003,4.5887,4.7497,4.7497,4.7497,4.7497,4.7497,4.763,4.7894,4.8248,4.8641,4.9007,4.9332,4.9525,4.959,4.959,4.959,4.959,4.959,4.959,4.959,4.959,4.959,4.959,4.959,4.959,4.959,4.959,4.959,4.959,4.959,4.959,4.9461,4.9072,4.8772,4.8232,4.7588,4.7345,4.6714,4.5814,4.5483,4.5348,4.5428,4.5306,4.5514,4.5817,4.5999,4.6059,4.6059,4.624,4.6301,4.6301,4.6301,4.6301,4.6301,4.6301,4.6301,4.6301,4.6301,4.61,4.5849,4.5849,4.5623,4.5321,4.507,4.4995,4.4945,4.4694,4.4392,4.4166,4.4166,4.374,4.3338,4.3338,4.3162,4.2986,4.2986,4.2986,4.2986,4.2986,4.2986,4.2986,4.2986,4.2986,4.2986,4.2986,4.2986,4.2986,4.2986,4.2986,4.2986,4.2986,4.2986,4.2986,4.2986,4.2986,4.2986,4.2986,4.2986,4.2986,4.2986,4.2986,4.2986,4.2986,4.2986,4.2986,4.2986,4.2986,4.2986,3.855,4.0717,4.2736,4.3218,4.5255,4.7298,4.7431,4.7497,4.7497,4.7497,4.7497,4.763,4.8026,4.8379,4.8706,4.9072,4.9396,4.959,4.959,4.959,4.959,4.959,4.959,4.959,4.959,4.959,4.959,4.959,4.959,4.959,4.959,4.959,4.959,4.959,4.959,4.9461,4.9202,4.8902,4.851,4.8158,4.7694,4.7232,4.681,4.6212,4.5827,4.5744,4.5589,4.5588,4.5817,4.5817,4.5999,4.624,4.6301,4.6301,4.6301,4.6301,4.6301,4.6301,4.6301,4.6301,4.6301,4.6301,4.6301,4.6301,4.6301,4.6301,4.62,4.5723,4.5598,4.5472,4.497,4.4794,4.4744,4.4744,4.4317,4.3915,4.3915,4.3489,4.3087,4.3087,4.3037,4.2986,4.2986,4.2986,4.2986,4.2986,4.2986,4.2986,4.2986,4.2986,4.2986,4.2986,4.2986,4.2986,4.2986,4.2986,4.2986,4.2986,4.2986,4.2986,4.2986,4.2986,4.2986,4.2986,4.2986,4.2986,4.2986,4.2986,4.2986,4.2986,4.2986,4.2986,3.9414,4.0332,4.1374,4.4186,4.5278,4.5978,4.7232,4.7497,4.7497,4.7497,4.7497,4.7696,4.8379,4.851,4.8772,4.9396,4.9525,4.959,4.959,4.959,4.959,0.0,4.959,4.959,4.959,4.959,4.959,4.959,4.959,4.959,4.959,4.959,4.959,4.959,4.959,4.959,4.9525,4.9461,4.9267,4.8942,4.8843,4.8352,4.7611,4.7479,4.7041,4.6452,4.6415,4.6179,4.5817,4.612,4.6059,4.5878,4.618,4.6301,4.6301,4.6301,4.6301,4.6301,4.6301,4.6301,4.6301,4.6301,4.6301,4.6301,4.6301,4.6301,4.6301,4.62,4.6175,4.615,4.605,4.5673,4.5347,4.5347,4.4895,4.4493,4.4493,4.4041,4.3664,4.3664,4.3288,4.2986,4.2986,4.2986,4.2986,4.2986,4.2986,4.2986,4.2986,4.2986,4.2986,4.2986,4.2986,4.2986,4.2986,4.2986,4.2986,4.2986,4.2986,4.2986,4.2986,4.2986,4.2986,4.2986,4.2986,4.2986,4.2986,4.2986,4.2986,4.2986,4.2986,4.2986,3.9057,3.9942,4.0884,4.257,4.4161,4.5481,4.618,0.0,4.7497,4.7497,4.7497,4.772,4.8445,4.86,4.8837,4.9461,4.959,4.959,4.959,4.959,4.959,4.959,4.959,4.959,4.959,4.959,4.959,4.959,4.959,4.959,4.959,4.959,4.959,4.959,4.959,4.959,4.959,4.9396,4.9267,4.9072,4.8877,4.8624,4.8247,4.8081,4.7877,4.7457,4.701,4.6734,4.6484,4.6366,4.618,4.6059,4.624,4.6301,4.6301,4.6301,4.6301,4.6301,4.6301,4.6301,4.6301,4.6301,4.6301,4.6301,4.6301,4.6301,4.6301,4.6301,4.6301,4.6301,4.6301,4.6125,4.5924,4.5924,4.5472,4.4995,4.4694,4.4418,4.4242,4.4242,4.4016,4.384,4.384,4.384,4.374,4.3438,4.3413,4.3313,4.3011,4.2986,4.2986,4.2986,4.2986,4.2986,4.2986,4.3237,4.3413,4.3413,4.3689,4.384,4.384,4.384,4.384,4.384,4.384,4.384,4.384,4.3539,4.3413,4.3388,4.3112,4.2986,3.8476,3.9478,4.0392,4.0728,4.2823,4.4778,4.4778,4.618,4.7431,4.7074,4.7298,4.7696,4.8379,4.8535,4.8772,4.9396,4.9525,4.959,4.959,4.959,4.959,4.959,4.959,0.0,4.959,4.959,4.959,4.959,4.959,4.959,4.959,4.959,4.959,4.959,4.959,4.959,4.959,4.9332,4.9202,4.9202,4.8967,4.8772,4.8837,4.865,4.8529,4.838,4.7758,4.7355,4.7043,4.6677,4.6426,4.6301,4.6301,4.6301,4.6301,4.6301,4.6301,4.6301,4.6301,4.6301,4.6301,4.6301,4.6301,4.6301,4.6301,4.6301,4.6301,4.6301,4.6301,4.6301,4.6301,4.6301,4.6301,4.6301,4.5974,4.5547,4.5095,4.4895,4.4794,4.4794,4.4719,4.4618,4.4618,4.4618,4.4468,4.4041,4.3966,4.3815,4.3388,4.3338,4.3338,4.3338,4.3212,4.3212,4.3313,4.374,4.3966,4.3966,4.4392,4.4618,4.4618,4.4618,4.4618,4.4618,4.4618,4.4618,4.4618,4.4192,4.3966,4.3966,4.3539,4.3338,3.8555,3.872,3.9136,4.0463,4.2052,4.324,4.324,0.0,4.7141,4.5752,4.6607,4.763,4.796,4.8379,4.8706,4.9072,4.9396,4.959,4.959,4.959,4.959,4.959,0.0,0.0,4.959,4.959,4.959,4.959,4.959,4.959,4.959,4.959,4.959,4.959,4.959,4.959,4.959,4.959,4.9525,4.9525,4.9525,4.9525,4.9525,4.9475,4.9174,4.8761,4.8661,4.8058,4.7068,4.7079,4.6753,4.6301,4.6301,4.6301,4.6301,4.6301,4.6301,4.6301,4.6301,4.6301,4.6301,4.6301,4.6301,4.6301,4.6301,4.6301,4.6301,4.6301,4.6301,4.6301,4.6301,4.6301,4.6301,4.6301,4.6276,4.6225,4.6175,4.5773,4.5422,4.5422,4.4995,4.4618,4.4618,4.4618,4.4593,4.4543,4.4543,4.4543,4.4468,4.4468,4.4468,4.4468,4.4016,4.3915,4.4418,4.4518,4.4543,4.4543,4.4593,4.4618,4.4618,4.4618,4.4618,4.4618,4.4618,4.4618,4.4618,4.4568,4.4543,4.4543,4.4493,4.4468,3.8574,3.8574,3.872,3.9333,4.0586,4.17,4.17,4.4023,4.6046,4.5414,4.6449,4.763,4.796,4.8313,4.8706,4.9072,4.9396,0.0,4.959,4.959,4.959,4.959,4.959,4.959,4.959,4.959,4.959,4.959,4.959,4.959,4.959,4.959,4.959,4.959,4.959,4.959,4.959,4.959,4.959,4.959,4.959,4.959,4.959,4.959,4.9464,4.9238,4.8912,4.851,4.8058,4.7405,4.6943,4.6778,4.6451,4.6301,4.6301,4.6301,4.6301,4.6301,4.6301,4.6301,4.6301,4.6301,4.6301,4.6301,4.6301,4.6301,4.6301,4.6301,4.6301,4.6301,4.6301,4.6301,4.6301,4.6301,4.6301,4.6301,4.6301,4.6125,4.5974,4.5974,4.5799,4.5648,4.5648,4.5648,4.5522,4.5196,4.5146,4.502,4.4669,4.4618,4.4744,4.5095,4.4644,4.4392,4.4593,4.4945,4.5146,4.5146,4.5447,4.5648,4.5648,4.5648,4.5648,4.5648,4.5648,4.5648,4.5648,4.5296,4.5146,4.5121,4.4794,4.4618,3.8574,3.8574,3.8574,3.8574,3.9694,4.0657,4.0249,4.2823,4.521,4.4709,4.618,4.7563,4.7828,4.8182,4.851,4.8877,0.0,4.9461,4.959,4.959,4.959,4.959,4.959,4.959,4.959,4.959,4.959,4.959,4.959,4.959,4.959,4.959,4.959,4.959,4.959,4.959,4.959,4.959,4.959,4.959,4.959,4.959,4.959,4.959,4.959,4.9565,4.9188,4.8912,4.8711,4.7933,4.7531,4.7305,4.6778,4.6552,4.6527,4.6376,4.6301,4.6301,4.6301,4.6301,4.6301,4.6301,4.6301,4.6301,4.6301,4.6301,4.6301,4.6301,4.6301,4.6301,4.6301,4.6301,4.6301,4.6301,4.6301,4.6301,4.6301,4.6301,4.6301,4.6301,4.6301,4.6301,4.6301,4.6301,4.6175,4.5799,4.5723,4.5573,4.5171,4.5121,4.5271,4.5698,4.5372,4.5121,4.5121,4.5497,4.5723,4.5723,4.61,4.6301,4.6301,4.6301,4.6301,4.6301,4.6301,4.6301,4.6301,4.5924,4.5723,4.5723,4.5321,4.5121,3.8574,3.8574,3.8574,3.8574,3.9694,4.0392,3.8918,4.2074,4.4846,4.3309,4.5391,4.7497,4.7497,4.7762,4.8158,4.8535,4.8902,0.0,4.9525,4.959,4.959,4.959,4.959,4.959,4.959,4.959,4.959,4.959,4.959,4.959,4.959,4.959,4.959,4.959,4.959,4.959,4.959,4.959,4.959,4.959,4.959,4.959,4.959,4.959,4.959,4.959,4.959,4.9264,4.8761,4.8761,4.841,4.7857,4.733,4.7068,4.7054,4.6502,4.6301,4.6301,4.6301,4.6301,4.6301,4.6301,4.6301,4.6301,4.6301,4.6301,4.6301,4.6301,4.6301,4.6301,4.6301,4.6301,4.6301,4.6301,4.6301,4.6301,4.6301,4.6301,4.6301,4.6301,4.6301,4.6301,4.6301,4.6301,4.6301,4.6301,4.6301,4.6301,4.6301,4.6301,4.6301,4.6301,4.6301,4.6301,4.6301,4.6301,4.6301,4.6301,4.6301,4.6301,4.6301,4.6301,4.6301,4.6301,4.6301,4.6301,4.6301,4.6301,4.6301,4.6301,4.6301,4.6301,3.8574,3.8574,3.8574,3.8574,3.8918,3.9208,3.872,4.0463,4.2333,4.2892,4.4573,4.6315,4.7298,4.7984,4.8445,4.86,4.9097,0.0,4.959,4.959,4.959,4.959,4.959,4.959,4.959,4.959,4.959,4.959,4.959,4.959,4.959,4.959,4.959,4.959,4.959,4.959,4.959,4.959,4.959,4.959,4.959,4.959,4.959,4.959,4.959,4.959,4.959,4.949,4.9314,4.8937,4.8661,4.8435,4.7883,4.7657,4.7606,4.7054,4.6878,4.6828,4.6451,4.6301,4.6301,4.6301,4.6301,4.6301,4.6301,4.6301,4.6301,4.6301,4.6301,4.6301,4.6301,4.6301,4.6301,4.6301,4.6301,4.6301,4.6301,4.6301,4.6301,4.6301,4.6301,4.6301,4.6301,4.6301,4.6301,4.6301,4.6301,4.6301,4.6301,4.6301,4.6301,4.6301,4.6301,4.6301,4.6301,4.6301,4.6301,4.6301,4.6301,4.6301,4.6301,4.6301,4.6301,4.6301,4.6301,4.6301,4.6301,4.6301,4.6301,4.6301,4.6301,4.6301,3.8574,3.8574,3.8574,3.8574,3.8574,3.8574,3.8574,3.9766,4.1226,4.2683,4.423,4.5752,4.7232,4.7984,4.8445,4.86,4.9097,4.9461,4.959,4.959,4.959,4.959,4.959,4.959,4.959,4.959,4.959,4.959,4.959,4.959,4.959,4.959,4.959,4.959,4.959,4.959,4.959,4.959,4.959,4.959,4.959,4.959,4.959,4.959,4.959,4.959,4.959,4.959,0.0,4.9213,4.9088,4.9012,4.846,4.8234,4.8159,4.7631,4.7244,4.7018,4.6753,4.6476,4.6301,4.6301,4.6301,4.6301,4.6301,4.6301,4.6301,4.6301,4.6301,4.6301,4.6301,4.6301,4.6301,4.6301,4.6301,4.6301,4.6301,4.6301,4.6301,4.6301,4.6301,4.6301,4.6301,4.6301,4.6301,4.6301,4.6301,4.6301,4.6301,4.6301,4.6301,4.6301,4.6301,4.6301,4.6301,4.6301,4.6301,4.6301,4.6301,4.6301,4.6301,4.6301,4.6301,4.6301,4.6301,4.6301,4.6301,4.6301,4.6301,4.6301,4.6301,4.6301,0.0,3.8574,3.8574,3.8574,3.8574,3.8574,3.8574,3.9694,0.0,4.2683,4.4161,4.5617,4.7232,4.7762,4.8182,4.8535,4.8902,4.9267,4.9525,4.959,4.959,4.959,4.959,4.959,4.959,4.959,4.959,4.959,4.959,4.959,4.959,4.959,4.959,4.959,4.959,4.959,4.959,4.959,4.959,4.959,4.959,4.959,4.959,4.959,4.959,4.959,4.959,4.959,4.959,4.959,4.959,4.954,4.9038,4.8837,4.8761,4.8184,4.7657,4.7193,4.7143,4.6828,4.6351,4.6326,4.6301,4.6301,4.6301,4.6301,4.6301,4.6301,4.6301,4.6301,4.6301,4.6301,4.6301,4.6301,4.6301,4.6301,4.6301,4.6301,4.6301,4.6301,4.6301,4.6301,4.6301,4.6301,4.6301,4.6301,4.6301,4.6301,4.6301,4.6301,4.6301,4.6301,4.6301,4.6301,4.6301,4.6301,4.6301,4.6301,4.6301,4.6301,4.6301,4.6301,4.6301,4.6301,4.6301,4.6301,4.6301,4.6301,4.6301,4.6301,4.6301,4.6301,3.8574,0.0,3.8574,3.8574,3.8574,3.8574,0.0,3.8865,3.9838,4.2473,4.3309,4.4344,4.7008,4.805,4.851,4.86,4.9097,4.9525,4.959,4.959,4.959,4.959,4.959,4.959,4.959,4.959,4.959,4.959,4.959,4.959,4.959,4.959,4.959,4.959,4.959,4.959,4.959,4.959,4.959,4.959,4.959,4.959,4.959,4.959,4.959,4.959,4.959,4.959,4.959,4.959,4.959,4.959,4.9464,4.9389,4.9339,4.8761,4.8485,4.8309,4.7883,4.738,4.6878,4.6451,4.6301,4.6301,4.6301,4.6301,4.6301,4.6301,4.6301,4.6301,4.6301,4.6301,4.6301,4.6301,4.6301,4.6301,4.6301,4.6301,4.6301,4.6301,4.6301,4.6301,4.6301,4.6301,4.6301,4.6301,4.6301,4.6301,4.6301,4.6301,4.6301,4.6301,4.6301,4.6301,4.6301,4.6301,4.6301,4.6301,4.6301,4.6301,4.6301,4.6301,4.6301,4.6301,4.6301,4.6301,4.6301,4.6301,4.6301,4.6301,4.6301,4.6301,3.8574,3.8574,3.8574,3.8574,3.8574,3.8574,3.8574,3.8574,3.9405,4.2403,4.3032,4.3932,4.6941,4.8116,4.86,4.86,4.9162,4.959,4.959,4.959,4.959,4.959,4.959,4.959,4.959,4.959,4.959,4.959,4.959,4.959,4.959,4.959,4.959,4.959,4.959,4.959,4.959,4.959,4.959,4.959,4.959,4.959,4.959,4.959,4.959,4.959,4.959,4.959,4.959,4.959,4.959,4.959,4.959,4.959,4.9565,4.9264,4.8987,4.8736,4.841,4.7782,4.7018,4.6778,4.6527,4.6301,4.6301,4.6301,4.6301,4.6301,4.6301,4.6301,4.6301,4.6301,4.6301,4.6301,4.6301,4.6301,4.6301,4.6301,4.6301,4.6301,4.6301,4.6301,4.6301,4.6301,4.6301,4.6301,4.6301,4.6301,4.6301,4.6301,4.6301,4.6301,4.6301,4.6301,4.6301,4.6301,4.6301,4.6301,4.6301,4.6301,4.6301,4.6301,4.6301,4.6301,4.6301,4.6301,4.6301,4.6301,4.6301,4.6301,4.6301,4.6301,3.8574,3.8574,3.8574,3.8574,3.8574,3.8574,3.8574,0.0,0.0,4.2403,4.3032,4.3932,4.6941,4.8116,4.86,4.86,4.9162,4.959,4.959,4.959,4.959,4.959,4.959,4.959,4.959,4.959,4.959,4.959,4.959,4.959,4.959,4.959,4.959,4.959,4.959,4.959,4.959,4.959,4.959,4.959,4.959,4.959,4.959,4.959,4.959,4.959,4.959,4.959,4.959,4.959,4.959,4.959,4.959,4.959,4.959,4.959,4.9289,4.8887,4.8812,4.8159,4.7355,4.728,4.6878,4.6426,4.6426,4.6376,4.6301,4.6301,4.6301,4.6301,4.6301,4.6301,4.6301,4.6301,4.6301,4.6301,4.6301,4.6301,4.6301,4.6301,4.6301,4.6301,4.6301,4.6301,4.6301,4.6301,4.6301,4.6301,4.6301,4.6301,4.6301,4.6301,4.6301,4.6301,4.6301,4.6301,4.6301,4.6301,4.6301,4.6301,4.6301,4.6301,4.6301,4.6301,4.6301,4.6301,4.6301,4.6301,4.6301,4.6301,4.6301,4.6301,3.8574,3.8574,3.8574,3.8574,3.8574,3.8574,3.8574,3.8574,3.9405,0.0,4.3032,4.3932,4.6941,4.8116,4.86,4.86,4.9162,4.959,4.959,4.959,4.959,4.959,4.959,4.959,4.959,4.959,4.959,4.959,4.959,4.959,4.959,4.959,4.959,4.959,4.959,4.959,4.959,4.959,4.959,4.959,4.959,4.959,4.959,4.959,4.959,4.959,4.959,4.959,4.959,4.959,4.959,4.959,4.959,4.959,4.959,4.959,4.954,4.9414,4.8937,4.8661,4.8435,4.7958,4.7431,4.7004,4.7004,4.6677,4.6301,4.6301,4.6301,4.6301,4.6301,4.6301,4.6301,4.6301,4.6301,4.6301,4.6301,4.6301,4.6301,4.6301,4.6301,4.6301,4.6301,4.6301,4.6301,4.6301,4.6301,4.6301,4.6301,4.6301,4.6301,4.6301,4.6301,4.6301,4.6301,4.6301,4.6301,4.6301,4.6301,4.6301,4.6301,4.6301,4.6301,4.6301,4.6301,4.6301,4.6301,4.6301,4.6301,4.6301,4.6301,4.6301,3.8574,3.8574,3.8574,3.8574,3.8574,3.8574,3.8574,3.8574,3.9405,4.2403,4.3032,4.3932,4.6941,4.7918,4.8445,4.8837,4.9267,4.959,4.959,4.959,4.959,4.959,4.959,4.959,4.959,4.959,4.959,4.959,4.959,4.959,4.959,4.959,4.959,4.959,4.959,4.959,4.959,4.959,4.959,4.959,4.959,4.959,4.959,4.959,4.959,4.959,4.959,4.959,4.959,4.959,4.959,4.959,4.959,4.959,4.959,4.959,4.959,4.9565,4.9314,4.9012,4.8736,4.846,4.8008,4.7556,4.7556,4.7179,4.6753,4.6753,4.6552,4.6301,4.6301,4.6301,4.6301,4.6301,4.6301,4.6301,4.6301,4.6301,4.6301,4.6301,4.6301,4.6301,4.6301,4.6301,4.6301,4.6301,4.6301,4.6301,4.6301,4.6301,4.6301,4.6301,4.6301,4.6301,4.6301,4.6301,4.6301,4.6301,4.6301,4.6301,4.6301,4.6301,4.6301,4.6301,4.6301,4.6301,4.6301,4.6301,4.6301,4.6301,4.6301,4.6301,3.8574,3.8574,3.8574,3.8574,3.8574,3.8574,3.8574,3.8574,3.9405,4.2403,4.3032,4.3932,4.6941,4.7828,4.8355,4.9007,4.9396,4.959,4.959,4.959,4.959,4.959,4.959,4.959,4.959,4.959,4.959,4.959,4.959,4.959,4.959,4.959,4.959,4.959,4.959,4.959,4.959,4.959,4.959,4.959,4.959,4.959,4.959,4.959,4.959,4.959,4.959,4.959,4.959,4.959,4.959,4.959,4.959,4.959,4.959,4.959,4.959,4.959,4.959,4.9314,4.8962,4.8962,4.8586,4.8109,4.8109,4.7732,4.7305,4.7305,4.6928,4.6476,4.6351,4.6301,4.6301,4.6301,4.6301,4.6301,4.6301,4.6301,4.6301,4.6301,4.6301,4.6301,4.6301,4.6301,4.6301,4.6301,4.6301,4.6301,4.6301,4.6301,4.6301,4.6301,4.6301,4.6301,4.6301,4.6301,4.6301,4.6301,4.6301,4.6301,4.6301,4.6301,4.6301,4.6301,4.6301,4.6301,4.6301,4.6301,4.6301,4.6301,4.6301,4.6301,3.8574,3.8574,3.8574,3.8574,3.8574,3.8574,3.8574,3.8574,3.9405,4.2403,4.3032,4.3932,4.6941,4.805,4.8706,4.9007,4.9396,4.959,4.959,4.959,4.959,4.959,4.959,4.959,4.959,4.959,4.959,4.959,4.959,4.959,4.959,4.959,4.959,4.959,4.959,4.959,4.959,4.959,4.959,4.959,4.959,4.959,4.959,4.959,4.959,4.959,4.959,4.959,4.959,4.959,4.959,4.959,4.959,4.959,4.959,4.959,4.959,4.959,4.959,4.9565,4.954,4.954,4.9163,4.8711,4.8711,4.8309,4.7857,4.7857,4.7481,4.6954,4.6451,4.6301,4.6301,4.6301,4.6301,4.6301,4.6301,4.6301,4.6301,4.6301,4.6301,4.6301,4.6301,4.6301,4.6301,4.6301,4.6301,4.6301,4.6301,4.6301,4.6301,4.6301,4.6301,4.6301,4.6301,4.6301,4.6301,4.6301,4.6301,4.6301,4.6301,4.6301,4.6301,4.6301,4.6301,4.6301,4.6301,4.6301,4.6301,4.6301,4.6301,4.6301,3.8574,3.8574,3.8574,3.8574,3.8574,3.8574,3.8574,3.8574,3.9208,4.1226,4.2333,4.3932,4.6941,4.7894,4.8379,4.8706,4.9072,4.9332,4.959,4.959,4.959,4.959,4.959,4.959,4.959,4.959,4.959,4.959,4.959,4.959,4.959,4.959,4.959,4.959,4.959,4.959,4.959,4.959,4.959,4.959,4.959,4.959,4.959,4.959,4.959,4.959,4.959,4.959,4.959,4.959,4.959,4.959,4.959,4.959,4.959,4.959,4.959,4.959,4.959,4.959,4.9461,4.8502,4.8704,4.916,4.8207,4.816,4.8435,4.8435,4.8033,4.7481,4.6954,4.6577,4.6301,4.6301,4.6301,4.6301,4.6301,4.6301,4.6301,4.6301,4.6301,4.6301,4.6301,4.6301,4.6301,4.6301,4.6301,4.6301,4.6301,4.6301,4.6301,4.6301,4.6301,4.6301,4.6301,4.6301,4.6301,4.6301,4.6301,4.6301,4.6301,4.6301,4.6301,4.6301,4.6301,4.6301,4.6301,4.6301,4.6301,4.6301,4.6301,4.6301,3.8574,3.8574,3.8574,3.8574,3.8574,3.8574,3.8574,3.8574,3.9136,4.1084,4.3032,4.5051,4.7141,4.7762,4.8092,4.851,4.8902,4.9202,4.9525,4.959,4.959,4.959,4.959,4.959,4.959,4.959,4.959,4.959,4.959,4.959,4.959,4.959,4.959,4.959,4.959,4.959,4.959,4.959,4.959,4.959,4.959,4.959,4.959,4.959,4.959,4.959,4.959,4.959,4.959,4.959,4.959,4.959,4.959,4.9332,4.8918,4.8918,4.8918,4.8918,4.8918,4.9177,4.9461,4.8436,4.8787,4.9332,4.7821,4.7841,4.8283,4.7807,4.7543,4.7431,4.7021,4.6835,4.6828,4.6828,4.6677,4.6577,4.6577,4.6426,4.6301,4.6301,4.6301,4.6301,4.6301,4.6301,4.6301,4.6301,4.6301,4.6301,4.6301,4.6301,4.6301,4.6301,4.6301,4.6301,4.6301,4.6301,4.6301,4.6301,4.6301,4.6301,4.6301,4.6301,4.6301,4.6301,4.6301,4.6301,4.6301,4.6301,4.6301,4.6301,4.6301,4.6301,3.8574,3.8574,3.8574,3.8574,3.8574,3.8574,3.8574,3.8574,3.9405,4.2403,4.5391,4.7431,4.7497,4.7762,4.8116,4.851,4.8902,4.9202,4.9525,4.959,4.959,4.959,4.959,4.959,4.959,4.959,4.959,4.959,4.959,4.959,4.959,4.959,4.959,4.959,4.959,4.959,4.959,4.959,4.959,4.959,4.959,4.959,4.959,4.959,4.959,4.959,4.959,4.959,4.959,4.959,4.959,4.959,4.959,4.8698,4.7425,4.7425,4.7425,4.7425,4.7425,4.8371,4.959,4.959,4.959,4.9332,4.7821,4.7425,4.7069,4.5661,4.5892,4.6566,4.6566,4.7234,4.7845,4.7908,4.7506,4.7093,4.7093,4.6702,4.6326,4.6326,4.6326,4.6326,4.6326,4.6326,4.6326,4.6301,4.6301,4.6301,4.6301,4.6301,4.6301,4.6301,4.6301,4.6301,4.6301,4.6301,4.6301,4.6301,4.6301,4.6301,4.6301,4.6301,4.6301,4.6301,4.6301,4.6301,4.6301,4.6301,4.6301,4.6301,4.6301,4.6301,3.8574,3.8574,3.8574,3.8574,3.8574,3.8574,3.8574,3.8574,3.9136,4.1084,4.2962,4.4709,4.5752,4.6874,4.7828,4.851,4.8641,4.8967,4.9525,4.959,4.959,4.959,4.959,4.959,4.959,4.959,4.959,4.959,4.959,4.959,4.959,4.959,4.959,4.959,4.959,4.959,4.959,4.959,4.959,4.959,4.959,4.959,4.959,4.959,4.959,4.959,4.959,4.959,4.959,4.959,4.959,4.959,4.959,4.9307,4.8853,4.7755,4.7425,4.7425,4.7425,4.7689,4.8019,4.8019,4.8763,4.9112,4.6603,4.6603,4.7069,4.5661,4.5411,4.5631,4.5631,4.5782,4.6335,4.7557,4.7782,4.7682,4.7682,4.7556,4.7431,4.7431,4.7431,4.733,4.6954,4.6878,4.6753,4.6376,4.6301,4.6301,4.6301,4.6301,4.6301,4.6301,4.6301,4.6301,4.6301,4.6301,4.6301,4.6301,4.6301,4.6301,4.6301,4.6301,4.6301,4.6301,4.6301,4.6301,4.6301,4.6301,4.6301,4.6301,4.6301,4.6301,3.8574,3.8574,3.8574,3.8574,3.8574,3.8574,3.8574,3.9063,3.9766,4.0586,4.2473,4.423,4.5142,4.654,4.7696,4.8248,4.851,4.8772,4.9332,4.9525,4.959,4.959,4.959,4.959,4.959,4.959,4.959,4.959,4.959,4.959,4.959,4.959,4.959,4.959,4.959,4.959,4.959,4.959,4.959,4.959,4.959,4.959,4.959,4.959,4.959,4.959,4.959,4.959,4.959,4.959,4.959,4.959,4.959,4.9242,4.8567,4.7069,4.6536,4.6469,4.5864,4.6066,4.6536,4.6536,4.7557,4.8306,4.5932,4.5864,4.6201,4.4778,4.4367,4.4367,4.4367,4.4778,4.5634,4.732,4.7537,4.7516,4.8109,4.8083,4.7908,4.7908,4.7908,4.7807,4.7481,4.7431,4.7255,4.6728,4.6451,4.6301,4.6301,4.6301,4.6301,4.6301,4.6301,4.6301,4.6301,4.6301,4.6301,4.6301,4.6301,4.6301,4.6301,4.6301,4.6301,4.6301,4.6301,4.6301,4.6301,4.6301,4.6301,4.6301,4.6301,4.6301,3.8574,3.8574,3.8574,3.8574,3.8574,3.8574,3.8574,3.9622,4.0586,4.0586,4.2892,4.4937,4.5074,4.6315,4.7431,4.7894,4.8313,4.8706,4.9072,4.9396,4.959,4.959,4.959,4.959,4.959,4.959,4.959,4.959,4.959,4.959,4.959,4.959,4.959,4.959,4.959,4.959,4.959,4.959,4.959,4.959,4.959,4.9525,4.9396,4.9525,4.959,4.959,4.959,4.959,4.959,4.959,4.959,4.959,4.959,4.8787,4.7401,4.5908,4.5323,4.5051,4.37,4.4045,4.5051,4.5164,4.6133,4.6936,4.5435,4.5051,4.4709,4.3306,4.2888,4.2888,4.2888,4.3838,4.5164,4.667,4.6843,4.7029,4.8366,4.8372,4.8058,4.8058,4.8058,4.8033,4.7983,4.7983,4.7807,4.728,4.6753,4.6376,4.6376,4.6351,4.6301,4.6301,4.6301,4.6301,4.6301,4.6301,4.6301,4.6301,4.6301,4.6301,4.6301,4.6301,4.6301,4.6301,4.6301,4.6301,4.6301,4.6301,4.6301,4.6301,4.6301,4.6301,3.8574,3.8574,3.8574,3.8574,3.8574,3.8574,3.8574,3.8865,3.9063,3.9063,4.0535,4.2123,4.3309,4.4709,4.6248,4.7762,4.8313,4.8706,4.9072,4.9396,4.959,4.959,4.959,4.959,4.959,4.959,4.959,4.959,4.959,4.959,4.959,4.959,4.959,4.959,4.959,4.959,4.959,4.959,4.959,4.959,4.959,4.8983,4.7887,4.9047,4.959,4.959,4.959,4.959,4.959,4.959,4.959,4.959,4.959,4.9396,4.8983,4.7491,4.6201,4.5164,4.4846,4.423,4.37,4.4846,4.5435,4.5391,4.3976,4.3562,4.3236,4.1785,4.136,4.136,4.136,4.1573,4.2187,4.37,4.5659,4.7323,4.7652,4.8516,4.9238,4.9238,4.9238,4.9088,4.8661,4.8586,4.8385,4.7832,4.728,4.6954,4.6954,4.6577,4.6301,4.6301,4.6301,4.6301,4.6301,4.6301,4.6301,4.6301,4.6301,4.6301,4.6301,4.6301,4.6301,4.6301,4.6301,4.6301,4.6301,4.6301,4.6301,4.6301,4.6301,4.6301,3.8574,3.8574,3.8574,3.8574,3.8574,3.8574,3.8574,3.8574,3.8574,3.8574,3.9766,4.1226,4.2753,4.4298,4.582,4.7497,4.8248,4.8641,4.8837,4.9267,4.959,4.959,4.959,4.959,4.959,4.959,4.959,4.959,4.959,4.959,4.959,4.959,4.959,4.959,4.959,4.959,4.959,4.8918,4.8567,4.8567,4.7821,4.7069,4.6402,4.7136,4.7887,4.8567,4.8567,4.8983,4.959,4.959,4.959,4.959,4.959,4.959,4.9396,4.7953,4.6936,4.6066,4.4641,4.37,4.3097,4.3145,4.3609,4.4045,4.3306,4.3097,4.2958,4.2187,4.1431,4.0882,4.0882,4.0882,4.1075,4.1855,4.3769,4.5526,4.6201,4.7491,4.8567,4.8567,4.9112,4.9515,4.9213,4.8937,4.8661,4.836,4.7857,4.7405,4.7093,4.6878,4.6602,4.6326,4.6301,4.6301,4.6301,4.6301,4.6301,4.6301,4.6301,4.6301,4.6301,4.6301,4.6301,4.6301,4.6301,4.6301,4.6301,4.6301,4.6301,4.6301,4.6301,4.6301,3.8574,3.8574,3.8574,3.8574,3.8574,3.8574,3.8574,3.8574,3.8574,3.8574,3.955,4.0871,4.2333,4.3863,4.5414,4.6874,4.7894,4.851,4.86,4.9162,4.9525,4.959,4.959,4.959,4.959,4.959,4.959,4.959,4.959,4.959,4.959,4.959,4.959,4.959,4.959,4.959,4.959,4.8371,4.7755,4.7755,4.6066,4.5164,4.5164,4.4983,4.5661,4.7003,4.7003,4.7689,4.8853,4.9112,4.9177,4.9267,4.9525,4.959,4.9461,4.824,4.7623,4.7003,4.4389,4.3306,4.2818,4.136,4.1714,4.2748,4.2748,4.2748,4.2748,4.2748,4.1855,4.0882,4.0882,4.0882,4.0882,4.0882,4.1855,4.3097,4.4504,4.5999,4.7003,4.7003,4.824,4.9177,4.9177,4.9085,4.8912,4.8912,4.841,4.7908,4.7481,4.733,4.7104,4.6627,4.6502,4.6451,4.6451,4.6376,4.6301,4.6301,4.6301,4.6301,4.6301,4.6301,4.6301,4.6301,4.6301,4.6301,4.6301,4.6301,4.6301,4.6301,4.6301,4.6301,3.8574,3.8574,3.8574,3.8574,3.8574,3.8574,3.8574,3.8574,3.8574,3.8574,3.8793,3.9333,4.08,4.2333,4.3794,4.5346,4.6984,4.8182,4.851,4.8967,4.9267,4.959,4.959,4.959,4.959,4.959,4.959,4.959,4.959,4.959,4.959,4.959,4.959,4.959,4.959,4.959,4.959,4.9396,4.9332,4.9242,4.6536,4.5164,4.5164,4.3976,4.4183,4.5503,4.5503,4.5594,4.5932,4.7136,4.7689,4.7821,4.9112,4.959,4.959,4.9396,4.8502,4.7136,4.5526,4.4092,4.2818,4.136,4.1004,4.1218,4.1218,4.1218,4.1218,4.1218,4.1025,4.0882,4.0882,4.0882,4.0882,4.0882,4.1025,4.1573,4.3097,4.4504,4.5503,4.5503,4.667,4.7689,4.7689,4.8713,4.949,4.949,4.9012,4.8636,4.856,4.8109,4.7782,4.7707,4.728,4.6968,4.6968,4.6577,4.6301,4.6301,4.6301,4.6301,4.6301,4.6301,4.6301,4.6301,4.6301,4.6301,4.6301,4.6301,4.6301,4.6301,4.6301,4.6301,3.8574,3.8574,3.8574,3.8574,3.8574,3.8574,3.8574,3.8574,3.8574,3.8574,3.8574,3.9063,4.0535,4.1368,4.2263,4.3794,4.5526,4.6917,4.725,4.833,4.9202,4.9525,4.959,4.959,4.959,4.959,4.959,4.959,4.959,4.959,4.959,4.959,4.959,4.959,4.959,4.959,4.959,4.8787,4.7557,4.5932,4.5458,4.4344,4.2796,4.3816,4.5051,4.6469,4.6469,4.687,4.7623,4.7491,4.7887,4.8632,4.8436,4.8853,4.959,4.959,4.9177,4.8306,4.5999,4.4778,4.3885,4.1643,4.0882,4.0882,4.0882,4.0882,4.0882,4.0882,4.0882,4.0882,4.0882,4.0882,4.0882,4.0882,4.0882,4.1096,4.1714,4.3006,4.423,4.5051,4.5706,4.6201,4.6201,4.6736,4.7136,4.7136,4.7627,4.7905,4.7611,4.8067,4.8259,4.7933,4.7707,4.7556,4.7556,4.733,4.7205,4.7205,4.6928,4.6778,4.6778,4.6476,4.6301,4.6301,4.6301,4.6301,4.6301,4.6301,4.6301,4.6301,4.6301,4.6301,3.8574,3.8574,3.8574,3.8574,3.8574,3.8574,3.8574,3.8574,3.8574,3.8574,3.8574,3.8918,4.0033,4.0514,4.1155,4.2263,4.3932,4.5368,4.6201,4.7425,4.8592,4.9461,4.9525,4.9525,4.959,4.959,4.959,4.959,4.959,4.959,4.959,4.959,4.959,4.959,4.959,4.959,4.959,4.8502,4.6469,4.3631,4.4709,4.3885,4.1502,4.3678,4.5458,4.687,4.687,4.7491,4.8371,4.7269,4.7491,4.8371,4.7269,4.7491,4.8502,4.8502,4.8698,4.8632,4.6133,4.5435,4.53,4.2398,4.1431,4.136,4.1004,4.0882,4.0882,4.0882,4.0882,4.0882,4.0882,4.0882,4.0882,4.0882,4.0882,4.0882,4.0882,4.1785,4.2888,4.3885,4.4436,4.4641,4.4641,4.4983,4.5164,4.5164,4.6133,4.6661,4.6281,4.7564,4.8277,4.7855,4.8021,4.8134,4.8134,4.7983,4.7908,4.7908,4.7531,4.733,4.733,4.6928,4.6652,4.6527,4.6527,4.6451,4.6301,4.6301,4.6301,4.6301,4.6301,4.6301,3.8574,3.8574,3.8574,3.8574,3.8574,3.8574,3.8574,3.8574,3.8574,3.8574,3.8574,3.8647,3.872,3.9838,4.08,4.0871,4.2193,4.3841,4.5976,4.6133,4.6894,4.9332,4.9332,4.9267,4.959,4.959,4.959,4.959,4.959,4.959,4.959,4.959,4.959,4.959,4.959,4.959,4.959,4.9525,4.8019,4.5096,4.5187,4.4436,4.2958,4.3167,4.3976,4.53,4.53,4.5391,4.5435,4.5368,4.5368,4.5435,4.5368,4.5368,4.5435,4.5435,4.6335,4.7269,4.5729,4.6133,4.6803,4.3907,4.2958,4.2748,4.1289,4.0882,4.0882,4.0882,4.0882,4.0882,4.0882,4.0882,4.0882,4.0882,4.0882,4.0882,4.0882,4.0954,4.1025,4.1075,4.2257,4.3236,4.3236,4.4298,4.5164,4.5164,4.5232,4.53,4.5277,4.6556,4.7419,4.7395,4.8219,4.8736,4.8736,4.8234,4.7908,4.7908,4.7883,4.7857,4.7857,4.7832,4.7581,4.7043,4.7043,4.6828,4.6301,4.6301,4.6301,4.6301,4.6301,4.6301,3.8574,3.8574,3.8574,3.8574,3.8574,3.8574,3.8574,3.8574,3.8574,3.8574,3.8574,3.8574,3.8574,3.8991,3.9405,3.9405,4.0586,4.1912,4.2918,4.3841,4.5232,4.7509,4.7707,4.8126,4.9461,4.959,4.959,4.959,4.959,4.959,4.959,4.959,4.959,4.959,4.959,4.959,4.959,4.959,4.8567,4.6603,4.5638,4.4436,4.3097,4.3097,4.3375,4.3907,4.4846,4.5729,4.6603,4.6603,4.7136,4.7821,4.5908,4.5797,4.6469,4.5594,4.6133,4.7202,4.5706,4.6201,4.7069,4.5119,4.3838,4.3027,4.2468,4.1643,4.0882,4.0882,4.0882,4.0882,4.0882,4.0882,4.0882,4.0882,4.0882,4.0882,4.0882,4.0882,4.0882,4.0882,4.1289,4.1714,4.1714,4.2116,4.2446,4.2446,4.3284,4.3838,4.3838,4.5119,4.5999,4.5999,4.7101,4.7881,4.7881,4.8575,4.8987,4.8987,4.8661,4.846,4.846,4.8109,4.7832,4.7631,4.7631,4.7205,4.6301,4.6301,4.6301,4.6301,4.6301,4.6301,3.8574,3.8574,3.8574,3.8574,3.8574,3.8574,3.8574,3.8574,3.8574,3.8574,3.8574,3.8574,3.8574,3.8574,3.8574,3.8574,3.9405,4.0371,4.1205,4.2123,4.3634,4.6288,4.6622,4.7377,4.9267,4.9525,4.9665,4.9866,4.9866,4.9967,5.0142,5.0167,5.0067,4.9866,4.9866,4.9791,4.959,4.959,4.8853,4.7401,4.5932,4.4436,4.3097,4.2608,4.2327,4.2468,4.3885,4.5323,4.6603,4.6133,4.6803,4.7821,4.4892,4.4641,4.5797,4.4298,4.4709,4.5797,4.4846,4.5458,4.6536,4.5503,4.4573,4.37,4.3236,4.2419,4.1502,4.1025,4.0882,4.0882,4.0882,4.0882,4.0882,4.0882,4.0882,4.0882,4.0882,4.0882,4.0882,4.0882,4.0882,4.0882,4.0882,4.0882,4.0882,4.0882,4.1714,4.2327,4.2327,4.3631,4.4504,4.4504,4.5797,4.667,4.667,4.8019,4.8853,4.8853,4.8982,4.9063,4.9063,4.8686,4.8385,4.8209,4.8209,4.7757,4.6853,4.6677,4.6602,4.6577,4.6401,4.6301,0.0,0.0,0.0,3.8574,3.8574,3.8574,3.8574,3.8574,3.8574,3.8574,3.8574,3.8574,3.8574,3.8574,3.8574,3.8574,3.8574,3.9188,4.0992,4.0921,4.2123,4.5706,4.6201,4.6936,4.8853,4.9396,4.9841,5.0368,5.0444,5.0695,5.1247,5.1272,5.1021,5.0469,5.0444,5.0167,4.9615,4.9615,4.8918,4.7425,4.5932,4.4504,4.3097,4.1573,4.0882,4.0954,4.2398,4.3838,4.4983,4.37,4.3976,4.496,4.2116,4.1926,4.2958,4.1502,4.1855,4.3097,4.3097,4.4045,4.5164,4.5164,4.5164,4.4914,4.3492,4.3097,4.2748,4.1289,4.0882,4.0882,4.0882,4.0882,4.0882,4.0882,4.0882,4.0882,4.0882,4.0882,4.0882,4.0882,4.0882,4.0882,4.0882,4.0882,4.0882,4.0882,4.0882,4.0882,4.0882,4.2187,4.3097,4.3027,4.4298,4.5164,4.5164,4.6536,4.7425,4.7491,4.8787,4.959,4.959,4.959,4.9339,4.8812,4.8786,4.851,4.7958,4.7405,4.7093,4.7093,4.6602,4.6351,3.8574,0.0,0.0,0.0,0.0,0.0,3.8574,3.8574,3.8574,3.8574,3.8574,3.8574,3.8574,3.8574,3.8574,3.8574,3.8574,3.8793,3.9261,3.9281,4.0105,4.2452,4.391,4.5412,4.7245,4.9109,5.0243,5.0419,5.0795,5.1096,5.1272,5.1272,5.1197,5.1046,5.1046,5.077,5.0193,5.0193,4.9796,4.8983,4.6402,4.4983,4.4504,4.2046,4.0882,4.0954,4.1289,4.1714,4.2236,4.3885,4.5458,4.6603,4.4755,4.4298,4.4436,4.3027,4.2748,4.3097,4.3097,4.4045,4.5164,4.5164,4.4504,4.3631,4.3236,4.2327,4.1431,4.1004,4.0882,4.0882,4.0882,4.0882,4.0882,4.0882,4.0882,4.0882,4.0882,4.0882,4.0882,4.0882,4.0882,4.0882,4.0882,4.0882,4.0882,4.0882,4.0882,4.0882,4.0882,4.2187,4.2678,4.1643,4.3747,4.5164,4.5164,4.6536,4.7887,4.8918,4.9396,4.959,4.959,4.959,4.9515,4.9364,4.9364,4.9289,4.9113,4.8159,4.7682,4.7682,4.7531,4.7255,3.8574,3.8574,3.8574,3.8574,0.0,0.0,3.8574,3.8574,3.8574,3.8574,3.8574,3.8574,3.8574,3.8574,3.8574,3.8574,3.8574,3.8574,3.8574,3.8574,3.9208,4.0921,4.2171,4.3769,4.5757,4.7373,4.8791,5.0044,5.0456,5.1024,5.195,5.1975,5.1875,5.1624,5.1624,5.1348,5.077,5.0544,5.0243,4.9941,4.7322,4.6133,4.6066,4.3747,4.2726,4.2656,4.2046,4.1855,4.1926,4.3006,4.4298,4.5458,4.3954,4.4161,4.496,4.2936,4.2538,4.3027,4.2398,4.2726,4.354,4.4092,4.3769,4.3097,4.3097,4.2468,4.1714,4.1075,4.0882,4.0882,4.0882,4.0882,4.0882,4.0882,4.0882,4.0882,4.0882,4.0882,4.0882,4.0882,4.0882,4.0882,4.0882,4.0882,4.0882,4.0882,4.0882,4.0882,4.0882,4.1643,4.1855,4.1025,4.2376,4.3401,4.3401,4.53,4.687,4.7689,4.8918,4.959,4.959,4.959,4.959,4.959,4.959,4.959,4.959,4.8711,4.8134,4.7908,4.7908,4.7732,3.8574,3.8574,0.0,3.8574,3.8574,0.0,3.8574,3.8574,3.8574,3.8574,3.8574,3.8574,3.8574,3.8574,3.8574,3.8574,3.8574,3.8574,3.8574,3.8574,3.9063,4.0392,4.0992,4.2152,4.4321,4.5132,4.6681,4.9525,4.9948,5.0978,5.2836,5.2929,5.2703,5.2201,5.2201,5.1858,5.1172,5.0779,5.0438,5.0231,4.8384,4.7497,4.7431,4.5887,4.5164,4.5096,4.37,4.3097,4.2958,4.1502,4.1785,4.2958,4.1643,4.2726,4.4641,4.2116,4.1997,4.2888,4.1431,4.1025,4.136,4.2468,4.2818,4.2818,4.2818,4.2818,4.2608,4.1289,4.0882,4.0882,4.0882,4.0882,4.0882,4.0882,4.0882,4.0882,4.0882,4.0882,4.0882,4.0882,4.0882,4.0882,4.0882,4.0882,4.0882,4.0882,4.0882,4.0882,4.0882,4.1004,4.1096,4.0954,4.1025,4.1147,4.1147,4.347,4.5051,4.5164,4.7689,4.9177,4.9332,4.9396,4.9461,4.959,4.959,4.959,4.959,4.9113,4.8586,4.8083,4.8083,4.8058,3.8574,3.8574,3.8574,3.8574,3.8574,0.0,3.8574,3.8574,3.8574,3.8574,3.8574,3.8574,3.8574,3.8574,3.8574,3.8574,3.8574,3.8574,3.8574,3.8574,3.872,3.8991,4.0371,4.1657,4.2478,4.4649,4.6909,4.9059,5.1121,5.246,5.2861,5.2929,5.2879,5.2779,5.2754,5.1861,5.0101,5.1191,5.0918,4.9184,4.8474,4.8141,4.8074,4.6118,4.5164,4.5096,4.37,4.3097,4.2958,4.1502,4.1785,4.3097,4.2748,4.3027,4.3445,4.2888,4.2818,4.2888,4.1431,4.1714,4.2538,4.1643,4.1289,4.1289,4.1289,4.1289,4.1289,4.1004,4.0882,4.0882,4.0882,4.0882,4.0882,4.0882,4.0882,4.0882,4.0882,4.0882,4.0882,4.0882,4.0882,4.0882,4.0882,4.0882,4.0882,4.0882,4.0882,4.0882,4.0882,4.1926,4.2187,4.1004,4.1997,4.2678,4.2678,4.3167,4.3976,4.5096,4.5729,4.6603,4.7755,4.7821,4.8371,4.959,4.959,4.959,4.959,4.949,4.9364,4.9264,4.9264,4.9038,3.8574,3.8574,3.8574,3.8574,3.8574,0.0,0.0,3.8574,3.8574,3.8574,3.8574,3.8574,3.8574,3.8574,3.8574,3.8574,3.8574,3.8574,3.8574,3.8574,3.8574,3.8574,3.9585,4.0541,4.1228,4.2889,4.5288,4.847,5.0572,5.2119,5.2861,5.2929,5.2929,5.2929,5.2929,5.2435,5.1378,5.1886,5.1544,5.0474,5.0001,4.9675,4.9313,4.8288,4.7666,4.7269,4.5864,4.5255,4.5051,4.2866,4.2398,4.3027,4.2257,4.2468,4.3027,4.2257,4.2468,4.2888,4.1431,4.136,4.1855,4.1147,4.0882,4.0882,4.0882,4.0882,4.0882,4.0882,4.0882,4.0882,4.0882,4.0882,4.0882,4.0882,4.0882,4.0882,4.0882,4.0882,4.0882,4.0882,4.0882,4.0882,4.0882,4.0882,4.0882,4.0882,4.0882,4.0882,4.0882,4.1573,4.1714,4.0954,4.1573,4.1997,4.1997,4.2678,4.3375,4.4114,4.4846,4.5503,4.6268,4.6335,4.667,4.7425,4.7425,4.7755,4.8502,4.8502,4.8918,4.959,4.959,4.9439,3.8574,3.8574,3.8574,3.8574,3.8574,3.8574,0.0,0.0,0.0,3.8574,3.8574,3.8574,3.8574,3.8574,3.8613,3.8691,3.8633,3.8633,3.8809,3.875,3.8691,3.8691,3.9062,3.9661,4.0413,4.149,4.3718,4.7417,4.9415,5.1093,5.2421,5.2698,5.2929,5.2929,5.2929,5.2792,5.2491,5.2042,5.1681,5.1382,5.1135,5.0772,5.0323,5.0388,5.0167,4.9676,4.8067,4.7425,4.716,4.4321,4.3097,4.2958,4.1502,4.1643,4.2538,4.136,4.1855,4.2888,4.1431,4.1075,4.1289,4.1025,4.0882,4.0882,4.0882,4.0882,4.0882,4.0882,4.0882,4.0882,4.0882,4.0882,4.0882,4.0882,4.0882,4.0882,4.0882,4.0882,4.0882,4.0882,4.0882,4.0882,4.0882,4.0882,4.0882,4.0882,4.0882,4.0882,4.0882,4.0882,4.0882,4.0882,4.0882,4.0882,4.0882,4.1997,4.2678,4.2678,4.3747,4.4504,4.4778,4.5051,4.5164,4.5164,4.5164,4.5773,4.7003,4.7003,4.7887,4.959,4.959,4.959,3.8574,3.8574,3.8574,3.8574,3.8574,3.8574,3.8574,0.0,3.8574,3.8574,0.0,3.8574,3.8574,0.0,0.0,3.9062,3.8828,3.8848,3.9629,3.9394,3.9141,3.9141,3.9531,3.998,4.0486,4.252,4.4356,4.5543,4.8384,5.0269,5.0857,5.2189,5.2929,5.2929,5.2929,5.2258,5.0857,5.0809,5.0055,4.8747,4.9555,4.9918,4.989,5.0248,5.0393,5.0228,4.8238,4.7425,4.716,4.4321,4.3097,4.2958,4.1502,4.1025,4.1147,4.0954,4.1855,4.2888,4.1431,4.1785,4.2608,4.1289,4.0882,4.0882,4.0882,4.0882,4.0882,4.0882,4.0882,4.0882,4.0882,4.0882,4.0882,4.0882,4.0882,4.0882,4.0882,4.0882,4.0882,4.0882,4.0882,4.0882,4.0882,4.0882,4.0882,4.0882,4.0882,4.0882,4.0882,4.0882,4.0882,4.0882,4.0882,4.0882,4.0882,4.1025,4.1147,4.1147,4.1289,4.1975,4.3306,4.4504,4.5164,4.5164,4.5164,4.53,4.5435,4.5435,4.687,4.959,4.959,4.959,3.8574,3.8574,3.8574,3.8574,3.8574,3.8574,3.8574,3.8574,3.8574,3.8574,0.0,0.0,0.0,0.0,0.0,0.0,3.9277,3.9473,3.9844,3.9941,3.9883,3.9629,4.0,4.0506,4.1148,4.2172,4.3456,4.517,4.7344,4.9176,5.0505,5.205,5.2929,5.2929,5.2929,5.256,5.1956,5.1956,5.1163,4.9629,5.0077,5.0119,4.9806,4.9991,5.0196,5.0328,4.9488,4.8928,4.8502,4.6469,4.5594,4.5458,4.3954,4.2376,4.0882,4.0882,4.1289,4.1714,4.1075,4.1289,4.1714,4.1075,4.0882,4.0882,4.0882,4.0882,4.0882,4.0882,4.0882,4.0882,4.0882,4.0882,4.0882,4.0882,4.0882,4.0882,4.0882,4.0882,4.0882,4.0882,4.0882,4.0882,4.0882,4.0882,4.0882,4.0882,4.0882,4.0882,4.0882,4.0882,4.0882,4.0882,4.0882,4.0882,4.0882,4.0882,4.0882,4.0882,4.0882,4.1147,4.1785,4.2376,4.2726,4.2726,4.2726,4.3145,4.3976,4.3976,4.5051,4.7069,4.7887,4.8763,3.9208,3.8918,3.8574,3.8574,3.8574,3.8574,3.8574,3.8574,3.8574,3.8574,3.8672,0.0,0.0,0.0,3.9434,3.9551,0.0,3.998,4.0215,4.041,4.041,4.0098,4.0449,4.0974,4.1598,4.1618,4.2447,4.4365,4.6337,4.8144,4.9843,5.1816,5.2929,5.2929,5.2929,5.2929,5.2929,5.2491,5.1537,4.9985,4.9985,4.9748,4.9391,4.9669,5.0177,5.087,5.0544,5.0193,4.9661,4.8092,4.7425,4.7269,4.5797,4.3678,4.1502,4.1502,4.1218,4.0882,4.0882,4.0882,4.0882,4.0882,4.0882,4.0882,4.0882,4.0882,4.0882,4.0882,4.0882,4.0882,4.0882,4.0882,4.0882,4.0882,4.0882,4.0882,4.0882,4.0882,4.0882,4.0882,4.0882,4.0882,4.0882,4.0882,4.0882,4.0882,4.0882,4.0882,4.0882,4.0882,4.0882,4.0882,4.0882,4.0882,4.0882,4.0882,4.1075,4.1502,4.1502,4.1502,4.1502,4.1502,4.1289,4.0954,4.0882,4.1431,4.2468,4.2468,4.3214,4.4641,4.6043,4.7491,4.0728,3.9694,3.8574,3.8574,3.8574,3.8574,3.8574,3.8574,3.8574,3.8574,3.8906,3.918,3.918,3.9551,4.0019,4.041,4.0156,0.0,0.0,4.0781,4.0527,4.0508,4.0879,4.1152,4.125,4.125,4.154,4.2447,4.5298,4.7417,4.8335,5.1257,5.2929,5.2929,5.2929,5.2929,5.2929,5.1443,4.9914,4.8335,4.8335,4.8335,4.8361,4.9345,5.0592,5.1975,5.0896,5.0419,5.0212,4.8238,4.7425,4.7269,4.5797,4.4298,4.3027,4.3027,4.2138,4.0882,4.0882,4.0882,4.0882,4.0882,4.0882,4.0882,4.0882,4.0882,4.0882,4.0882,4.0882,4.0882,4.0882,4.0882,4.0882,4.0882,4.0882,4.0882,4.0882,4.0882,4.0882,4.0882,4.0882,4.0882,4.0882,4.0882,4.0882,4.0882,4.0882,4.0882,4.0882,4.0882,4.0882,4.0882,4.0882,4.0882,4.0882,4.0882,4.1502,4.2958,4.3027,4.3027,4.3027,4.3027,4.2349,4.0954,4.0882,4.0954,4.0954,4.0954,4.1714,4.3167,4.4276,4.5571,4.1084,4.0463,3.9838,3.8846,3.8574,3.8574,3.8574,3.8789,3.8984,3.8984,3.9355,3.9668,3.9668,4.0019,4.0351,0.0,0.0,4.084,0.0,4.1055,4.0957,4.0957,4.1074,4.1172,4.1172,4.1172,4.154,4.237,4.4268,4.6337,4.819,5.0293,5.1816,5.2861,5.2929,5.2929,5.2929,5.2396,5.1373,4.9843,4.9843,4.9271,4.8335,4.9677,5.0422,5.0592,5.127,5.1122,5.0328,4.9669,4.9174,4.8787,4.8306,4.7226,4.5729,4.3769,4.2208,4.0882,4.0882,4.0882,4.0882,4.0882,4.0882,4.0882,4.0882,4.0882,4.0882,4.0882,4.0882,4.0882,4.0882,4.0882,4.0882,4.0882,4.0882,4.0882,4.0882,4.0882,4.0882,4.0882,4.0882,4.0882,4.0882,4.0882,4.0882,4.0882,4.0882,4.0882,4.0882,4.0882,4.0882,4.0882,4.0882,4.0882,4.0882,4.0882,4.1075,4.1643,4.1643,4.1643,4.1643,4.1643,4.1431,4.0954,4.1855,4.1714,4.0525,4.1785,4.1834,4.0841,4.1226,4.2892,4.2683,4.1982,4.1389,4.0648,4.0421,4.0318,3.9991,4.0104,4.0082,3.9582,3.9805,4.0117,4.0117,4.0469,4.0762,0.0,0.0,0.0,0.0,4.1172,4.1172,4.1172,4.1172,4.1172,4.1172,4.1172,4.1483,4.2159,4.378,4.5468,4.7169,4.9415,5.1093,5.205,5.2629,5.2929,5.2929,5.2929,5.2119,5.0576,5.0576,5.0056,4.9128,5.0127,5.0688,5.0954,5.1768,5.1699,5.0971,5.0594,5.0218,4.9866,4.9665,4.8722,4.7136,4.5323,4.3353,4.1643,4.1096,4.0882,4.0882,4.0882,4.0882,4.0882,4.0882,4.0882,4.0882,4.0882,4.0882,4.0882,4.0882,4.0882,4.0882,4.0882,4.0882,4.0882,4.0882,4.0882,4.0882,4.0882,4.0882,4.0882,4.0882,4.0882,4.0882,4.0882,4.0882,4.0882,4.0882,4.0882,4.0882,4.0882,4.0882,4.0882,4.0882,4.0882,4.1147,4.1643,4.1714,4.1714,4.1714,4.1714,4.1599,4.1431,4.2025,4.1883,4.1017,4.1883,4.1551,4.0146,4.0002,4.0963]}]]